<?xml version="1.0" encoding="UTF-8" standalone="no" ?>
<gpx xmlns="http://www.topografix.com/GPX/1/1" xmlns:xsi="http://www.w3.org/2001/XMLSchema-instance" xsi:schemaLocation="http://www.topografix.com/GPX/1/1 http://www.topografix.com/GPX/1/1/gpx.xsd" version="1.1" creator="VisuGPX - https://www.visugpx.com">
  <metadata>
    <name>Chapelle Saint Pons et tour de la montagne de Sumiou</name>
    <desc><![CDATA[Joli parcours varié à partir de Valbelle les Richaud sur sentiers et pistes bien tracés.
Le seul passage délicat est constitué par le franchissement de la falaise de la chapelle de Saint Pons par une suite de passages rocheux et de vires équipés (marches, cordes fixes, main courantes).
]]></desc>
  </metadata>
  <trk>
    <name><![CDATA[Tour Sumian]]></name>
    <trkseg>
      <trkpt lat="44.14792" lon="5.88021">
        <ele>562.99</ele>
        <time>2015-05-24T07:45:01Z</time>
      </trkpt>
      <trkpt lat="44.14792" lon="5.88022">
        <ele>562.51</ele>
        <time>2015-05-24T07:45:25Z</time>
      </trkpt>
      <trkpt lat="44.1479" lon="5.8802">
        <ele>562.51</ele>
        <time>2015-05-24T07:45:40Z</time>
      </trkpt>
      <trkpt lat="44.14789" lon="5.8802">
        <ele>562.51</ele>
        <time>2015-05-24T07:46:00Z</time>
      </trkpt>
      <trkpt lat="44.14791" lon="5.88027">
        <ele>562.51</ele>
        <time>2015-05-24T07:46:18Z</time>
      </trkpt>
      <trkpt lat="44.14791" lon="5.88024">
        <ele>562.51</ele>
        <time>2015-05-24T07:46:42Z</time>
      </trkpt>
      <trkpt lat="44.1479" lon="5.88029">
        <ele>562.51</ele>
        <time>2015-05-24T07:46:55Z</time>
      </trkpt>
      <trkpt lat="44.14788" lon="5.88055">
        <ele>562.51</ele>
        <time>2015-05-24T07:47:12Z</time>
      </trkpt>
      <trkpt lat="44.14786" lon="5.88079">
        <ele>564.43</ele>
        <time>2015-05-24T07:47:29Z</time>
      </trkpt>
      <trkpt lat="44.14787" lon="5.88086">
        <ele>564.43</ele>
        <time>2015-05-24T07:47:48Z</time>
      </trkpt>
      <trkpt lat="44.14785" lon="5.88102">
        <ele>564.91</ele>
        <time>2015-05-24T07:48:02Z</time>
      </trkpt>
      <trkpt lat="44.14781" lon="5.88121">
        <ele>564.91</ele>
        <time>2015-05-24T07:48:17Z</time>
      </trkpt>
      <trkpt lat="44.1478" lon="5.88146">
        <ele>565.87</ele>
        <time>2015-05-24T07:48:33Z</time>
      </trkpt>
      <trkpt lat="44.1478" lon="5.88169">
        <ele>566.83</ele>
        <time>2015-05-24T07:48:49Z</time>
      </trkpt>
      <trkpt lat="44.1478" lon="5.88172">
        <ele>566.83</ele>
        <time>2015-05-24T07:48:51Z</time>
      </trkpt>
      <trkpt lat="44.14775" lon="5.88194">
        <ele>567.8</ele>
        <time>2015-05-24T07:49:06Z</time>
      </trkpt>
      <trkpt lat="44.14763" lon="5.88199">
        <ele>570.2</ele>
        <time>2015-05-24T07:49:19Z</time>
      </trkpt>
      <trkpt lat="44.14762" lon="5.882">
        <ele>570.2</ele>
        <time>2015-05-24T07:49:20Z</time>
      </trkpt>
      <trkpt lat="44.14752" lon="5.88204">
        <ele>571.64</ele>
        <time>2015-05-24T07:49:31Z</time>
      </trkpt>
      <trkpt lat="44.14752" lon="5.88207">
        <ele>571.64</ele>
        <time>2015-05-24T07:49:33Z</time>
      </trkpt>
      <trkpt lat="44.14759" lon="5.88224">
        <ele>573.56</ele>
        <time>2015-05-24T07:49:47Z</time>
      </trkpt>
      <trkpt lat="44.14758" lon="5.88233">
        <ele>575.01</ele>
        <time>2015-05-24T07:49:59Z</time>
      </trkpt>
      <trkpt lat="44.14754" lon="5.88252">
        <ele>576.45</ele>
        <time>2015-05-24T07:50:13Z</time>
      </trkpt>
      <trkpt lat="44.14752" lon="5.88258">
        <ele>576.45</ele>
        <time>2015-05-24T07:50:19Z</time>
      </trkpt>
      <trkpt lat="44.14747" lon="5.88281">
        <ele>577.41</ele>
        <time>2015-05-24T07:50:35Z</time>
      </trkpt>
      <trkpt lat="44.14745" lon="5.88297">
        <ele>577.41</ele>
        <time>2015-05-24T07:50:48Z</time>
      </trkpt>
      <trkpt lat="44.14742" lon="5.88316">
        <ele>578.85</ele>
        <time>2015-05-24T07:51:02Z</time>
      </trkpt>
      <trkpt lat="44.14741" lon="5.8832">
        <ele>578.85</ele>
        <time>2015-05-24T07:51:05Z</time>
      </trkpt>
      <trkpt lat="44.14735" lon="5.88339">
        <ele>579.81</ele>
        <time>2015-05-24T07:51:20Z</time>
      </trkpt>
      <trkpt lat="44.14729" lon="5.8836">
        <ele>580.77</ele>
        <time>2015-05-24T07:51:36Z</time>
      </trkpt>
      <trkpt lat="44.14723" lon="5.88378">
        <ele>581.25</ele>
        <time>2015-05-24T07:51:49Z</time>
      </trkpt>
      <trkpt lat="44.14714" lon="5.88395">
        <ele>582.22</ele>
        <time>2015-05-24T07:52:03Z</time>
      </trkpt>
      <trkpt lat="44.14702" lon="5.88413">
        <ele>582.7</ele>
        <time>2015-05-24T07:52:19Z</time>
      </trkpt>
      <trkpt lat="44.14691" lon="5.8843">
        <ele>582.7</ele>
        <time>2015-05-24T07:52:34Z</time>
      </trkpt>
      <trkpt lat="44.14684" lon="5.88455">
        <ele>583.18</ele>
        <time>2015-05-24T07:52:51Z</time>
      </trkpt>
      <trkpt lat="44.1468" lon="5.88479">
        <ele>583.18</ele>
        <time>2015-05-24T07:53:07Z</time>
      </trkpt>
      <trkpt lat="44.14676" lon="5.88502">
        <ele>583.18</ele>
        <time>2015-05-24T07:53:22Z</time>
      </trkpt>
      <trkpt lat="44.14675" lon="5.88508">
        <ele>583.18</ele>
        <time>2015-05-24T07:53:26Z</time>
      </trkpt>
      <trkpt lat="44.14667" lon="5.8853">
        <ele>583.18</ele>
        <time>2015-05-24T07:53:42Z</time>
      </trkpt>
      <trkpt lat="44.1466" lon="5.88551">
        <ele>583.18</ele>
        <time>2015-05-24T07:53:56Z</time>
      </trkpt>
      <trkpt lat="44.14659" lon="5.88553">
        <ele>583.18</ele>
        <time>2015-05-24T07:53:57Z</time>
      </trkpt>
      <trkpt lat="44.14646" lon="5.88578">
        <ele>583.66</ele>
        <time>2015-05-24T07:54:16Z</time>
      </trkpt>
      <trkpt lat="44.14634" lon="5.88595">
        <ele>584.62</ele>
        <time>2015-05-24T07:54:31Z</time>
      </trkpt>
      <trkpt lat="44.14621" lon="5.88612">
        <ele>586.06</ele>
        <time>2015-05-24T07:54:48Z</time>
      </trkpt>
      <trkpt lat="44.14611" lon="5.88616">
        <ele>587.02</ele>
        <time>2015-05-24T07:54:59Z</time>
      </trkpt>
      <trkpt lat="44.14598" lon="5.88626">
        <ele>588.46</ele>
        <time>2015-05-24T07:55:13Z</time>
      </trkpt>
      <trkpt lat="44.14588" lon="5.88637">
        <ele>589.91</ele>
        <time>2015-05-24T07:55:26Z</time>
      </trkpt>
      <trkpt lat="44.14587" lon="5.88639">
        <ele>589.91</ele>
        <time>2015-05-24T07:55:28Z</time>
      </trkpt>
      <trkpt lat="44.14578" lon="5.88649">
        <ele>591.35</ele>
        <time>2015-05-24T07:55:40Z</time>
      </trkpt>
      <trkpt lat="44.1457" lon="5.88662">
        <ele>592.79</ele>
        <time>2015-05-24T07:55:54Z</time>
      </trkpt>
      <trkpt lat="44.14561" lon="5.88671">
        <ele>594.71</ele>
        <time>2015-05-24T07:56:08Z</time>
      </trkpt>
      <trkpt lat="44.14552" lon="5.88681">
        <ele>596.64</ele>
        <time>2015-05-24T07:56:22Z</time>
      </trkpt>
      <trkpt lat="44.14544" lon="5.88687">
        <ele>598.08</ele>
        <time>2015-05-24T07:56:33Z</time>
      </trkpt>
      <trkpt lat="44.1454" lon="5.88688">
        <ele>599.04</ele>
        <time>2015-05-24T07:56:38Z</time>
      </trkpt>
      <trkpt lat="44.14529" lon="5.8869">
        <ele>600.48</ele>
        <time>2015-05-24T07:56:51Z</time>
      </trkpt>
      <trkpt lat="44.14519" lon="5.88692">
        <ele>601.92</ele>
        <time>2015-05-24T07:57:04Z</time>
      </trkpt>
      <trkpt lat="44.14518" lon="5.88691">
        <ele>601.92</ele>
        <time>2015-05-24T07:57:06Z</time>
      </trkpt>
      <trkpt lat="44.1451" lon="5.88685">
        <ele>603.36</ele>
        <time>2015-05-24T07:57:18Z</time>
      </trkpt>
      <trkpt lat="44.14503" lon="5.88679">
        <ele>604.81</ele>
        <time>2015-05-24T07:57:29Z</time>
      </trkpt>
      <trkpt lat="44.14495" lon="5.88671">
        <ele>605.77</ele>
        <time>2015-05-24T07:57:41Z</time>
      </trkpt>
      <trkpt lat="44.14485" lon="5.88661">
        <ele>607.21</ele>
        <time>2015-05-24T07:57:54Z</time>
      </trkpt>
      <trkpt lat="44.14475" lon="5.88649">
        <ele>607.69</ele>
        <time>2015-05-24T07:58:08Z</time>
      </trkpt>
      <trkpt lat="44.14473" lon="5.88649">
        <ele>608.17</ele>
        <time>2015-05-24T07:58:10Z</time>
      </trkpt>
      <trkpt lat="44.14466" lon="5.88652">
        <ele>609.13</ele>
        <time>2015-05-24T07:58:18Z</time>
      </trkpt>
      <trkpt lat="44.14458" lon="5.88664">
        <ele>610.57</ele>
        <time>2015-05-24T07:58:32Z</time>
      </trkpt>
      <trkpt lat="44.14452" lon="5.88669">
        <ele>611.54</ele>
        <time>2015-05-24T07:58:41Z</time>
      </trkpt>
      <trkpt lat="44.14448" lon="5.88684">
        <ele>612.98</ele>
        <time>2015-05-24T07:58:54Z</time>
      </trkpt>
      <trkpt lat="44.14443" lon="5.88696">
        <ele>614.42</ele>
        <time>2015-05-24T07:59:07Z</time>
      </trkpt>
      <trkpt lat="44.14438" lon="5.88711">
        <ele>615.86</ele>
        <time>2015-05-24T07:59:22Z</time>
      </trkpt>
      <trkpt lat="44.14431" lon="5.8872">
        <ele>617.3</ele>
        <time>2015-05-24T07:59:34Z</time>
      </trkpt>
      <trkpt lat="44.1443" lon="5.88738">
        <ele>618.26</ele>
        <time>2015-05-24T07:59:48Z</time>
      </trkpt>
      <trkpt lat="44.14427" lon="5.88752">
        <ele>619.71</ele>
        <time>2015-05-24T08:00:01Z</time>
      </trkpt>
      <trkpt lat="44.14425" lon="5.88755">
        <ele>619.71</ele>
        <time>2015-05-24T08:00:04Z</time>
      </trkpt>
      <trkpt lat="44.14416" lon="5.88766">
        <ele>620.67</ele>
        <time>2015-05-24T08:00:18Z</time>
      </trkpt>
      <trkpt lat="44.14409" lon="5.88769">
        <ele>621.15</ele>
        <time>2015-05-24T08:00:24Z</time>
      </trkpt>
      <trkpt lat="44.14395" lon="5.88776">
        <ele>623.07</ele>
        <time>2015-05-24T08:00:39Z</time>
      </trkpt>
      <trkpt lat="44.14392" lon="5.88778">
        <ele>623.07</ele>
        <time>2015-05-24T08:00:42Z</time>
      </trkpt>
      <trkpt lat="44.14381" lon="5.88783">
        <ele>624.99</ele>
        <time>2015-05-24T08:00:56Z</time>
      </trkpt>
      <trkpt lat="44.14387" lon="5.88775">
        <ele>626.44</ele>
        <time>2015-05-24T08:01:09Z</time>
      </trkpt>
      <trkpt lat="44.14395" lon="5.88761">
        <ele>626.92</ele>
        <time>2015-05-24T08:01:24Z</time>
      </trkpt>
      <trkpt lat="44.144" lon="5.88746">
        <ele>627.88</ele>
        <time>2015-05-24T08:01:38Z</time>
      </trkpt>
      <trkpt lat="44.14395" lon="5.88734">
        <ele>629.32</ele>
        <time>2015-05-24T08:01:52Z</time>
      </trkpt>
      <trkpt lat="44.14387" lon="5.88717">
        <ele>630.28</ele>
        <time>2015-05-24T08:02:07Z</time>
      </trkpt>
      <trkpt lat="44.14376" lon="5.88709">
        <ele>631.24</ele>
        <time>2015-05-24T08:02:21Z</time>
      </trkpt>
      <trkpt lat="44.14365" lon="5.88711">
        <ele>633.17</ele>
        <time>2015-05-24T08:02:35Z</time>
      </trkpt>
      <trkpt lat="44.14353" lon="5.88716">
        <ele>635.57</ele>
        <time>2015-05-24T08:02:51Z</time>
      </trkpt>
      <trkpt lat="44.14344" lon="5.88724">
        <ele>637.01</ele>
        <time>2015-05-24T08:03:05Z</time>
      </trkpt>
      <trkpt lat="44.14337" lon="5.88733">
        <ele>638.45</ele>
        <time>2015-05-24T08:03:20Z</time>
      </trkpt>
      <trkpt lat="44.14329" lon="5.88745">
        <ele>639.89</ele>
        <time>2015-05-24T08:03:35Z</time>
      </trkpt>
      <trkpt lat="44.14323" lon="5.88757">
        <ele>642.78</ele>
        <time>2015-05-24T08:03:50Z</time>
      </trkpt>
      <trkpt lat="44.14316" lon="5.88768">
        <ele>644.22</ele>
        <time>2015-05-24T08:04:05Z</time>
      </trkpt>
      <trkpt lat="44.14309" lon="5.88776">
        <ele>645.66</ele>
        <time>2015-05-24T08:04:19Z</time>
      </trkpt>
      <trkpt lat="44.14304" lon="5.88785">
        <ele>647.1</ele>
        <time>2015-05-24T08:04:31Z</time>
      </trkpt>
      <trkpt lat="44.14296" lon="5.88797">
        <ele>647.59</ele>
        <time>2015-05-24T08:04:45Z</time>
      </trkpt>
      <trkpt lat="44.14288" lon="5.88806">
        <ele>648.55</ele>
        <time>2015-05-24T08:04:59Z</time>
      </trkpt>
      <trkpt lat="44.14278" lon="5.88814">
        <ele>649.03</ele>
        <time>2015-05-24T08:05:13Z</time>
      </trkpt>
      <trkpt lat="44.14277" lon="5.88815">
        <ele>649.03</ele>
        <time>2015-05-24T08:05:14Z</time>
      </trkpt>
      <trkpt lat="44.14265" lon="5.88825">
        <ele>649.99</ele>
        <time>2015-05-24T08:05:30Z</time>
      </trkpt>
      <trkpt lat="44.14261" lon="5.88828">
        <ele>650.47</ele>
        <time>2015-05-24T08:05:35Z</time>
      </trkpt>
      <trkpt lat="44.1425" lon="5.88837">
        <ele>651.43</ele>
        <time>2015-05-24T08:05:49Z</time>
      </trkpt>
      <trkpt lat="44.1424" lon="5.88853">
        <ele>652.39</ele>
        <time>2015-05-24T08:06:05Z</time>
      </trkpt>
      <trkpt lat="44.1423" lon="5.88868">
        <ele>653.35</ele>
        <time>2015-05-24T08:06:22Z</time>
      </trkpt>
      <trkpt lat="44.14215" lon="5.88878">
        <ele>653.83</ele>
        <time>2015-05-24T08:06:38Z</time>
      </trkpt>
      <trkpt lat="44.14211" lon="5.88881">
        <ele>653.83</ele>
        <time>2015-05-24T08:06:42Z</time>
      </trkpt>
      <trkpt lat="44.142" lon="5.88895">
        <ele>654.31</ele>
        <time>2015-05-24T08:06:59Z</time>
      </trkpt>
      <trkpt lat="44.14189" lon="5.88909">
        <ele>654.8</ele>
        <time>2015-05-24T08:07:13Z</time>
      </trkpt>
      <trkpt lat="44.14189" lon="5.8891">
        <ele>654.8</ele>
        <time>2015-05-24T08:07:14Z</time>
      </trkpt>
      <trkpt lat="44.14177" lon="5.88921">
        <ele>655.28</ele>
        <time>2015-05-24T08:07:28Z</time>
      </trkpt>
      <trkpt lat="44.14166" lon="5.88932">
        <ele>655.76</ele>
        <time>2015-05-24T08:07:44Z</time>
      </trkpt>
      <trkpt lat="44.14155" lon="5.88942">
        <ele>656.24</ele>
        <time>2015-05-24T08:07:56Z</time>
      </trkpt>
      <trkpt lat="44.14142" lon="5.88952">
        <ele>656.24</ele>
        <time>2015-05-24T08:08:10Z</time>
      </trkpt>
      <trkpt lat="44.14133" lon="5.88961">
        <ele>656.72</ele>
        <time>2015-05-24T08:08:21Z</time>
      </trkpt>
      <trkpt lat="44.14121" lon="5.88972">
        <ele>656.72</ele>
        <time>2015-05-24T08:08:35Z</time>
      </trkpt>
      <trkpt lat="44.14109" lon="5.88985">
        <ele>656.72</ele>
        <time>2015-05-24T08:08:50Z</time>
      </trkpt>
      <trkpt lat="44.14096" lon="5.88999">
        <ele>657.2</ele>
        <time>2015-05-24T08:09:04Z</time>
      </trkpt>
      <trkpt lat="44.14079" lon="5.89014">
        <ele>658.16</ele>
        <time>2015-05-24T08:09:20Z</time>
      </trkpt>
      <trkpt lat="44.14068" lon="5.89025">
        <ele>658.64</ele>
        <time>2015-05-24T08:09:35Z</time>
      </trkpt>
      <trkpt lat="44.14053" lon="5.89035">
        <ele>659.12</ele>
        <time>2015-05-24T08:09:51Z</time>
      </trkpt>
      <trkpt lat="44.14039" lon="5.89048">
        <ele>660.56</ele>
        <time>2015-05-24T08:10:08Z</time>
      </trkpt>
      <trkpt lat="44.14028" lon="5.89056">
        <ele>661.52</ele>
        <time>2015-05-24T08:10:23Z</time>
      </trkpt>
      <trkpt lat="44.14016" lon="5.89064">
        <ele>662.49</ele>
        <time>2015-05-24T08:10:37Z</time>
      </trkpt>
      <trkpt lat="44.14004" lon="5.89073">
        <ele>663.45</ele>
        <time>2015-05-24T08:10:52Z</time>
      </trkpt>
      <trkpt lat="44.13995" lon="5.89091">
        <ele>664.89</ele>
        <time>2015-05-24T08:11:10Z</time>
      </trkpt>
      <trkpt lat="44.13983" lon="5.891">
        <ele>666.33</ele>
        <time>2015-05-24T08:11:28Z</time>
      </trkpt>
      <trkpt lat="44.13969" lon="5.89106">
        <ele>667.29</ele>
        <time>2015-05-24T08:11:45Z</time>
      </trkpt>
      <trkpt lat="44.13957" lon="5.89109">
        <ele>668.73</ele>
        <time>2015-05-24T08:12:00Z</time>
      </trkpt>
      <trkpt lat="44.13944" lon="5.89114">
        <ele>669.7</ele>
        <time>2015-05-24T08:12:13Z</time>
      </trkpt>
      <trkpt lat="44.13933" lon="5.89111">
        <ele>670.18</ele>
        <time>2015-05-24T08:12:29Z</time>
      </trkpt>
      <trkpt lat="44.13934" lon="5.89105">
        <ele>668.73</ele>
        <time>2015-05-24T08:12:35Z</time>
      </trkpt>
      <trkpt lat="44.13935" lon="5.8909">
        <ele>666.81</ele>
        <time>2015-05-24T08:12:51Z</time>
      </trkpt>
      <trkpt lat="44.13926" lon="5.89081">
        <ele>665.85</ele>
        <time>2015-05-24T08:13:04Z</time>
      </trkpt>
      <trkpt lat="44.13924" lon="5.89066">
        <ele>665.37</ele>
        <time>2015-05-24T08:13:20Z</time>
      </trkpt>
      <trkpt lat="44.13921" lon="5.89047">
        <ele>664.89</ele>
        <time>2015-05-24T08:13:36Z</time>
      </trkpt>
      <trkpt lat="44.13916" lon="5.89025">
        <ele>664.89</ele>
        <time>2015-05-24T08:13:53Z</time>
      </trkpt>
      <trkpt lat="44.13915" lon="5.89022">
        <ele>666.33</ele>
        <time>2015-05-24T08:13:56Z</time>
      </trkpt>
      <trkpt lat="44.13914" lon="5.89006">
        <ele>666.81</ele>
        <time>2015-05-24T08:14:12Z</time>
      </trkpt>
      <trkpt lat="44.1391" lon="5.88984">
        <ele>667.77</ele>
        <time>2015-05-24T08:14:27Z</time>
      </trkpt>
      <trkpt lat="44.13906" lon="5.88969">
        <ele>669.22</ele>
        <time>2015-05-24T08:14:41Z</time>
      </trkpt>
      <trkpt lat="44.13904" lon="5.88957">
        <ele>670.18</ele>
        <time>2015-05-24T08:14:53Z</time>
      </trkpt>
      <trkpt lat="44.13898" lon="5.88943">
        <ele>671.62</ele>
        <time>2015-05-24T08:15:07Z</time>
      </trkpt>
      <trkpt lat="44.13894" lon="5.88927">
        <ele>673.06</ele>
        <time>2015-05-24T08:15:22Z</time>
      </trkpt>
      <trkpt lat="44.1389" lon="5.8891">
        <ele>674.5</ele>
        <time>2015-05-24T08:15:39Z</time>
      </trkpt>
      <trkpt lat="44.13884" lon="5.88897">
        <ele>674.98</ele>
        <time>2015-05-24T08:15:51Z</time>
      </trkpt>
      <trkpt lat="44.13876" lon="5.88878">
        <ele>675.94</ele>
        <time>2015-05-24T08:16:06Z</time>
      </trkpt>
      <trkpt lat="44.13872" lon="5.88868">
        <ele>677.39</ele>
        <time>2015-05-24T08:16:21Z</time>
      </trkpt>
      <trkpt lat="44.13862" lon="5.88852">
        <ele>679.79</ele>
        <time>2015-05-24T08:16:40Z</time>
      </trkpt>
      <trkpt lat="44.13855" lon="5.8884">
        <ele>681.23</ele>
        <time>2015-05-24T08:16:56Z</time>
      </trkpt>
      <trkpt lat="44.13847" lon="5.88821">
        <ele>683.15</ele>
        <time>2015-05-24T08:17:15Z</time>
      </trkpt>
      <trkpt lat="44.13838" lon="5.88814">
        <ele>684.6</ele>
        <time>2015-05-24T08:17:33Z</time>
      </trkpt>
      <trkpt lat="44.13835" lon="5.88801">
        <ele>687.48</ele>
        <time>2015-05-24T08:17:52Z</time>
      </trkpt>
      <trkpt lat="44.13829" lon="5.88786">
        <ele>689.88</ele>
        <time>2015-05-24T08:18:12Z</time>
      </trkpt>
      <trkpt lat="44.13823" lon="5.88766">
        <ele>691.81</ele>
        <time>2015-05-24T08:18:27Z</time>
      </trkpt>
      <trkpt lat="44.13819" lon="5.88757">
        <ele>692.77</ele>
        <time>2015-05-24T08:18:42Z</time>
      </trkpt>
      <trkpt lat="44.1381" lon="5.88741">
        <ele>695.17</ele>
        <time>2015-05-24T08:19:00Z</time>
      </trkpt>
      <trkpt lat="44.13803" lon="5.88732">
        <ele>698.05</ele>
        <time>2015-05-24T08:19:18Z</time>
      </trkpt>
      <trkpt lat="44.13789" lon="5.88726">
        <ele>701.42</ele>
        <time>2015-05-24T08:19:37Z</time>
      </trkpt>
      <trkpt lat="44.13785" lon="5.88721">
        <ele>703.34</ele>
        <time>2015-05-24T08:19:51Z</time>
      </trkpt>
      <trkpt lat="44.13776" lon="5.88714">
        <ele>705.75</ele>
        <time>2015-05-24T08:20:08Z</time>
      </trkpt>
      <trkpt lat="44.13763" lon="5.88704">
        <ele>707.19</ele>
        <time>2015-05-24T08:20:24Z</time>
      </trkpt>
      <trkpt lat="44.13756" lon="5.88698">
        <ele>708.63</ele>
        <time>2015-05-24T08:20:40Z</time>
      </trkpt>
      <trkpt lat="44.13753" lon="5.8869">
        <ele>711.03</ele>
        <time>2015-05-24T08:20:57Z</time>
      </trkpt>
      <trkpt lat="44.13752" lon="5.88683">
        <ele>712.95</ele>
        <time>2015-05-24T08:21:11Z</time>
      </trkpt>
      <trkpt lat="44.13753" lon="5.88676">
        <ele>714.88</ele>
        <time>2015-05-24T08:21:27Z</time>
      </trkpt>
      <trkpt lat="44.13762" lon="5.88662">
        <ele>716.32</ele>
        <time>2015-05-24T08:21:42Z</time>
      </trkpt>
      <trkpt lat="44.13751" lon="5.88659">
        <ele>718.72</ele>
        <time>2015-05-24T08:21:58Z</time>
      </trkpt>
      <trkpt lat="44.13746" lon="5.8867">
        <ele>719.68</ele>
        <time>2015-05-24T08:22:12Z</time>
      </trkpt>
      <trkpt lat="44.13742" lon="5.88682">
        <ele>720.65</ele>
        <time>2015-05-24T08:22:27Z</time>
      </trkpt>
      <trkpt lat="44.13735" lon="5.88687">
        <ele>723.05</ele>
        <time>2015-05-24T08:22:42Z</time>
      </trkpt>
      <trkpt lat="44.13732" lon="5.88693">
        <ele>724.97</ele>
        <time>2015-05-24T08:22:58Z</time>
      </trkpt>
      <trkpt lat="44.13735" lon="5.88679">
        <ele>725.93</ele>
        <time>2015-05-24T08:23:16Z</time>
      </trkpt>
      <trkpt lat="44.13729" lon="5.88673">
        <ele>728.34</ele>
        <time>2015-05-24T08:23:33Z</time>
      </trkpt>
      <trkpt lat="44.13727" lon="5.88668">
        <ele>731.22</ele>
        <time>2015-05-24T08:23:49Z</time>
      </trkpt>
      <trkpt lat="44.13736" lon="5.88653">
        <ele>732.66</ele>
        <time>2015-05-24T08:24:05Z</time>
      </trkpt>
      <trkpt lat="44.13736" lon="5.88637">
        <ele>734.1</ele>
        <time>2015-05-24T08:24:23Z</time>
      </trkpt>
      <trkpt lat="44.13728" lon="5.88618">
        <ele>735.07</ele>
        <time>2015-05-24T08:24:41Z</time>
      </trkpt>
      <trkpt lat="44.13719" lon="5.886">
        <ele>737.47</ele>
        <time>2015-05-24T08:25:02Z</time>
      </trkpt>
      <trkpt lat="44.13716" lon="5.88585">
        <ele>736.51</ele>
        <time>2015-05-24T08:25:17Z</time>
      </trkpt>
      <trkpt lat="44.13705" lon="5.88571">
        <ele>738.91</ele>
        <time>2015-05-24T08:25:35Z</time>
      </trkpt>
      <trkpt lat="44.13705" lon="5.88557">
        <ele>741.79</ele>
        <time>2015-05-24T08:25:54Z</time>
      </trkpt>
      <trkpt lat="44.13698" lon="5.88547">
        <ele>742.76</ele>
        <time>2015-05-24T08:26:07Z</time>
      </trkpt>
      <trkpt lat="44.13687" lon="5.88535">
        <ele>742.76</ele>
        <time>2015-05-24T08:26:21Z</time>
      </trkpt>
      <trkpt lat="44.13683" lon="5.88531">
        <ele>742.76</ele>
        <time>2015-05-24T08:26:27Z</time>
      </trkpt>
      <trkpt lat="44.13672" lon="5.8852">
        <ele>743.24</ele>
        <time>2015-05-24T08:26:41Z</time>
      </trkpt>
      <trkpt lat="44.13663" lon="5.88502">
        <ele>741.31</ele>
        <time>2015-05-24T08:26:59Z</time>
      </trkpt>
      <trkpt lat="44.13649" lon="5.88489">
        <ele>742.76</ele>
        <time>2015-05-24T08:27:17Z</time>
      </trkpt>
      <trkpt lat="44.13638" lon="5.88482">
        <ele>745.16</ele>
        <time>2015-05-24T08:27:33Z</time>
      </trkpt>
      <trkpt lat="44.1363" lon="5.88478">
        <ele>746.6</ele>
        <time>2015-05-24T08:27:46Z</time>
      </trkpt>
      <trkpt lat="44.13617" lon="5.88474">
        <ele>748.52</ele>
        <time>2015-05-24T08:28:02Z</time>
      </trkpt>
      <trkpt lat="44.13606" lon="5.88474">
        <ele>751.89</ele>
        <time>2015-05-24T08:28:19Z</time>
      </trkpt>
      <trkpt lat="44.13601" lon="5.88472">
        <ele>753.81</ele>
        <time>2015-05-24T08:28:36Z</time>
      </trkpt>
      <trkpt lat="44.13595" lon="5.88474">
        <ele>756.69</ele>
        <time>2015-05-24T08:28:52Z</time>
      </trkpt>
      <trkpt lat="44.13588" lon="5.88478">
        <ele>759.58</ele>
        <time>2015-05-24T08:29:09Z</time>
      </trkpt>
      <trkpt lat="44.13581" lon="5.88482">
        <ele>761.98</ele>
        <time>2015-05-24T08:29:25Z</time>
      </trkpt>
      <trkpt lat="44.13577" lon="5.8848">
        <ele>764.39</ele>
        <time>2015-05-24T08:29:41Z</time>
      </trkpt>
      <trkpt lat="44.13574" lon="5.8847">
        <ele>766.31</ele>
        <time>2015-05-24T08:30:00Z</time>
      </trkpt>
      <trkpt lat="44.13568" lon="5.88458">
        <ele>768.23</ele>
        <time>2015-05-24T08:30:17Z</time>
      </trkpt>
      <trkpt lat="44.13555" lon="5.88447">
        <ele>770.15</ele>
        <time>2015-05-24T08:30:34Z</time>
      </trkpt>
      <trkpt lat="44.13547" lon="5.8845">
        <ele>772.56</ele>
        <time>2015-05-24T08:30:48Z</time>
      </trkpt>
      <trkpt lat="44.13541" lon="5.88457">
        <ele>775.44</ele>
        <time>2015-05-24T08:31:06Z</time>
      </trkpt>
      <trkpt lat="44.13537" lon="5.88457">
        <ele>777.36</ele>
        <time>2015-05-24T08:31:21Z</time>
      </trkpt>
      <trkpt lat="44.13543" lon="5.88463">
        <ele>779.77</ele>
        <time>2015-05-24T08:31:34Z</time>
      </trkpt>
      <trkpt lat="44.13542" lon="5.88468">
        <ele>781.69</ele>
        <time>2015-05-24T08:31:50Z</time>
      </trkpt>
      <trkpt lat="44.13538" lon="5.8847">
        <ele>784.57</ele>
        <time>2015-05-24T08:32:05Z</time>
      </trkpt>
      <trkpt lat="44.13542" lon="5.88477">
        <ele>786.98</ele>
        <time>2015-05-24T08:32:22Z</time>
      </trkpt>
      <trkpt lat="44.13545" lon="5.88485">
        <ele>789.86</ele>
        <time>2015-05-24T08:32:38Z</time>
      </trkpt>
      <trkpt lat="44.13542" lon="5.88488">
        <ele>792.26</ele>
        <time>2015-05-24T08:32:52Z</time>
      </trkpt>
      <trkpt lat="44.13542" lon="5.88493">
        <ele>794.67</ele>
        <time>2015-05-24T08:33:07Z</time>
      </trkpt>
      <trkpt lat="44.13544" lon="5.885">
        <ele>797.55</ele>
        <time>2015-05-24T08:33:25Z</time>
      </trkpt>
      <trkpt lat="44.13536" lon="5.88496">
        <ele>799.47</ele>
        <time>2015-05-24T08:33:40Z</time>
      </trkpt>
      <trkpt lat="44.13529" lon="5.88496">
        <ele>801.4</ele>
        <time>2015-05-24T08:33:54Z</time>
      </trkpt>
      <trkpt lat="44.13521" lon="5.88492">
        <ele>803.8</ele>
        <time>2015-05-24T08:34:12Z</time>
      </trkpt>
      <trkpt lat="44.13519" lon="5.88491">
        <ele>806.68</ele>
        <time>2015-05-24T08:34:29Z</time>
      </trkpt>
      <trkpt lat="44.13525" lon="5.88496">
        <ele>809.57</ele>
        <time>2015-05-24T08:34:45Z</time>
      </trkpt>
      <trkpt lat="44.13535" lon="5.88496">
        <ele>811.97</ele>
        <time>2015-05-24T08:35:01Z</time>
      </trkpt>
      <trkpt lat="44.13536" lon="5.88499">
        <ele>814.85</ele>
        <time>2015-05-24T08:35:17Z</time>
      </trkpt>
      <trkpt lat="44.13535" lon="5.88496">
        <ele>818.22</ele>
        <time>2015-05-24T08:35:34Z</time>
      </trkpt>
      <trkpt lat="44.13529" lon="5.88492">
        <ele>820.62</ele>
        <time>2015-05-24T08:35:51Z</time>
      </trkpt>
      <trkpt lat="44.13519" lon="5.885">
        <ele>823.51</ele>
        <time>2015-05-24T08:36:11Z</time>
      </trkpt>
      <trkpt lat="44.13514" lon="5.88495">
        <ele>826.87</ele>
        <time>2015-05-24T08:36:28Z</time>
      </trkpt>
      <trkpt lat="44.1351" lon="5.885">
        <ele>829.27</ele>
        <time>2015-05-24T08:36:49Z</time>
      </trkpt>
      <trkpt lat="44.13523" lon="5.88511">
        <ele>831.68</ele>
        <time>2015-05-24T08:37:06Z</time>
      </trkpt>
      <trkpt lat="44.13544" lon="5.88529">
        <ele>834.08</ele>
        <time>2015-05-24T08:37:27Z</time>
      </trkpt>
      <trkpt lat="44.13559" lon="5.88545">
        <ele>836</ele>
        <time>2015-05-24T08:37:41Z</time>
      </trkpt>
      <trkpt lat="44.13568" lon="5.88554">
        <ele>838.41</ele>
        <time>2015-05-24T08:37:58Z</time>
      </trkpt>
      <trkpt lat="44.13588" lon="5.88561">
        <ele>839.85</ele>
        <time>2015-05-24T08:38:10Z</time>
      </trkpt>
      <trkpt lat="44.13468" lon="5.88498">
        <ele>841.77</ele>
        <time>2015-05-24T08:38:25Z</time>
      </trkpt>
      <trkpt lat="44.13439" lon="5.88479">
        <ele>842.73</ele>
        <time>2015-05-24T08:38:45Z</time>
      </trkpt>
      <trkpt lat="44.13475" lon="5.88494">
        <ele>844.18</ele>
        <time>2015-05-24T08:39:08Z</time>
      </trkpt>
      <trkpt lat="44.13468" lon="5.88463">
        <ele>845.14</ele>
        <time>2015-05-24T08:39:25Z</time>
      </trkpt>
      <trkpt lat="44.13463" lon="5.88449">
        <ele>846.58</ele>
        <time>2015-05-24T08:39:41Z</time>
      </trkpt>
      <trkpt lat="44.13457" lon="5.88447">
        <ele>846.58</ele>
        <time>2015-05-24T08:39:59Z</time>
      </trkpt>
      <trkpt lat="44.13436" lon="5.88436">
        <ele>846.58</ele>
        <time>2015-05-24T08:40:34Z</time>
      </trkpt>
      <trkpt lat="44.13416" lon="5.88425">
        <ele>846.58</ele>
        <time>2015-05-24T08:41:12Z</time>
      </trkpt>
      <trkpt lat="44.13408" lon="5.88421">
        <ele>846.58</ele>
        <time>2015-05-24T08:41:42Z</time>
      </trkpt>
      <trkpt lat="44.13392" lon="5.88412">
        <ele>846.58</ele>
        <time>2015-05-24T08:42:17Z</time>
      </trkpt>
      <trkpt lat="44.13385" lon="5.88407">
        <ele>846.58</ele>
        <time>2015-05-24T08:42:51Z</time>
      </trkpt>
      <trkpt lat="44.13418" lon="5.88426">
        <ele>846.58</ele>
        <time>2015-05-24T08:43:28Z</time>
      </trkpt>
      <trkpt lat="44.13433" lon="5.88432">
        <ele>846.58</ele>
        <time>2015-05-24T08:43:54Z</time>
      </trkpt>
      <trkpt lat="44.13451" lon="5.88441">
        <ele>846.58</ele>
        <time>2015-05-24T08:44:27Z</time>
      </trkpt>
      <trkpt lat="44.1347" lon="5.88451">
        <ele>845.62</ele>
        <time>2015-05-24T08:45:00Z</time>
      </trkpt>
      <trkpt lat="44.13482" lon="5.88458">
        <ele>845.62</ele>
        <time>2015-05-24T08:45:28Z</time>
      </trkpt>
      <trkpt lat="44.13483" lon="5.88458">
        <ele>845.62</ele>
        <time>2015-05-24T08:46:00Z</time>
      </trkpt>
      <trkpt lat="44.13485" lon="5.88458">
        <ele>845.62</ele>
        <time>2015-05-24T08:46:30Z</time>
      </trkpt>
      <trkpt lat="44.1349" lon="5.88462">
        <ele>845.62</ele>
        <time>2015-05-24T08:46:57Z</time>
      </trkpt>
      <trkpt lat="44.13483" lon="5.88456">
        <ele>845.62</ele>
        <time>2015-05-24T08:47:28Z</time>
      </trkpt>
      <trkpt lat="44.13476" lon="5.88454">
        <ele>845.62</ele>
        <time>2015-05-24T08:47:57Z</time>
      </trkpt>
      <trkpt lat="44.13473" lon="5.88454">
        <ele>845.62</ele>
        <time>2015-05-24T08:48:33Z</time>
      </trkpt>
      <trkpt lat="44.13472" lon="5.88456">
        <ele>846.1</ele>
        <time>2015-05-24T08:49:13Z</time>
      </trkpt>
      <trkpt lat="44.1347" lon="5.88455">
        <ele>846.1</ele>
        <time>2015-05-24T08:49:55Z</time>
      </trkpt>
      <trkpt lat="44.13464" lon="5.88451">
        <ele>846.58</ele>
        <time>2015-05-24T08:50:31Z</time>
      </trkpt>
      <trkpt lat="44.13475" lon="5.88456">
        <ele>846.58</ele>
        <time>2015-05-24T08:51:03Z</time>
      </trkpt>
      <trkpt lat="44.13475" lon="5.88455">
        <ele>846.58</ele>
        <time>2015-05-24T08:51:34Z</time>
      </trkpt>
      <trkpt lat="44.13474" lon="5.88453">
        <ele>846.58</ele>
        <time>2015-05-24T08:52:15Z</time>
      </trkpt>
      <trkpt lat="44.1347" lon="5.8845">
        <ele>847.06</ele>
        <time>2015-05-24T08:52:46Z</time>
      </trkpt>
      <trkpt lat="44.13468" lon="5.88452">
        <ele>847.06</ele>
        <time>2015-05-24T08:53:16Z</time>
      </trkpt>
      <trkpt lat="44.1347" lon="5.88451">
        <ele>847.06</ele>
        <time>2015-05-24T08:53:45Z</time>
      </trkpt>
      <trkpt lat="44.13466" lon="5.88453">
        <ele>847.06</ele>
        <time>2015-05-24T08:54:15Z</time>
      </trkpt>
      <trkpt lat="44.13461" lon="5.88451">
        <ele>847.06</ele>
        <time>2015-05-24T08:54:47Z</time>
      </trkpt>
      <trkpt lat="44.13457" lon="5.8845">
        <ele>847.06</ele>
        <time>2015-05-24T08:55:19Z</time>
      </trkpt>
      <trkpt lat="44.13464" lon="5.8845">
        <ele>847.06</ele>
        <time>2015-05-24T08:55:46Z</time>
      </trkpt>
      <trkpt lat="44.1347" lon="5.88453">
        <ele>847.06</ele>
        <time>2015-05-24T08:56:18Z</time>
      </trkpt>
      <trkpt lat="44.13467" lon="5.8846">
        <ele>847.06</ele>
        <time>2015-05-24T08:56:51Z</time>
      </trkpt>
      <trkpt lat="44.13473" lon="5.88475">
        <ele>847.06</ele>
        <time>2015-05-24T08:57:21Z</time>
      </trkpt>
      <trkpt lat="44.1347" lon="5.88444">
        <ele>847.06</ele>
        <time>2015-05-24T08:57:49Z</time>
      </trkpt>
      <trkpt lat="44.13468" lon="5.88445">
        <ele>847.06</ele>
        <time>2015-05-24T08:58:19Z</time>
      </trkpt>
      <trkpt lat="44.13476" lon="5.88458">
        <ele>847.06</ele>
        <time>2015-05-24T08:58:49Z</time>
      </trkpt>
      <trkpt lat="44.13477" lon="5.88443">
        <ele>847.06</ele>
        <time>2015-05-24T08:59:18Z</time>
      </trkpt>
      <trkpt lat="44.13477" lon="5.88428">
        <ele>847.06</ele>
        <time>2015-05-24T08:59:47Z</time>
      </trkpt>
      <trkpt lat="44.13479" lon="5.88434">
        <ele>847.54</ele>
        <time>2015-05-24T09:00:18Z</time>
      </trkpt>
      <trkpt lat="44.13484" lon="5.88425">
        <ele>847.54</ele>
        <time>2015-05-24T09:00:48Z</time>
      </trkpt>
      <trkpt lat="44.13484" lon="5.88425">
        <ele>848.02</ele>
        <time>2015-05-24T09:01:23Z</time>
      </trkpt>
      <trkpt lat="44.13481" lon="5.88423">
        <ele>848.02</ele>
        <time>2015-05-24T09:01:57Z</time>
      </trkpt>
      <trkpt lat="44.13477" lon="5.88423">
        <ele>848.5</ele>
        <time>2015-05-24T09:02:35Z</time>
      </trkpt>
      <trkpt lat="44.13475" lon="5.88425">
        <ele>848.5</ele>
        <time>2015-05-24T09:03:08Z</time>
      </trkpt>
      <trkpt lat="44.13476" lon="5.88429">
        <ele>848.98</ele>
        <time>2015-05-24T09:03:50Z</time>
      </trkpt>
      <trkpt lat="44.13483" lon="5.88426">
        <ele>848.98</ele>
        <time>2015-05-24T09:04:06Z</time>
      </trkpt>
      <trkpt lat="44.13487" lon="5.8842">
        <ele>848.98</ele>
        <time>2015-05-24T09:04:12Z</time>
      </trkpt>
      <trkpt lat="44.13481" lon="5.8842">
        <ele>850.42</ele>
        <time>2015-05-24T09:04:19Z</time>
      </trkpt>
      <trkpt lat="44.13471" lon="5.88423">
        <ele>852.83</ele>
        <time>2015-05-24T09:04:33Z</time>
      </trkpt>
      <trkpt lat="44.13468" lon="5.88417">
        <ele>855.23</ele>
        <time>2015-05-24T09:04:46Z</time>
      </trkpt>
      <trkpt lat="44.13467" lon="5.88414">
        <ele>856.67</ele>
        <time>2015-05-24T09:04:57Z</time>
      </trkpt>
      <trkpt lat="44.13468" lon="5.88411">
        <ele>856.67</ele>
        <time>2015-05-24T09:05:10Z</time>
      </trkpt>
      <trkpt lat="44.13467" lon="5.88407">
        <ele>857.15</ele>
        <time>2015-05-24T09:05:27Z</time>
      </trkpt>
      <trkpt lat="44.13465" lon="5.88401">
        <ele>858.59</ele>
        <time>2015-05-24T09:05:33Z</time>
      </trkpt>
      <trkpt lat="44.13463" lon="5.88395">
        <ele>859.08</ele>
        <time>2015-05-24T09:05:37Z</time>
      </trkpt>
      <trkpt lat="44.13458" lon="5.8839">
        <ele>857.63</ele>
        <time>2015-05-24T09:05:42Z</time>
      </trkpt>
      <trkpt lat="44.13457" lon="5.88389">
        <ele>857.63</ele>
        <time>2015-05-24T09:05:43Z</time>
      </trkpt>
      <trkpt lat="44.13446" lon="5.88385">
        <ele>857.15</ele>
        <time>2015-05-24T09:05:53Z</time>
      </trkpt>
      <trkpt lat="44.13438" lon="5.88382">
        <ele>856.19</ele>
        <time>2015-05-24T09:06:01Z</time>
      </trkpt>
      <trkpt lat="44.13431" lon="5.88382">
        <ele>854.27</ele>
        <time>2015-05-24T09:06:15Z</time>
      </trkpt>
      <trkpt lat="44.13428" lon="5.88385">
        <ele>853.31</ele>
        <time>2015-05-24T09:06:19Z</time>
      </trkpt>
      <trkpt lat="44.13424" lon="5.88386">
        <ele>851.87</ele>
        <time>2015-05-24T09:06:23Z</time>
      </trkpt>
      <trkpt lat="44.13411" lon="5.88385">
        <ele>848.98</ele>
        <time>2015-05-24T09:06:34Z</time>
      </trkpt>
      <trkpt lat="44.13406" lon="5.88384">
        <ele>847.06</ele>
        <time>2015-05-24T09:06:40Z</time>
      </trkpt>
      <trkpt lat="44.13397" lon="5.88382">
        <ele>843.69</ele>
        <time>2015-05-24T09:06:50Z</time>
      </trkpt>
      <trkpt lat="44.13395" lon="5.88381">
        <ele>843.69</ele>
        <time>2015-05-24T09:06:53Z</time>
      </trkpt>
      <trkpt lat="44.13383" lon="5.88376">
        <ele>839.85</ele>
        <time>2015-05-24T09:07:03Z</time>
      </trkpt>
      <trkpt lat="44.13378" lon="5.88373">
        <ele>837.45</ele>
        <time>2015-05-24T09:07:11Z</time>
      </trkpt>
      <trkpt lat="44.13374" lon="5.88373">
        <ele>836</ele>
        <time>2015-05-24T09:07:15Z</time>
      </trkpt>
      <trkpt lat="44.13364" lon="5.88375">
        <ele>834.08</ele>
        <time>2015-05-24T09:07:29Z</time>
      </trkpt>
      <trkpt lat="44.13358" lon="5.8837">
        <ele>832.16</ele>
        <time>2015-05-24T09:07:44Z</time>
      </trkpt>
      <trkpt lat="44.13351" lon="5.88369">
        <ele>830.72</ele>
        <time>2015-05-24T09:07:54Z</time>
      </trkpt>
      <trkpt lat="44.13342" lon="5.88363">
        <ele>827.83</ele>
        <time>2015-05-24T09:08:05Z</time>
      </trkpt>
      <trkpt lat="44.13333" lon="5.88364">
        <ele>825.91</ele>
        <time>2015-05-24T09:08:17Z</time>
      </trkpt>
      <trkpt lat="44.13328" lon="5.8837">
        <ele>827.35</ele>
        <time>2015-05-24T09:08:23Z</time>
      </trkpt>
      <trkpt lat="44.13322" lon="5.88368">
        <ele>827.35</ele>
        <time>2015-05-24T09:08:36Z</time>
      </trkpt>
      <trkpt lat="44.13318" lon="5.8837">
        <ele>828.31</ele>
        <time>2015-05-24T09:08:54Z</time>
      </trkpt>
      <trkpt lat="44.13313" lon="5.88372">
        <ele>828.31</ele>
        <time>2015-05-24T09:09:11Z</time>
      </trkpt>
      <trkpt lat="44.13309" lon="5.88374">
        <ele>831.68</ele>
        <time>2015-05-24T09:09:22Z</time>
      </trkpt>
      <trkpt lat="44.13304" lon="5.88371">
        <ele>833.6</ele>
        <time>2015-05-24T09:09:35Z</time>
      </trkpt>
      <trkpt lat="44.13304" lon="5.88372">
        <ele>835.52</ele>
        <time>2015-05-24T09:09:37Z</time>
      </trkpt>
      <trkpt lat="44.13299" lon="5.8837">
        <ele>836</ele>
        <time>2015-05-24T09:09:54Z</time>
      </trkpt>
      <trkpt lat="44.13292" lon="5.88369">
        <ele>837.93</ele>
        <time>2015-05-24T09:10:10Z</time>
      </trkpt>
      <trkpt lat="44.13289" lon="5.8837">
        <ele>840.33</ele>
        <time>2015-05-24T09:10:29Z</time>
      </trkpt>
      <trkpt lat="44.13285" lon="5.88376">
        <ele>843.69</ele>
        <time>2015-05-24T09:10:46Z</time>
      </trkpt>
      <trkpt lat="44.13282" lon="5.88376">
        <ele>845.14</ele>
        <time>2015-05-24T09:10:59Z</time>
      </trkpt>
      <trkpt lat="44.13282" lon="5.88379">
        <ele>848.02</ele>
        <time>2015-05-24T09:11:16Z</time>
      </trkpt>
      <trkpt lat="44.13282" lon="5.88379">
        <ele>848.02</ele>
        <time>2015-05-24T09:11:17Z</time>
      </trkpt>
      <trkpt lat="44.13285" lon="5.88378">
        <ele>848.02</ele>
        <time>2015-05-24T09:11:35Z</time>
      </trkpt>
      <trkpt lat="44.13284" lon="5.88373">
        <ele>848.02</ele>
        <time>2015-05-24T09:11:51Z</time>
      </trkpt>
      <trkpt lat="44.13285" lon="5.88373">
        <ele>848.98</ele>
        <time>2015-05-24T09:12:08Z</time>
      </trkpt>
      <trkpt lat="44.13283" lon="5.88378">
        <ele>850.42</ele>
        <time>2015-05-24T09:12:22Z</time>
      </trkpt>
      <trkpt lat="44.13285" lon="5.88382">
        <ele>850.42</ele>
        <time>2015-05-24T09:12:47Z</time>
      </trkpt>
      <trkpt lat="44.13283" lon="5.88379">
        <ele>849.94</ele>
        <time>2015-05-24T09:13:00Z</time>
      </trkpt>
      <trkpt lat="44.1328" lon="5.8838">
        <ele>849.94</ele>
        <time>2015-05-24T09:13:15Z</time>
      </trkpt>
      <trkpt lat="44.1328" lon="5.88379">
        <ele>851.38</ele>
        <time>2015-05-24T09:13:18Z</time>
      </trkpt>
      <trkpt lat="44.13281" lon="5.88379">
        <ele>852.83</ele>
        <time>2015-05-24T09:13:35Z</time>
      </trkpt>
      <trkpt lat="44.1328" lon="5.8838">
        <ele>852.83</ele>
        <time>2015-05-24T09:13:54Z</time>
      </trkpt>
      <trkpt lat="44.13278" lon="5.88383">
        <ele>853.31</ele>
        <time>2015-05-24T09:14:15Z</time>
      </trkpt>
      <trkpt lat="44.13276" lon="5.88384">
        <ele>855.71</ele>
        <time>2015-05-24T09:14:39Z</time>
      </trkpt>
      <trkpt lat="44.13276" lon="5.88384">
        <ele>855.23</ele>
        <time>2015-05-24T09:14:49Z</time>
      </trkpt>
      <trkpt lat="44.13275" lon="5.88385">
        <ele>854.75</ele>
        <time>2015-05-24T09:15:05Z</time>
      </trkpt>
      <trkpt lat="44.13274" lon="5.88384">
        <ele>855.71</ele>
        <time>2015-05-24T09:15:21Z</time>
      </trkpt>
      <trkpt lat="44.13274" lon="5.88387">
        <ele>857.15</ele>
        <time>2015-05-24T09:15:39Z</time>
      </trkpt>
      <trkpt lat="44.13274" lon="5.8839">
        <ele>857.63</ele>
        <time>2015-05-24T09:15:56Z</time>
      </trkpt>
      <trkpt lat="44.13274" lon="5.8839">
        <ele>858.11</ele>
        <time>2015-05-24T09:16:12Z</time>
      </trkpt>
      <trkpt lat="44.13274" lon="5.88396">
        <ele>860.52</ele>
        <time>2015-05-24T09:16:29Z</time>
      </trkpt>
      <trkpt lat="44.13275" lon="5.88399">
        <ele>861</ele>
        <time>2015-05-24T09:16:47Z</time>
      </trkpt>
      <trkpt lat="44.1328" lon="5.88397">
        <ele>861.96</ele>
        <time>2015-05-24T09:17:03Z</time>
      </trkpt>
      <trkpt lat="44.13282" lon="5.884">
        <ele>862.92</ele>
        <time>2015-05-24T09:17:26Z</time>
      </trkpt>
      <trkpt lat="44.13287" lon="5.88404">
        <ele>864.84</ele>
        <time>2015-05-24T09:17:42Z</time>
      </trkpt>
      <trkpt lat="44.13294" lon="5.88405">
        <ele>867.25</ele>
        <time>2015-05-24T09:17:57Z</time>
      </trkpt>
      <trkpt lat="44.13298" lon="5.88409">
        <ele>869.17</ele>
        <time>2015-05-24T09:18:13Z</time>
      </trkpt>
      <trkpt lat="44.13299" lon="5.88411">
        <ele>870.13</ele>
        <time>2015-05-24T09:18:32Z</time>
      </trkpt>
      <trkpt lat="44.13304" lon="5.88412">
        <ele>872.05</ele>
        <time>2015-05-24T09:18:47Z</time>
      </trkpt>
      <trkpt lat="44.13308" lon="5.88415">
        <ele>873.98</ele>
        <time>2015-05-24T09:19:08Z</time>
      </trkpt>
      <trkpt lat="44.13316" lon="5.88412">
        <ele>876.86</ele>
        <time>2015-05-24T09:19:22Z</time>
      </trkpt>
      <trkpt lat="44.13319" lon="5.88418">
        <ele>878.78</ele>
        <time>2015-05-24T09:19:34Z</time>
      </trkpt>
      <trkpt lat="44.13323" lon="5.88418">
        <ele>879.26</ele>
        <time>2015-05-24T09:19:51Z</time>
      </trkpt>
      <trkpt lat="44.13326" lon="5.88423">
        <ele>880.71</ele>
        <time>2015-05-24T09:20:05Z</time>
      </trkpt>
      <trkpt lat="44.13329" lon="5.88421">
        <ele>882.15</ele>
        <time>2015-05-24T09:20:18Z</time>
      </trkpt>
      <trkpt lat="44.13328" lon="5.88422">
        <ele>882.15</ele>
        <time>2015-05-24T09:20:40Z</time>
      </trkpt>
      <trkpt lat="44.13326" lon="5.88421">
        <ele>883.59</ele>
        <time>2015-05-24T09:20:56Z</time>
      </trkpt>
      <trkpt lat="44.13325" lon="5.88422">
        <ele>885.03</ele>
        <time>2015-05-24T09:21:12Z</time>
      </trkpt>
      <trkpt lat="44.13327" lon="5.88424">
        <ele>885.03</ele>
        <time>2015-05-24T09:21:29Z</time>
      </trkpt>
      <trkpt lat="44.13324" lon="5.88422">
        <ele>886.47</ele>
        <time>2015-05-24T09:21:47Z</time>
      </trkpt>
      <trkpt lat="44.13324" lon="5.88425">
        <ele>887.91</ele>
        <time>2015-05-24T09:22:08Z</time>
      </trkpt>
      <trkpt lat="44.13321" lon="5.88428">
        <ele>889.36</ele>
        <time>2015-05-24T09:22:26Z</time>
      </trkpt>
      <trkpt lat="44.13322" lon="5.88429">
        <ele>891.76</ele>
        <time>2015-05-24T09:22:42Z</time>
      </trkpt>
      <trkpt lat="44.13321" lon="5.88427">
        <ele>893.2</ele>
        <time>2015-05-24T09:23:04Z</time>
      </trkpt>
      <trkpt lat="44.13318" lon="5.88418">
        <ele>895.12</ele>
        <time>2015-05-24T09:23:19Z</time>
      </trkpt>
      <trkpt lat="44.13317" lon="5.88418">
        <ele>896.57</ele>
        <time>2015-05-24T09:23:35Z</time>
      </trkpt>
      <trkpt lat="44.13315" lon="5.88419">
        <ele>898.49</ele>
        <time>2015-05-24T09:23:53Z</time>
      </trkpt>
      <trkpt lat="44.13311" lon="5.88421">
        <ele>900.41</ele>
        <time>2015-05-24T09:24:11Z</time>
      </trkpt>
      <trkpt lat="44.13308" lon="5.88424">
        <ele>901.37</ele>
        <time>2015-05-24T09:24:32Z</time>
      </trkpt>
      <trkpt lat="44.13311" lon="5.88424">
        <ele>901.85</ele>
        <time>2015-05-24T09:24:52Z</time>
      </trkpt>
      <trkpt lat="44.13304" lon="5.88429">
        <ele>901.85</ele>
        <time>2015-05-24T09:25:06Z</time>
      </trkpt>
      <trkpt lat="44.13304" lon="5.88431">
        <ele>903.3</ele>
        <time>2015-05-24T09:25:28Z</time>
      </trkpt>
      <trkpt lat="44.13303" lon="5.88432">
        <ele>905.22</ele>
        <time>2015-05-24T09:25:47Z</time>
      </trkpt>
      <trkpt lat="44.13302" lon="5.88436">
        <ele>906.18</ele>
        <time>2015-05-24T09:26:05Z</time>
      </trkpt>
      <trkpt lat="44.13303" lon="5.88434">
        <ele>907.14</ele>
        <time>2015-05-24T09:26:23Z</time>
      </trkpt>
      <trkpt lat="44.13305" lon="5.88437">
        <ele>908.1</ele>
        <time>2015-05-24T09:26:39Z</time>
      </trkpt>
      <trkpt lat="44.13301" lon="5.88438">
        <ele>909.06</ele>
        <time>2015-05-24T09:26:59Z</time>
      </trkpt>
      <trkpt lat="44.133" lon="5.88439">
        <ele>909.54</ele>
        <time>2015-05-24T09:27:24Z</time>
      </trkpt>
      <trkpt lat="44.13303" lon="5.8844">
        <ele>911.47</ele>
        <time>2015-05-24T09:27:37Z</time>
      </trkpt>
      <trkpt lat="44.1331" lon="5.88442">
        <ele>913.39</ele>
        <time>2015-05-24T09:27:54Z</time>
      </trkpt>
      <trkpt lat="44.13309" lon="5.88446">
        <ele>915.31</ele>
        <time>2015-05-24T09:28:12Z</time>
      </trkpt>
      <trkpt lat="44.13307" lon="5.88448">
        <ele>915.31</ele>
        <time>2015-05-24T09:28:36Z</time>
      </trkpt>
      <trkpt lat="44.13303" lon="5.8845">
        <ele>916.27</ele>
        <time>2015-05-24T09:29:04Z</time>
      </trkpt>
      <trkpt lat="44.13302" lon="5.8845">
        <ele>917.72</ele>
        <time>2015-05-24T09:29:17Z</time>
      </trkpt>
      <trkpt lat="44.13297" lon="5.8845">
        <ele>918.2</ele>
        <time>2015-05-24T09:29:30Z</time>
      </trkpt>
      <trkpt lat="44.13292" lon="5.8845">
        <ele>921.08</ele>
        <time>2015-05-24T09:29:44Z</time>
      </trkpt>
      <trkpt lat="44.13291" lon="5.8845">
        <ele>921.08</ele>
        <time>2015-05-24T09:30:03Z</time>
      </trkpt>
      <trkpt lat="44.13283" lon="5.88448">
        <ele>923.96</ele>
        <time>2015-05-24T09:30:21Z</time>
      </trkpt>
      <trkpt lat="44.13279" lon="5.88446">
        <ele>925.41</ele>
        <time>2015-05-24T09:30:37Z</time>
      </trkpt>
      <trkpt lat="44.13269" lon="5.88441">
        <ele>926.85</ele>
        <time>2015-05-24T09:30:53Z</time>
      </trkpt>
      <trkpt lat="44.1327" lon="5.88443">
        <ele>926.37</ele>
        <time>2015-05-24T09:31:05Z</time>
      </trkpt>
      <trkpt lat="44.13265" lon="5.88441">
        <ele>926.37</ele>
        <time>2015-05-24T09:31:19Z</time>
      </trkpt>
      <trkpt lat="44.13258" lon="5.88432">
        <ele>925.41</ele>
        <time>2015-05-24T09:31:35Z</time>
      </trkpt>
      <trkpt lat="44.13255" lon="5.88429">
        <ele>924.45</ele>
        <time>2015-05-24T09:31:48Z</time>
      </trkpt>
      <trkpt lat="44.13253" lon="5.88433">
        <ele>923.48</ele>
        <time>2015-05-24T09:32:06Z</time>
      </trkpt>
      <trkpt lat="44.13248" lon="5.8843">
        <ele>923</ele>
        <time>2015-05-24T09:32:23Z</time>
      </trkpt>
      <trkpt lat="44.13247" lon="5.88432">
        <ele>924.93</ele>
        <time>2015-05-24T09:32:37Z</time>
      </trkpt>
      <trkpt lat="44.13246" lon="5.8843">
        <ele>924.93</ele>
        <time>2015-05-24T09:33:00Z</time>
      </trkpt>
      <trkpt lat="44.13244" lon="5.88431">
        <ele>927.33</ele>
        <time>2015-05-24T09:33:18Z</time>
      </trkpt>
      <trkpt lat="44.13241" lon="5.88432">
        <ele>929.25</ele>
        <time>2015-05-24T09:33:38Z</time>
      </trkpt>
      <trkpt lat="44.13241" lon="5.88434">
        <ele>931.65</ele>
        <time>2015-05-24T09:33:57Z</time>
      </trkpt>
      <trkpt lat="44.13241" lon="5.88437">
        <ele>933.58</ele>
        <time>2015-05-24T09:34:20Z</time>
      </trkpt>
      <trkpt lat="44.13244" lon="5.8844">
        <ele>935.98</ele>
        <time>2015-05-24T09:34:38Z</time>
      </trkpt>
      <trkpt lat="44.13242" lon="5.88441">
        <ele>937.9</ele>
        <time>2015-05-24T09:34:52Z</time>
      </trkpt>
      <trkpt lat="44.13235" lon="5.88442">
        <ele>940.79</ele>
        <time>2015-05-24T09:35:11Z</time>
      </trkpt>
      <trkpt lat="44.13235" lon="5.88444">
        <ele>942.71</ele>
        <time>2015-05-24T09:35:24Z</time>
      </trkpt>
      <trkpt lat="44.13241" lon="5.88443">
        <ele>942.71</ele>
        <time>2015-05-24T09:35:58Z</time>
      </trkpt>
      <trkpt lat="44.13242" lon="5.88445">
        <ele>943.19</ele>
        <time>2015-05-24T09:36:29Z</time>
      </trkpt>
      <trkpt lat="44.1324" lon="5.88445">
        <ele>944.15</ele>
        <time>2015-05-24T09:36:42Z</time>
      </trkpt>
      <trkpt lat="44.13239" lon="5.8845">
        <ele>946.07</ele>
        <time>2015-05-24T09:36:59Z</time>
      </trkpt>
      <trkpt lat="44.13233" lon="5.8845">
        <ele>948.96</ele>
        <time>2015-05-24T09:37:15Z</time>
      </trkpt>
      <trkpt lat="44.13234" lon="5.88455">
        <ele>951.84</ele>
        <time>2015-05-24T09:37:28Z</time>
      </trkpt>
      <trkpt lat="44.13232" lon="5.88459">
        <ele>954.73</ele>
        <time>2015-05-24T09:37:42Z</time>
      </trkpt>
      <trkpt lat="44.1323" lon="5.88461">
        <ele>955.69</ele>
        <time>2015-05-24T09:37:59Z</time>
      </trkpt>
      <trkpt lat="44.1323" lon="5.88458">
        <ele>955.69</ele>
        <time>2015-05-24T09:38:19Z</time>
      </trkpt>
      <trkpt lat="44.13228" lon="5.88457">
        <ele>955.69</ele>
        <time>2015-05-24T09:38:35Z</time>
      </trkpt>
      <trkpt lat="44.13229" lon="5.88459">
        <ele>955.69</ele>
        <time>2015-05-24T09:38:50Z</time>
      </trkpt>
      <trkpt lat="44.13228" lon="5.88459">
        <ele>955.69</ele>
        <time>2015-05-24T09:39:31Z</time>
      </trkpt>
      <trkpt lat="44.13228" lon="5.8846">
        <ele>956.17</ele>
        <time>2015-05-24T09:40:07Z</time>
      </trkpt>
      <trkpt lat="44.13228" lon="5.8846">
        <ele>956.17</ele>
        <time>2015-05-24T09:40:40Z</time>
      </trkpt>
      <trkpt lat="44.13228" lon="5.8846">
        <ele>956.17</ele>
        <time>2015-05-24T09:41:17Z</time>
      </trkpt>
      <trkpt lat="44.13228" lon="5.8846">
        <ele>956.17</ele>
        <time>2015-05-24T09:41:57Z</time>
      </trkpt>
      <trkpt lat="44.13226" lon="5.88456">
        <ele>956.65</ele>
        <time>2015-05-24T09:42:14Z</time>
      </trkpt>
      <trkpt lat="44.13223" lon="5.88456">
        <ele>956.65</ele>
        <time>2015-05-24T09:42:34Z</time>
      </trkpt>
      <trkpt lat="44.1322" lon="5.88458">
        <ele>955.69</ele>
        <time>2015-05-24T09:42:52Z</time>
      </trkpt>
      <trkpt lat="44.1322" lon="5.88459">
        <ele>955.69</ele>
        <time>2015-05-24T09:43:13Z</time>
      </trkpt>
      <trkpt lat="44.1322" lon="5.88456">
        <ele>955.69</ele>
        <time>2015-05-24T09:43:50Z</time>
      </trkpt>
      <trkpt lat="44.1322" lon="5.88458">
        <ele>955.69</ele>
        <time>2015-05-24T09:44:26Z</time>
      </trkpt>
      <trkpt lat="44.1322" lon="5.88459">
        <ele>955.69</ele>
        <time>2015-05-24T09:45:05Z</time>
      </trkpt>
      <trkpt lat="44.13221" lon="5.88459">
        <ele>955.69</ele>
        <time>2015-05-24T09:45:38Z</time>
      </trkpt>
      <trkpt lat="44.1322" lon="5.88459">
        <ele>955.69</ele>
        <time>2015-05-24T09:46:11Z</time>
      </trkpt>
      <trkpt lat="44.13216" lon="5.88463">
        <ele>954.25</ele>
        <time>2015-05-24T09:46:25Z</time>
      </trkpt>
      <trkpt lat="44.13214" lon="5.88464">
        <ele>953.77</ele>
        <time>2015-05-24T09:46:40Z</time>
      </trkpt>
      <trkpt lat="44.13213" lon="5.88463">
        <ele>953.77</ele>
        <time>2015-05-24T09:47:04Z</time>
      </trkpt>
      <trkpt lat="44.13214" lon="5.88464">
        <ele>953.77</ele>
        <time>2015-05-24T09:47:29Z</time>
      </trkpt>
      <trkpt lat="44.13214" lon="5.88465">
        <ele>953.77</ele>
        <time>2015-05-24T09:47:53Z</time>
      </trkpt>
      <trkpt lat="44.13214" lon="5.88463">
        <ele>953.77</ele>
        <time>2015-05-24T09:48:15Z</time>
      </trkpt>
      <trkpt lat="44.13215" lon="5.88462">
        <ele>953.77</ele>
        <time>2015-05-24T09:48:41Z</time>
      </trkpt>
      <trkpt lat="44.13213" lon="5.88465">
        <ele>953.77</ele>
        <time>2015-05-24T09:49:03Z</time>
      </trkpt>
      <trkpt lat="44.13213" lon="5.88465">
        <ele>953.77</ele>
        <time>2015-05-24T09:49:24Z</time>
      </trkpt>
      <trkpt lat="44.13213" lon="5.88463">
        <ele>953.77</ele>
        <time>2015-05-24T09:49:46Z</time>
      </trkpt>
      <trkpt lat="44.13212" lon="5.8846">
        <ele>953.77</ele>
        <time>2015-05-24T09:50:06Z</time>
      </trkpt>
      <trkpt lat="44.13213" lon="5.8846">
        <ele>952.8</ele>
        <time>2015-05-24T09:50:20Z</time>
      </trkpt>
      <trkpt lat="44.13213" lon="5.8846">
        <ele>954.25</ele>
        <time>2015-05-24T09:50:33Z</time>
      </trkpt>
      <trkpt lat="44.1321" lon="5.88455">
        <ele>952.8</ele>
        <time>2015-05-24T09:50:46Z</time>
      </trkpt>
      <trkpt lat="44.13203" lon="5.88446">
        <ele>950.88</ele>
        <time>2015-05-24T09:51:02Z</time>
      </trkpt>
      <trkpt lat="44.13194" lon="5.88435">
        <ele>948</ele>
        <time>2015-05-24T09:51:18Z</time>
      </trkpt>
      <trkpt lat="44.13183" lon="5.88421">
        <ele>946.07</ele>
        <time>2015-05-24T09:51:33Z</time>
      </trkpt>
      <trkpt lat="44.13172" lon="5.88406">
        <ele>942.71</ele>
        <time>2015-05-24T09:51:52Z</time>
      </trkpt>
      <trkpt lat="44.13162" lon="5.8839">
        <ele>940.31</ele>
        <time>2015-05-24T09:52:09Z</time>
      </trkpt>
      <trkpt lat="44.13151" lon="5.88375">
        <ele>938.38</ele>
        <time>2015-05-24T09:52:26Z</time>
      </trkpt>
      <trkpt lat="44.13136" lon="5.88363">
        <ele>935.98</ele>
        <time>2015-05-24T09:52:45Z</time>
      </trkpt>
      <trkpt lat="44.13124" lon="5.88359">
        <ele>933.1</ele>
        <time>2015-05-24T09:52:59Z</time>
      </trkpt>
      <trkpt lat="44.13111" lon="5.88353">
        <ele>931.65</ele>
        <time>2015-05-24T09:53:15Z</time>
      </trkpt>
      <trkpt lat="44.13097" lon="5.88343">
        <ele>929.25</ele>
        <time>2015-05-24T09:53:30Z</time>
      </trkpt>
      <trkpt lat="44.13085" lon="5.88334">
        <ele>927.33</ele>
        <time>2015-05-24T09:53:45Z</time>
      </trkpt>
      <trkpt lat="44.13074" lon="5.8832">
        <ele>925.89</ele>
        <time>2015-05-24T09:54:01Z</time>
      </trkpt>
      <trkpt lat="44.13063" lon="5.88304">
        <ele>925.41</ele>
        <time>2015-05-24T09:54:17Z</time>
      </trkpt>
      <trkpt lat="44.13052" lon="5.88288">
        <ele>922.52</ele>
        <time>2015-05-24T09:54:36Z</time>
      </trkpt>
      <trkpt lat="44.13034" lon="5.88268">
        <ele>920.12</ele>
        <time>2015-05-24T09:54:54Z</time>
      </trkpt>
      <trkpt lat="44.13024" lon="5.88257">
        <ele>918.68</ele>
        <time>2015-05-24T09:55:04Z</time>
      </trkpt>
      <trkpt lat="44.13011" lon="5.88238">
        <ele>917.72</ele>
        <time>2015-05-24T09:55:20Z</time>
      </trkpt>
      <trkpt lat="44.1301" lon="5.88237">
        <ele>917.72</ele>
        <time>2015-05-24T09:55:22Z</time>
      </trkpt>
      <trkpt lat="44.13006" lon="5.88232">
        <ele>917.24</ele>
        <time>2015-05-24T09:55:27Z</time>
      </trkpt>
      <trkpt lat="44.12991" lon="5.8822">
        <ele>915.31</ele>
        <time>2015-05-24T09:55:43Z</time>
      </trkpt>
      <trkpt lat="44.12977" lon="5.88209">
        <ele>913.39</ele>
        <time>2015-05-24T09:55:57Z</time>
      </trkpt>
      <trkpt lat="44.12973" lon="5.88205">
        <ele>912.91</ele>
        <time>2015-05-24T09:56:02Z</time>
      </trkpt>
      <trkpt lat="44.12967" lon="5.88199">
        <ele>911.47</ele>
        <time>2015-05-24T09:56:09Z</time>
      </trkpt>
      <trkpt lat="44.1296" lon="5.88194">
        <ele>910.51</ele>
        <time>2015-05-24T09:56:16Z</time>
      </trkpt>
      <trkpt lat="44.12944" lon="5.88183">
        <ele>908.58</ele>
        <time>2015-05-24T09:56:32Z</time>
      </trkpt>
      <trkpt lat="44.1293" lon="5.88173">
        <ele>906.66</ele>
        <time>2015-05-24T09:56:47Z</time>
      </trkpt>
      <trkpt lat="44.12916" lon="5.88161">
        <ele>904.74</ele>
        <time>2015-05-24T09:57:01Z</time>
      </trkpt>
      <trkpt lat="44.12898" lon="5.88155">
        <ele>903.3</ele>
        <time>2015-05-24T09:57:18Z</time>
      </trkpt>
      <trkpt lat="44.12892" lon="5.88167">
        <ele>901.37</ele>
        <time>2015-05-24T09:57:32Z</time>
      </trkpt>
      <trkpt lat="44.12891" lon="5.88171">
        <ele>901.37</ele>
        <time>2015-05-24T09:57:35Z</time>
      </trkpt>
      <trkpt lat="44.1289" lon="5.88195">
        <ele>898.97</ele>
        <time>2015-05-24T09:57:51Z</time>
      </trkpt>
      <trkpt lat="44.12893" lon="5.88216">
        <ele>897.53</ele>
        <time>2015-05-24T09:58:06Z</time>
      </trkpt>
      <trkpt lat="44.12902" lon="5.88233">
        <ele>895.12</ele>
        <time>2015-05-24T09:58:23Z</time>
      </trkpt>
      <trkpt lat="44.12907" lon="5.88238">
        <ele>894.16</ele>
        <time>2015-05-24T09:58:29Z</time>
      </trkpt>
      <trkpt lat="44.12913" lon="5.88262">
        <ele>891.28</ele>
        <time>2015-05-24T09:58:46Z</time>
      </trkpt>
      <trkpt lat="44.12899" lon="5.88264">
        <ele>890.32</ele>
        <time>2015-05-24T09:59:00Z</time>
      </trkpt>
      <trkpt lat="44.12884" lon="5.88259">
        <ele>889.84</ele>
        <time>2015-05-24T09:59:13Z</time>
      </trkpt>
      <trkpt lat="44.12871" lon="5.88245">
        <ele>889.36</ele>
        <time>2015-05-24T09:59:29Z</time>
      </trkpt>
      <trkpt lat="44.12858" lon="5.88232">
        <ele>887.91</ele>
        <time>2015-05-24T09:59:43Z</time>
      </trkpt>
      <trkpt lat="44.12843" lon="5.88215">
        <ele>885.03</ele>
        <time>2015-05-24T10:00:00Z</time>
      </trkpt>
      <trkpt lat="44.12833" lon="5.882">
        <ele>882.63</ele>
        <time>2015-05-24T10:00:14Z</time>
      </trkpt>
      <trkpt lat="44.12819" lon="5.88184">
        <ele>880.71</ele>
        <time>2015-05-24T10:00:29Z</time>
      </trkpt>
      <trkpt lat="44.12818" lon="5.88183">
        <ele>880.71</ele>
        <time>2015-05-24T10:00:30Z</time>
      </trkpt>
      <trkpt lat="44.12815" lon="5.88181">
        <ele>880.22</ele>
        <time>2015-05-24T10:00:33Z</time>
      </trkpt>
      <trkpt lat="44.1281" lon="5.88175">
        <ele>879.74</ele>
        <time>2015-05-24T10:00:38Z</time>
      </trkpt>
      <trkpt lat="44.12795" lon="5.88162">
        <ele>877.34</ele>
        <time>2015-05-24T10:00:53Z</time>
      </trkpt>
      <trkpt lat="44.12781" lon="5.8815">
        <ele>874.94</ele>
        <time>2015-05-24T10:01:08Z</time>
      </trkpt>
      <trkpt lat="44.12766" lon="5.88133">
        <ele>872.05</ele>
        <time>2015-05-24T10:01:23Z</time>
      </trkpt>
      <trkpt lat="44.12753" lon="5.88113">
        <ele>870.61</ele>
        <time>2015-05-24T10:01:39Z</time>
      </trkpt>
      <trkpt lat="44.12742" lon="5.88099">
        <ele>870.13</ele>
        <time>2015-05-24T10:01:54Z</time>
      </trkpt>
      <trkpt lat="44.1273" lon="5.88085">
        <ele>868.69</ele>
        <time>2015-05-24T10:02:09Z</time>
      </trkpt>
      <trkpt lat="44.12719" lon="5.88073">
        <ele>866.77</ele>
        <time>2015-05-24T10:02:23Z</time>
      </trkpt>
      <trkpt lat="44.12703" lon="5.8805">
        <ele>864.84</ele>
        <time>2015-05-24T10:02:41Z</time>
      </trkpt>
      <trkpt lat="44.127" lon="5.88045">
        <ele>864.84</ele>
        <time>2015-05-24T10:02:45Z</time>
      </trkpt>
      <trkpt lat="44.12691" lon="5.88031">
        <ele>862.92</ele>
        <time>2015-05-24T10:02:56Z</time>
      </trkpt>
      <trkpt lat="44.12689" lon="5.88027">
        <ele>862.44</ele>
        <time>2015-05-24T10:02:58Z</time>
      </trkpt>
      <trkpt lat="44.12684" lon="5.88017">
        <ele>861.96</ele>
        <time>2015-05-24T10:03:06Z</time>
      </trkpt>
      <trkpt lat="44.12676" lon="5.8799">
        <ele>860.52</ele>
        <time>2015-05-24T10:03:22Z</time>
      </trkpt>
      <trkpt lat="44.1267" lon="5.87976">
        <ele>860.52</ele>
        <time>2015-05-24T10:03:37Z</time>
      </trkpt>
      <trkpt lat="44.12656" lon="5.87956">
        <ele>860.52</ele>
        <time>2015-05-24T10:03:52Z</time>
      </trkpt>
      <trkpt lat="44.1265" lon="5.87948">
        <ele>860.52</ele>
        <time>2015-05-24T10:03:58Z</time>
      </trkpt>
      <trkpt lat="44.12646" lon="5.87935">
        <ele>861.48</ele>
        <time>2015-05-24T10:04:12Z</time>
      </trkpt>
      <trkpt lat="44.12647" lon="5.87935">
        <ele>861.96</ele>
        <time>2015-05-24T10:04:29Z</time>
      </trkpt>
      <trkpt lat="44.12646" lon="5.87925">
        <ele>861.96</ele>
        <time>2015-05-24T10:04:51Z</time>
      </trkpt>
      <trkpt lat="44.12637" lon="5.87914">
        <ele>861.96</ele>
        <time>2015-05-24T10:05:08Z</time>
      </trkpt>
      <trkpt lat="44.12638" lon="5.87917">
        <ele>861.96</ele>
        <time>2015-05-24T10:05:24Z</time>
      </trkpt>
      <trkpt lat="44.12637" lon="5.87915">
        <ele>862.44</ele>
        <time>2015-05-24T10:05:44Z</time>
      </trkpt>
      <trkpt lat="44.12634" lon="5.87908">
        <ele>862.44</ele>
        <time>2015-05-24T10:06:01Z</time>
      </trkpt>
      <trkpt lat="44.12626" lon="5.87892">
        <ele>863.4</ele>
        <time>2015-05-24T10:06:17Z</time>
      </trkpt>
      <trkpt lat="44.12617" lon="5.87876">
        <ele>864.36</ele>
        <time>2015-05-24T10:06:32Z</time>
      </trkpt>
      <trkpt lat="44.12613" lon="5.87862">
        <ele>864.36</ele>
        <time>2015-05-24T10:06:45Z</time>
      </trkpt>
      <trkpt lat="44.1261" lon="5.87847">
        <ele>866.29</ele>
        <time>2015-05-24T10:06:59Z</time>
      </trkpt>
      <trkpt lat="44.12608" lon="5.8783">
        <ele>867.73</ele>
        <time>2015-05-24T10:07:14Z</time>
      </trkpt>
      <trkpt lat="44.12608" lon="5.87814">
        <ele>869.17</ele>
        <time>2015-05-24T10:07:29Z</time>
      </trkpt>
      <trkpt lat="44.12608" lon="5.87798">
        <ele>870.13</ele>
        <time>2015-05-24T10:07:45Z</time>
      </trkpt>
      <trkpt lat="44.12603" lon="5.87781">
        <ele>872.05</ele>
        <time>2015-05-24T10:08:01Z</time>
      </trkpt>
      <trkpt lat="44.12596" lon="5.87764">
        <ele>873.98</ele>
        <time>2015-05-24T10:08:17Z</time>
      </trkpt>
      <trkpt lat="44.12589" lon="5.87747">
        <ele>875.42</ele>
        <time>2015-05-24T10:08:32Z</time>
      </trkpt>
      <trkpt lat="44.12584" lon="5.87733">
        <ele>876.86</ele>
        <time>2015-05-24T10:08:46Z</time>
      </trkpt>
      <trkpt lat="44.12577" lon="5.87721">
        <ele>878.3</ele>
        <time>2015-05-24T10:08:59Z</time>
      </trkpt>
      <trkpt lat="44.12569" lon="5.87706">
        <ele>878.78</ele>
        <time>2015-05-24T10:09:13Z</time>
      </trkpt>
      <trkpt lat="44.12569" lon="5.87705">
        <ele>878.78</ele>
        <time>2015-05-24T10:09:14Z</time>
      </trkpt>
      <trkpt lat="44.12566" lon="5.87686">
        <ele>878.78</ele>
        <time>2015-05-24T10:09:28Z</time>
      </trkpt>
      <trkpt lat="44.12563" lon="5.8767">
        <ele>878.78</ele>
        <time>2015-05-24T10:09:40Z</time>
      </trkpt>
      <trkpt lat="44.12557" lon="5.87652">
        <ele>878.78</ele>
        <time>2015-05-24T10:09:56Z</time>
      </trkpt>
      <trkpt lat="44.12554" lon="5.87629">
        <ele>878.78</ele>
        <time>2015-05-24T10:10:09Z</time>
      </trkpt>
      <trkpt lat="44.1255" lon="5.87606">
        <ele>879.26</ele>
        <time>2015-05-24T10:10:23Z</time>
      </trkpt>
      <trkpt lat="44.12556" lon="5.87579">
        <ele>880.22</ele>
        <time>2015-05-24T10:10:39Z</time>
      </trkpt>
      <trkpt lat="44.12555" lon="5.87563">
        <ele>881.19</ele>
        <time>2015-05-24T10:10:52Z</time>
      </trkpt>
      <trkpt lat="44.12551" lon="5.87541">
        <ele>882.15</ele>
        <time>2015-05-24T10:11:08Z</time>
      </trkpt>
      <trkpt lat="44.12544" lon="5.87523">
        <ele>882.63</ele>
        <time>2015-05-24T10:11:22Z</time>
      </trkpt>
      <trkpt lat="44.12536" lon="5.87498">
        <ele>885.03</ele>
        <time>2015-05-24T10:11:38Z</time>
      </trkpt>
      <trkpt lat="44.12535" lon="5.87482">
        <ele>887.91</ele>
        <time>2015-05-24T10:11:53Z</time>
      </trkpt>
      <trkpt lat="44.12534" lon="5.87468">
        <ele>889.36</ele>
        <time>2015-05-24T10:12:06Z</time>
      </trkpt>
      <trkpt lat="44.12531" lon="5.87452">
        <ele>890.8</ele>
        <time>2015-05-24T10:12:20Z</time>
      </trkpt>
      <trkpt lat="44.12528" lon="5.87435">
        <ele>892.72</ele>
        <time>2015-05-24T10:12:33Z</time>
      </trkpt>
      <trkpt lat="44.12529" lon="5.8742">
        <ele>893.68</ele>
        <time>2015-05-24T10:12:46Z</time>
      </trkpt>
      <trkpt lat="44.1253" lon="5.87399">
        <ele>895.12</ele>
        <time>2015-05-24T10:13:01Z</time>
      </trkpt>
      <trkpt lat="44.12531" lon="5.87378">
        <ele>896.57</ele>
        <time>2015-05-24T10:13:17Z</time>
      </trkpt>
      <trkpt lat="44.12529" lon="5.87356">
        <ele>898.01</ele>
        <time>2015-05-24T10:13:34Z</time>
      </trkpt>
      <trkpt lat="44.12528" lon="5.87332">
        <ele>898.97</ele>
        <time>2015-05-24T10:13:49Z</time>
      </trkpt>
      <trkpt lat="44.12523" lon="5.87305">
        <ele>899.93</ele>
        <time>2015-05-24T10:14:05Z</time>
      </trkpt>
      <trkpt lat="44.12522" lon="5.87286">
        <ele>900.89</ele>
        <time>2015-05-24T10:14:19Z</time>
      </trkpt>
      <trkpt lat="44.12517" lon="5.87266">
        <ele>901.85</ele>
        <time>2015-05-24T10:14:33Z</time>
      </trkpt>
      <trkpt lat="44.12515" lon="5.87244">
        <ele>903.3</ele>
        <time>2015-05-24T10:14:48Z</time>
      </trkpt>
      <trkpt lat="44.12517" lon="5.87237">
        <ele>903.78</ele>
        <time>2015-05-24T10:14:53Z</time>
      </trkpt>
      <trkpt lat="44.12518" lon="5.8723">
        <ele>904.26</ele>
        <time>2015-05-24T10:14:58Z</time>
      </trkpt>
      <trkpt lat="44.12519" lon="5.87219">
        <ele>904.74</ele>
        <time>2015-05-24T10:15:05Z</time>
      </trkpt>
      <trkpt lat="44.12523" lon="5.87195">
        <ele>905.7</ele>
        <time>2015-05-24T10:15:21Z</time>
      </trkpt>
      <trkpt lat="44.12527" lon="5.87173">
        <ele>907.14</ele>
        <time>2015-05-24T10:15:36Z</time>
      </trkpt>
      <trkpt lat="44.12526" lon="5.87152">
        <ele>908.1</ele>
        <time>2015-05-24T10:15:53Z</time>
      </trkpt>
      <trkpt lat="44.12527" lon="5.87122">
        <ele>909.06</ele>
        <time>2015-05-24T10:16:11Z</time>
      </trkpt>
      <trkpt lat="44.1253" lon="5.87101">
        <ele>910.03</ele>
        <time>2015-05-24T10:16:26Z</time>
      </trkpt>
      <trkpt lat="44.12532" lon="5.87079">
        <ele>910.51</ele>
        <time>2015-05-24T10:16:42Z</time>
      </trkpt>
      <trkpt lat="44.12533" lon="5.87076">
        <ele>910.51</ele>
        <time>2015-05-24T10:16:44Z</time>
      </trkpt>
      <trkpt lat="44.12536" lon="5.87053">
        <ele>910.99</ele>
        <time>2015-05-24T10:17:00Z</time>
      </trkpt>
      <trkpt lat="44.12535" lon="5.87035">
        <ele>910.99</ele>
        <time>2015-05-24T10:17:16Z</time>
      </trkpt>
      <trkpt lat="44.12537" lon="5.87033">
        <ele>910.99</ele>
        <time>2015-05-24T10:17:37Z</time>
      </trkpt>
      <trkpt lat="44.12536" lon="5.87026">
        <ele>910.99</ele>
        <time>2015-05-24T10:17:53Z</time>
      </trkpt>
      <trkpt lat="44.12542" lon="5.87025">
        <ele>909.54</ele>
        <time>2015-05-24T10:18:18Z</time>
      </trkpt>
      <trkpt lat="44.12552" lon="5.87006">
        <ele>907.14</ele>
        <time>2015-05-24T10:18:34Z</time>
      </trkpt>
      <trkpt lat="44.12546" lon="5.86988">
        <ele>904.26</ele>
        <time>2015-05-24T10:18:49Z</time>
      </trkpt>
      <trkpt lat="44.12541" lon="5.86972">
        <ele>901.37</ele>
        <time>2015-05-24T10:19:03Z</time>
      </trkpt>
      <trkpt lat="44.12537" lon="5.86955">
        <ele>898.01</ele>
        <time>2015-05-24T10:19:17Z</time>
      </trkpt>
      <trkpt lat="44.12533" lon="5.86934">
        <ele>895.61</ele>
        <time>2015-05-24T10:19:33Z</time>
      </trkpt>
      <trkpt lat="44.12534" lon="5.86911">
        <ele>893.68</ele>
        <time>2015-05-24T10:19:50Z</time>
      </trkpt>
      <trkpt lat="44.12538" lon="5.86894">
        <ele>891.76</ele>
        <time>2015-05-24T10:20:03Z</time>
      </trkpt>
      <trkpt lat="44.12545" lon="5.86875">
        <ele>889.36</ele>
        <time>2015-05-24T10:20:21Z</time>
      </trkpt>
      <trkpt lat="44.12556" lon="5.86863">
        <ele>886.95</ele>
        <time>2015-05-24T10:20:36Z</time>
      </trkpt>
      <trkpt lat="44.12565" lon="5.86851">
        <ele>884.55</ele>
        <time>2015-05-24T10:20:51Z</time>
      </trkpt>
      <trkpt lat="44.12573" lon="5.86842">
        <ele>883.11</ele>
        <time>2015-05-24T10:21:09Z</time>
      </trkpt>
      <trkpt lat="44.12577" lon="5.86845">
        <ele>883.11</ele>
        <time>2015-05-24T10:21:38Z</time>
      </trkpt>
      <trkpt lat="44.12566" lon="5.86822">
        <ele>883.11</ele>
        <time>2015-05-24T10:22:06Z</time>
      </trkpt>
      <trkpt lat="44.12577" lon="5.86824">
        <ele>883.11</ele>
        <time>2015-05-24T10:22:20Z</time>
      </trkpt>
      <trkpt lat="44.12589" lon="5.86809">
        <ele>884.55</ele>
        <time>2015-05-24T10:22:36Z</time>
      </trkpt>
      <trkpt lat="44.12602" lon="5.86791">
        <ele>884.55</ele>
        <time>2015-05-24T10:22:52Z</time>
      </trkpt>
      <trkpt lat="44.12617" lon="5.86777">
        <ele>881.67</ele>
        <time>2015-05-24T10:23:09Z</time>
      </trkpt>
      <trkpt lat="44.12627" lon="5.86759">
        <ele>881.19</ele>
        <time>2015-05-24T10:23:26Z</time>
      </trkpt>
      <trkpt lat="44.12645" lon="5.8675">
        <ele>880.22</ele>
        <time>2015-05-24T10:23:42Z</time>
      </trkpt>
      <trkpt lat="44.12655" lon="5.86738">
        <ele>878.3</ele>
        <time>2015-05-24T10:23:59Z</time>
      </trkpt>
      <trkpt lat="44.12667" lon="5.86734">
        <ele>876.86</ele>
        <time>2015-05-24T10:24:13Z</time>
      </trkpt>
      <trkpt lat="44.12687" lon="5.86728">
        <ele>873.98</ele>
        <time>2015-05-24T10:24:32Z</time>
      </trkpt>
      <trkpt lat="44.12698" lon="5.86714">
        <ele>870.61</ele>
        <time>2015-05-24T10:24:49Z</time>
      </trkpt>
      <trkpt lat="44.12703" lon="5.86708">
        <ele>867.25</ele>
        <time>2015-05-24T10:24:59Z</time>
      </trkpt>
      <trkpt lat="44.12708" lon="5.86698">
        <ele>863.88</ele>
        <time>2015-05-24T10:25:13Z</time>
      </trkpt>
      <trkpt lat="44.12718" lon="5.86684">
        <ele>861.96</ele>
        <time>2015-05-24T10:25:33Z</time>
      </trkpt>
      <trkpt lat="44.12737" lon="5.8667">
        <ele>861.48</ele>
        <time>2015-05-24T10:25:51Z</time>
      </trkpt>
      <trkpt lat="44.12753" lon="5.86657">
        <ele>858.11</ele>
        <time>2015-05-24T10:26:08Z</time>
      </trkpt>
      <trkpt lat="44.12755" lon="5.86645">
        <ele>857.15</ele>
        <time>2015-05-24T10:26:26Z</time>
      </trkpt>
      <trkpt lat="44.12768" lon="5.86647">
        <ele>854.27</ele>
        <time>2015-05-24T10:26:47Z</time>
      </trkpt>
      <trkpt lat="44.12771" lon="5.86649">
        <ele>852.83</ele>
        <time>2015-05-24T10:27:04Z</time>
      </trkpt>
      <trkpt lat="44.1277" lon="5.86653">
        <ele>852.35</ele>
        <time>2015-05-24T10:27:22Z</time>
      </trkpt>
      <trkpt lat="44.12771" lon="5.8665">
        <ele>851.87</ele>
        <time>2015-05-24T10:27:39Z</time>
      </trkpt>
      <trkpt lat="44.12773" lon="5.86646">
        <ele>851.38</ele>
        <time>2015-05-24T10:28:03Z</time>
      </trkpt>
      <trkpt lat="44.12781" lon="5.86649">
        <ele>850.9</ele>
        <time>2015-05-24T10:28:21Z</time>
      </trkpt>
      <trkpt lat="44.12795" lon="5.86671">
        <ele>850.42</ele>
        <time>2015-05-24T10:28:38Z</time>
      </trkpt>
      <trkpt lat="44.1281" lon="5.86696">
        <ele>850.42</ele>
        <time>2015-05-24T10:28:57Z</time>
      </trkpt>
      <trkpt lat="44.1282" lon="5.86715">
        <ele>852.83</ele>
        <time>2015-05-24T10:29:14Z</time>
      </trkpt>
      <trkpt lat="44.12829" lon="5.86724">
        <ele>854.75</ele>
        <time>2015-05-24T10:29:32Z</time>
      </trkpt>
      <trkpt lat="44.12834" lon="5.86729">
        <ele>857.15</ele>
        <time>2015-05-24T10:29:47Z</time>
      </trkpt>
      <trkpt lat="44.1284" lon="5.86732">
        <ele>859.08</ele>
        <time>2015-05-24T10:30:00Z</time>
      </trkpt>
      <trkpt lat="44.12846" lon="5.86723">
        <ele>861.96</ele>
        <time>2015-05-24T10:30:18Z</time>
      </trkpt>
      <trkpt lat="44.12848" lon="5.86711">
        <ele>864.84</ele>
        <time>2015-05-24T10:30:35Z</time>
      </trkpt>
      <trkpt lat="44.12853" lon="5.86714">
        <ele>868.21</ele>
        <time>2015-05-24T10:30:53Z</time>
      </trkpt>
      <trkpt lat="44.12858" lon="5.86715">
        <ele>871.09</ele>
        <time>2015-05-24T10:31:11Z</time>
      </trkpt>
      <trkpt lat="44.12861" lon="5.86723">
        <ele>873.01</ele>
        <time>2015-05-24T10:31:25Z</time>
      </trkpt>
      <trkpt lat="44.12866" lon="5.86729">
        <ele>875.42</ele>
        <time>2015-05-24T10:31:39Z</time>
      </trkpt>
      <trkpt lat="44.12879" lon="5.86725">
        <ele>878.3</ele>
        <time>2015-05-24T10:31:58Z</time>
      </trkpt>
      <trkpt lat="44.12885" lon="5.86724">
        <ele>880.71</ele>
        <time>2015-05-24T10:32:17Z</time>
      </trkpt>
      <trkpt lat="44.12894" lon="5.8672">
        <ele>883.59</ele>
        <time>2015-05-24T10:32:38Z</time>
      </trkpt>
      <trkpt lat="44.12901" lon="5.86729">
        <ele>886.47</ele>
        <time>2015-05-24T10:32:57Z</time>
      </trkpt>
      <trkpt lat="44.12905" lon="5.86741">
        <ele>889.84</ele>
        <time>2015-05-24T10:33:16Z</time>
      </trkpt>
      <trkpt lat="44.1291" lon="5.86749">
        <ele>892.24</ele>
        <time>2015-05-24T10:33:36Z</time>
      </trkpt>
      <trkpt lat="44.12909" lon="5.8676">
        <ele>894.16</ele>
        <time>2015-05-24T10:33:51Z</time>
      </trkpt>
      <trkpt lat="44.12911" lon="5.86776">
        <ele>896.57</ele>
        <time>2015-05-24T10:34:11Z</time>
      </trkpt>
      <trkpt lat="44.12916" lon="5.86778">
        <ele>898.97</ele>
        <time>2015-05-24T10:34:27Z</time>
      </trkpt>
      <trkpt lat="44.12925" lon="5.86786">
        <ele>901.85</ele>
        <time>2015-05-24T10:34:45Z</time>
      </trkpt>
      <trkpt lat="44.1293" lon="5.86795">
        <ele>904.74</ele>
        <time>2015-05-24T10:35:04Z</time>
      </trkpt>
      <trkpt lat="44.1293" lon="5.86806">
        <ele>907.14</ele>
        <time>2015-05-24T10:35:20Z</time>
      </trkpt>
      <trkpt lat="44.12931" lon="5.86824">
        <ele>909.06</ele>
        <time>2015-05-24T10:35:38Z</time>
      </trkpt>
      <trkpt lat="44.12935" lon="5.86838">
        <ele>910.03</ele>
        <time>2015-05-24T10:35:56Z</time>
      </trkpt>
      <trkpt lat="44.12946" lon="5.86848">
        <ele>910.99</ele>
        <time>2015-05-24T10:36:12Z</time>
      </trkpt>
      <trkpt lat="44.12957" lon="5.86864">
        <ele>912.43</ele>
        <time>2015-05-24T10:36:30Z</time>
      </trkpt>
      <trkpt lat="44.1297" lon="5.86872">
        <ele>913.87</ele>
        <time>2015-05-24T10:36:48Z</time>
      </trkpt>
      <trkpt lat="44.12986" lon="5.8688">
        <ele>916.27</ele>
        <time>2015-05-24T10:37:07Z</time>
      </trkpt>
      <trkpt lat="44.12995" lon="5.8689">
        <ele>917.72</ele>
        <time>2015-05-24T10:37:24Z</time>
      </trkpt>
      <trkpt lat="44.13005" lon="5.86902">
        <ele>920.12</ele>
        <time>2015-05-24T10:37:43Z</time>
      </trkpt>
      <trkpt lat="44.13001" lon="5.86916">
        <ele>922.52</ele>
        <time>2015-05-24T10:37:58Z</time>
      </trkpt>
      <trkpt lat="44.12997" lon="5.86928">
        <ele>924.93</ele>
        <time>2015-05-24T10:38:15Z</time>
      </trkpt>
      <trkpt lat="44.12996" lon="5.86942">
        <ele>927.81</ele>
        <time>2015-05-24T10:38:31Z</time>
      </trkpt>
      <trkpt lat="44.12998" lon="5.86954">
        <ele>929.73</ele>
        <time>2015-05-24T10:38:46Z</time>
      </trkpt>
      <trkpt lat="44.12999" lon="5.86968">
        <ele>931.65</ele>
        <time>2015-05-24T10:39:03Z</time>
      </trkpt>
      <trkpt lat="44.12997" lon="5.86984">
        <ele>933.1</ele>
        <time>2015-05-24T10:39:19Z</time>
      </trkpt>
      <trkpt lat="44.13002" lon="5.86998">
        <ele>935.02</ele>
        <time>2015-05-24T10:39:35Z</time>
      </trkpt>
      <trkpt lat="44.13008" lon="5.87012">
        <ele>936.94</ele>
        <time>2015-05-24T10:39:51Z</time>
      </trkpt>
      <trkpt lat="44.13012" lon="5.87023">
        <ele>938.86</ele>
        <time>2015-05-24T10:40:04Z</time>
      </trkpt>
      <trkpt lat="44.13021" lon="5.87039">
        <ele>941.27</ele>
        <time>2015-05-24T10:40:23Z</time>
      </trkpt>
      <trkpt lat="44.13032" lon="5.8705">
        <ele>943.19</ele>
        <time>2015-05-24T10:40:40Z</time>
      </trkpt>
      <trkpt lat="44.13044" lon="5.87061">
        <ele>943.19</ele>
        <time>2015-05-24T10:40:56Z</time>
      </trkpt>
      <trkpt lat="44.13056" lon="5.87067">
        <ele>944.15</ele>
        <time>2015-05-24T10:41:11Z</time>
      </trkpt>
      <trkpt lat="44.13064" lon="5.87074">
        <ele>946.56</ele>
        <time>2015-05-24T10:41:27Z</time>
      </trkpt>
      <trkpt lat="44.13062" lon="5.87089">
        <ele>949.44</ele>
        <time>2015-05-24T10:41:44Z</time>
      </trkpt>
      <trkpt lat="44.13064" lon="5.87097">
        <ele>951.36</ele>
        <time>2015-05-24T10:41:56Z</time>
      </trkpt>
      <trkpt lat="44.13066" lon="5.87106">
        <ele>953.28</ele>
        <time>2015-05-24T10:42:10Z</time>
      </trkpt>
      <trkpt lat="44.13068" lon="5.87114">
        <ele>955.69</ele>
        <time>2015-05-24T10:42:24Z</time>
      </trkpt>
      <trkpt lat="44.13073" lon="5.87121">
        <ele>958.09</ele>
        <time>2015-05-24T10:42:41Z</time>
      </trkpt>
      <trkpt lat="44.13075" lon="5.8713">
        <ele>960.49</ele>
        <time>2015-05-24T10:42:58Z</time>
      </trkpt>
      <trkpt lat="44.13077" lon="5.8714">
        <ele>962.9</ele>
        <time>2015-05-24T10:43:15Z</time>
      </trkpt>
      <trkpt lat="44.13082" lon="5.87141">
        <ele>965.3</ele>
        <time>2015-05-24T10:43:27Z</time>
      </trkpt>
      <trkpt lat="44.1309" lon="5.87138">
        <ele>967.7</ele>
        <time>2015-05-24T10:43:41Z</time>
      </trkpt>
      <trkpt lat="44.13097" lon="5.8713">
        <ele>970.59</ele>
        <time>2015-05-24T10:43:58Z</time>
      </trkpt>
      <trkpt lat="44.13101" lon="5.87133">
        <ele>972.51</ele>
        <time>2015-05-24T10:44:12Z</time>
      </trkpt>
      <trkpt lat="44.13101" lon="5.87143">
        <ele>974.43</ele>
        <time>2015-05-24T10:44:26Z</time>
      </trkpt>
      <trkpt lat="44.13104" lon="5.87155">
        <ele>976.84</ele>
        <time>2015-05-24T10:44:42Z</time>
      </trkpt>
      <trkpt lat="44.13108" lon="5.87166">
        <ele>979.24</ele>
        <time>2015-05-24T10:44:58Z</time>
      </trkpt>
      <trkpt lat="44.13115" lon="5.87157">
        <ele>982.12</ele>
        <time>2015-05-24T10:45:14Z</time>
      </trkpt>
      <trkpt lat="44.13122" lon="5.87147">
        <ele>984.53</ele>
        <time>2015-05-24T10:45:31Z</time>
      </trkpt>
      <trkpt lat="44.13124" lon="5.87153">
        <ele>985.97</ele>
        <time>2015-05-24T10:45:44Z</time>
      </trkpt>
      <trkpt lat="44.13125" lon="5.87163">
        <ele>988.37</ele>
        <time>2015-05-24T10:45:58Z</time>
      </trkpt>
      <trkpt lat="44.13132" lon="5.87166">
        <ele>990.78</ele>
        <time>2015-05-24T10:46:14Z</time>
      </trkpt>
      <trkpt lat="44.13136" lon="5.8716">
        <ele>993.18</ele>
        <time>2015-05-24T10:46:27Z</time>
      </trkpt>
      <trkpt lat="44.13142" lon="5.87163">
        <ele>995.58</ele>
        <time>2015-05-24T10:46:42Z</time>
      </trkpt>
      <trkpt lat="44.13146" lon="5.87169">
        <ele>997.51</ele>
        <time>2015-05-24T10:46:56Z</time>
      </trkpt>
      <trkpt lat="44.13152" lon="5.87165">
        <ele>999.91</ele>
        <time>2015-05-24T10:47:13Z</time>
      </trkpt>
      <trkpt lat="44.13158" lon="5.87155">
        <ele>1002.31</ele>
        <time>2015-05-24T10:47:28Z</time>
      </trkpt>
      <trkpt lat="44.13165" lon="5.87152">
        <ele>1005.2</ele>
        <time>2015-05-24T10:47:43Z</time>
      </trkpt>
      <trkpt lat="44.13172" lon="5.8715">
        <ele>1007.6</ele>
        <time>2015-05-24T10:47:58Z</time>
      </trkpt>
      <trkpt lat="44.13178" lon="5.87147">
        <ele>1010.48</ele>
        <time>2015-05-24T10:48:13Z</time>
      </trkpt>
      <trkpt lat="44.13186" lon="5.8714">
        <ele>1013.37</ele>
        <time>2015-05-24T10:48:31Z</time>
      </trkpt>
      <trkpt lat="44.13192" lon="5.87149">
        <ele>1015.77</ele>
        <time>2015-05-24T10:48:49Z</time>
      </trkpt>
      <trkpt lat="44.13197" lon="5.87161">
        <ele>1019.13</ele>
        <time>2015-05-24T10:49:08Z</time>
      </trkpt>
      <trkpt lat="44.13204" lon="5.87165">
        <ele>1021.54</ele>
        <time>2015-05-24T10:49:24Z</time>
      </trkpt>
      <trkpt lat="44.13211" lon="5.87159">
        <ele>1023.46</ele>
        <time>2015-05-24T10:49:37Z</time>
      </trkpt>
      <trkpt lat="44.13218" lon="5.87154">
        <ele>1025.86</ele>
        <time>2015-05-24T10:49:53Z</time>
      </trkpt>
      <trkpt lat="44.13224" lon="5.87157">
        <ele>1028.75</ele>
        <time>2015-05-24T10:50:07Z</time>
      </trkpt>
      <trkpt lat="44.13232" lon="5.87155">
        <ele>1031.63</ele>
        <time>2015-05-24T10:50:25Z</time>
      </trkpt>
      <trkpt lat="44.13239" lon="5.87164">
        <ele>1034.52</ele>
        <time>2015-05-24T10:50:40Z</time>
      </trkpt>
      <trkpt lat="44.13247" lon="5.87166">
        <ele>1037.4</ele>
        <time>2015-05-24T10:50:57Z</time>
      </trkpt>
      <trkpt lat="44.13258" lon="5.8716">
        <ele>1039.8</ele>
        <time>2015-05-24T10:51:15Z</time>
      </trkpt>
      <trkpt lat="44.13269" lon="5.87159">
        <ele>1043.17</ele>
        <time>2015-05-24T10:51:33Z</time>
      </trkpt>
      <trkpt lat="44.13275" lon="5.87144">
        <ele>1044.61</ele>
        <time>2015-05-24T10:51:49Z</time>
      </trkpt>
      <trkpt lat="44.13271" lon="5.87153">
        <ele>1045.09</ele>
        <time>2015-05-24T10:52:11Z</time>
      </trkpt>
      <trkpt lat="44.13275" lon="5.87144">
        <ele>1045.57</ele>
        <time>2015-05-24T10:52:35Z</time>
      </trkpt>
      <trkpt lat="44.13272" lon="5.87143">
        <ele>1046.05</ele>
        <time>2015-05-24T10:53:12Z</time>
      </trkpt>
      <trkpt lat="44.13272" lon="5.87145">
        <ele>1046.05</ele>
        <time>2015-05-24T10:53:32Z</time>
      </trkpt>
      <trkpt lat="44.13273" lon="5.87148">
        <ele>1046.05</ele>
        <time>2015-05-24T10:53:59Z</time>
      </trkpt>
      <trkpt lat="44.13278" lon="5.87147">
        <ele>1046.53</ele>
        <time>2015-05-24T10:54:37Z</time>
      </trkpt>
      <trkpt lat="44.13266" lon="5.8714">
        <ele>1047.01</ele>
        <time>2015-05-24T10:55:03Z</time>
      </trkpt>
      <trkpt lat="44.13266" lon="5.87139">
        <ele>1047.01</ele>
        <time>2015-05-24T10:55:25Z</time>
      </trkpt>
      <trkpt lat="44.13266" lon="5.87138">
        <ele>1047.49</ele>
        <time>2015-05-24T10:55:52Z</time>
      </trkpt>
      <trkpt lat="44.13263" lon="5.87138">
        <ele>1047.49</ele>
        <time>2015-05-24T10:56:22Z</time>
      </trkpt>
      <trkpt lat="44.1327" lon="5.87135">
        <ele>1047.97</ele>
        <time>2015-05-24T10:56:54Z</time>
      </trkpt>
      <trkpt lat="44.13273" lon="5.8714">
        <ele>1047.97</ele>
        <time>2015-05-24T10:57:26Z</time>
      </trkpt>
      <trkpt lat="44.13268" lon="5.87138">
        <ele>1048.45</ele>
        <time>2015-05-24T10:57:55Z</time>
      </trkpt>
      <trkpt lat="44.13269" lon="5.87136">
        <ele>1048.45</ele>
        <time>2015-05-24T10:58:16Z</time>
      </trkpt>
      <trkpt lat="44.1327" lon="5.87139">
        <ele>1048.45</ele>
        <time>2015-05-24T10:58:37Z</time>
      </trkpt>
      <trkpt lat="44.1327" lon="5.87136">
        <ele>1048.94</ele>
        <time>2015-05-24T10:58:57Z</time>
      </trkpt>
      <trkpt lat="44.13275" lon="5.87143">
        <ele>1048.94</ele>
        <time>2015-05-24T10:59:30Z</time>
      </trkpt>
      <trkpt lat="44.13278" lon="5.87129">
        <ele>1049.42</ele>
        <time>2015-05-24T10:59:49Z</time>
      </trkpt>
      <trkpt lat="44.13286" lon="5.87114">
        <ele>1051.82</ele>
        <time>2015-05-24T11:00:06Z</time>
      </trkpt>
      <trkpt lat="44.13297" lon="5.871">
        <ele>1054.22</ele>
        <time>2015-05-24T11:00:23Z</time>
      </trkpt>
      <trkpt lat="44.13306" lon="5.87075">
        <ele>1056.15</ele>
        <time>2015-05-24T11:00:42Z</time>
      </trkpt>
      <trkpt lat="44.1331" lon="5.8707">
        <ele>1057.59</ele>
        <time>2015-05-24T11:01:01Z</time>
      </trkpt>
      <trkpt lat="44.13319" lon="5.87054">
        <ele>1060.47</ele>
        <time>2015-05-24T11:01:19Z</time>
      </trkpt>
      <trkpt lat="44.13324" lon="5.8704">
        <ele>1061.91</ele>
        <time>2015-05-24T11:01:34Z</time>
      </trkpt>
      <trkpt lat="44.13325" lon="5.87024">
        <ele>1063.36</ele>
        <time>2015-05-24T11:01:50Z</time>
      </trkpt>
      <trkpt lat="44.13327" lon="5.87002">
        <ele>1064.8</ele>
        <time>2015-05-24T11:02:07Z</time>
      </trkpt>
      <trkpt lat="44.13323" lon="5.86982">
        <ele>1066.72</ele>
        <time>2015-05-24T11:02:23Z</time>
      </trkpt>
      <trkpt lat="44.13316" lon="5.86955">
        <ele>1068.16</ele>
        <time>2015-05-24T11:02:42Z</time>
      </trkpt>
      <trkpt lat="44.13312" lon="5.86933">
        <ele>1069.6</ele>
        <time>2015-05-24T11:02:58Z</time>
      </trkpt>
      <trkpt lat="44.13309" lon="5.86911">
        <ele>1071.53</ele>
        <time>2015-05-24T11:03:13Z</time>
      </trkpt>
      <trkpt lat="44.1331" lon="5.86891">
        <ele>1073.45</ele>
        <time>2015-05-24T11:03:28Z</time>
      </trkpt>
      <trkpt lat="44.13307" lon="5.86868">
        <ele>1074.41</ele>
        <time>2015-05-24T11:03:45Z</time>
      </trkpt>
      <trkpt lat="44.13307" lon="5.86846">
        <ele>1076.33</ele>
        <time>2015-05-24T11:04:01Z</time>
      </trkpt>
      <trkpt lat="44.13305" lon="5.86824">
        <ele>1077.29</ele>
        <time>2015-05-24T11:04:16Z</time>
      </trkpt>
      <trkpt lat="44.13307" lon="5.86799">
        <ele>1079.22</ele>
        <time>2015-05-24T11:04:34Z</time>
      </trkpt>
      <trkpt lat="44.13307" lon="5.86779">
        <ele>1080.66</ele>
        <time>2015-05-24T11:04:51Z</time>
      </trkpt>
      <trkpt lat="44.13303" lon="5.86773">
        <ele>1081.62</ele>
        <time>2015-05-24T11:04:57Z</time>
      </trkpt>
      <trkpt lat="44.13295" lon="5.86758">
        <ele>1082.58</ele>
        <time>2015-05-24T11:05:11Z</time>
      </trkpt>
      <trkpt lat="44.13293" lon="5.86753">
        <ele>1083.06</ele>
        <time>2015-05-24T11:05:15Z</time>
      </trkpt>
      <trkpt lat="44.13286" lon="5.86731">
        <ele>1084.99</ele>
        <time>2015-05-24T11:05:33Z</time>
      </trkpt>
      <trkpt lat="44.1328" lon="5.86708">
        <ele>1086.91</ele>
        <time>2015-05-24T11:05:51Z</time>
      </trkpt>
      <trkpt lat="44.13278" lon="5.86693">
        <ele>1088.35</ele>
        <time>2015-05-24T11:06:08Z</time>
      </trkpt>
      <trkpt lat="44.13275" lon="5.86673">
        <ele>1090.27</ele>
        <time>2015-05-24T11:06:25Z</time>
      </trkpt>
      <trkpt lat="44.13273" lon="5.86665">
        <ele>1090.75</ele>
        <time>2015-05-24T11:06:31Z</time>
      </trkpt>
      <trkpt lat="44.1327" lon="5.86644">
        <ele>1092.68</ele>
        <time>2015-05-24T11:06:48Z</time>
      </trkpt>
      <trkpt lat="44.1327" lon="5.86624">
        <ele>1093.64</ele>
        <time>2015-05-24T11:07:03Z</time>
      </trkpt>
      <trkpt lat="44.13274" lon="5.86627">
        <ele>1094.12</ele>
        <time>2015-05-24T11:07:09Z</time>
      </trkpt>
      <trkpt lat="44.13282" lon="5.8665">
        <ele>1095.56</ele>
        <time>2015-05-24T11:07:26Z</time>
      </trkpt>
      <trkpt lat="44.13294" lon="5.86665">
        <ele>1097</ele>
        <time>2015-05-24T11:07:41Z</time>
      </trkpt>
      <trkpt lat="44.13306" lon="5.86672">
        <ele>1097.96</ele>
        <time>2015-05-24T11:07:53Z</time>
      </trkpt>
      <trkpt lat="44.1331" lon="5.86676">
        <ele>1098.44</ele>
        <time>2015-05-24T11:07:58Z</time>
      </trkpt>
      <trkpt lat="44.13324" lon="5.86679">
        <ele>1100.37</ele>
        <time>2015-05-24T11:08:12Z</time>
      </trkpt>
      <trkpt lat="44.13341" lon="5.86673">
        <ele>1102.77</ele>
        <time>2015-05-24T11:08:28Z</time>
      </trkpt>
      <trkpt lat="44.13361" lon="5.86667">
        <ele>1105.17</ele>
        <time>2015-05-24T11:08:47Z</time>
      </trkpt>
      <trkpt lat="44.13367" lon="5.86675">
        <ele>1105.65</ele>
        <time>2015-05-24T11:08:56Z</time>
      </trkpt>
      <trkpt lat="44.13375" lon="5.867">
        <ele>1107.1</ele>
        <time>2015-05-24T11:09:14Z</time>
      </trkpt>
      <trkpt lat="44.13376" lon="5.86704">
        <ele>1107.58</ele>
        <time>2015-05-24T11:09:17Z</time>
      </trkpt>
      <trkpt lat="44.1338" lon="5.86711">
        <ele>1108.06</ele>
        <time>2015-05-24T11:09:22Z</time>
      </trkpt>
      <trkpt lat="44.13393" lon="5.86733">
        <ele>1109.98</ele>
        <time>2015-05-24T11:09:41Z</time>
      </trkpt>
      <trkpt lat="44.13404" lon="5.8675">
        <ele>1111.42</ele>
        <time>2015-05-24T11:09:56Z</time>
      </trkpt>
      <trkpt lat="44.13415" lon="5.86774">
        <ele>1113.82</ele>
        <time>2015-05-24T11:10:14Z</time>
      </trkpt>
      <trkpt lat="44.13426" lon="5.86792">
        <ele>1115.27</ele>
        <time>2015-05-24T11:10:30Z</time>
      </trkpt>
      <trkpt lat="44.13439" lon="5.8681">
        <ele>1117.67</ele>
        <time>2015-05-24T11:10:46Z</time>
      </trkpt>
      <trkpt lat="44.1345" lon="5.86828">
        <ele>1119.11</ele>
        <time>2015-05-24T11:11:03Z</time>
      </trkpt>
      <trkpt lat="44.13463" lon="5.86852">
        <ele>1121.52</ele>
        <time>2015-05-24T11:11:22Z</time>
      </trkpt>
      <trkpt lat="44.13475" lon="5.86869">
        <ele>1123.44</ele>
        <time>2015-05-24T11:11:37Z</time>
      </trkpt>
      <trkpt lat="44.13488" lon="5.86891">
        <ele>1124.88</ele>
        <time>2015-05-24T11:11:56Z</time>
      </trkpt>
      <trkpt lat="44.13499" lon="5.86909">
        <ele>1127.28</ele>
        <time>2015-05-24T11:12:12Z</time>
      </trkpt>
      <trkpt lat="44.13507" lon="5.86928">
        <ele>1128.73</ele>
        <time>2015-05-24T11:12:27Z</time>
      </trkpt>
      <trkpt lat="44.13512" lon="5.86935">
        <ele>1129.69</ele>
        <time>2015-05-24T11:12:36Z</time>
      </trkpt>
      <trkpt lat="44.13513" lon="5.86933">
        <ele>1129.69</ele>
        <time>2015-05-24T11:12:38Z</time>
      </trkpt>
      <trkpt lat="44.13513" lon="5.86927">
        <ele>1130.17</ele>
        <time>2015-05-24T11:12:44Z</time>
      </trkpt>
      <trkpt lat="44.13512" lon="5.86916">
        <ele>1131.13</ele>
        <time>2015-05-24T11:12:52Z</time>
      </trkpt>
      <trkpt lat="44.13511" lon="5.86887">
        <ele>1133.05</ele>
        <time>2015-05-24T11:13:10Z</time>
      </trkpt>
      <trkpt lat="44.1351" lon="5.86865">
        <ele>1134.49</ele>
        <time>2015-05-24T11:13:24Z</time>
      </trkpt>
      <trkpt lat="44.13511" lon="5.86836">
        <ele>1136.42</ele>
        <time>2015-05-24T11:13:43Z</time>
      </trkpt>
      <trkpt lat="44.13508" lon="5.86821">
        <ele>1137.86</ele>
        <time>2015-05-24T11:13:53Z</time>
      </trkpt>
      <trkpt lat="44.13506" lon="5.86795">
        <ele>1139.3</ele>
        <time>2015-05-24T11:14:10Z</time>
      </trkpt>
      <trkpt lat="44.13505" lon="5.86771">
        <ele>1141.7</ele>
        <time>2015-05-24T11:14:27Z</time>
      </trkpt>
      <trkpt lat="44.13504" lon="5.86749">
        <ele>1143.14</ele>
        <time>2015-05-24T11:14:42Z</time>
      </trkpt>
      <trkpt lat="44.13501" lon="5.86724">
        <ele>1145.07</ele>
        <time>2015-05-24T11:14:58Z</time>
      </trkpt>
      <trkpt lat="44.13499" lon="5.86704">
        <ele>1146.51</ele>
        <time>2015-05-24T11:15:11Z</time>
      </trkpt>
      <trkpt lat="44.13495" lon="5.86678">
        <ele>1148.43</ele>
        <time>2015-05-24T11:15:28Z</time>
      </trkpt>
      <trkpt lat="44.13491" lon="5.86656">
        <ele>1149.87</ele>
        <time>2015-05-24T11:15:44Z</time>
      </trkpt>
      <trkpt lat="44.13487" lon="5.86633">
        <ele>1151.8</ele>
        <time>2015-05-24T11:16:00Z</time>
      </trkpt>
      <trkpt lat="44.13485" lon="5.86606">
        <ele>1154.2</ele>
        <time>2015-05-24T11:16:17Z</time>
      </trkpt>
      <trkpt lat="44.13485" lon="5.86587">
        <ele>1155.64</ele>
        <time>2015-05-24T11:16:31Z</time>
      </trkpt>
      <trkpt lat="44.13484" lon="5.86578">
        <ele>1156.6</ele>
        <time>2015-05-24T11:16:37Z</time>
      </trkpt>
      <trkpt lat="44.13484" lon="5.86571">
        <ele>1157.56</ele>
        <time>2015-05-24T11:16:42Z</time>
      </trkpt>
      <trkpt lat="44.13488" lon="5.86555">
        <ele>1158.53</ele>
        <time>2015-05-24T11:16:57Z</time>
      </trkpt>
      <trkpt lat="44.13498" lon="5.86576">
        <ele>1160.45</ele>
        <time>2015-05-24T11:17:14Z</time>
      </trkpt>
      <trkpt lat="44.13511" lon="5.86598">
        <ele>1162.85</ele>
        <time>2015-05-24T11:17:32Z</time>
      </trkpt>
      <trkpt lat="44.13525" lon="5.8662">
        <ele>1164.29</ele>
        <time>2015-05-24T11:17:51Z</time>
      </trkpt>
      <trkpt lat="44.13538" lon="5.86636">
        <ele>1166.7</ele>
        <time>2015-05-24T11:18:07Z</time>
      </trkpt>
      <trkpt lat="44.13551" lon="5.86655">
        <ele>1167.66</ele>
        <time>2015-05-24T11:18:24Z</time>
      </trkpt>
      <trkpt lat="44.13564" lon="5.8667">
        <ele>1169.1</ele>
        <time>2015-05-24T11:18:39Z</time>
      </trkpt>
      <trkpt lat="44.13579" lon="5.8669">
        <ele>1171.5</ele>
        <time>2015-05-24T11:18:58Z</time>
      </trkpt>
      <trkpt lat="44.13586" lon="5.86702">
        <ele>1172.95</ele>
        <time>2015-05-24T11:19:09Z</time>
      </trkpt>
      <trkpt lat="44.13594" lon="5.86712">
        <ele>1173.43</ele>
        <time>2015-05-24T11:19:19Z</time>
      </trkpt>
      <trkpt lat="44.13608" lon="5.86734">
        <ele>1175.83</ele>
        <time>2015-05-24T11:19:37Z</time>
      </trkpt>
      <trkpt lat="44.13621" lon="5.86755">
        <ele>1177.27</ele>
        <time>2015-05-24T11:19:54Z</time>
      </trkpt>
      <trkpt lat="44.13625" lon="5.86761">
        <ele>1178.23</ele>
        <time>2015-05-24T11:20:00Z</time>
      </trkpt>
      <trkpt lat="44.13627" lon="5.86763">
        <ele>1178.23</ele>
        <time>2015-05-24T11:20:02Z</time>
      </trkpt>
      <trkpt lat="44.13634" lon="5.86767">
        <ele>1179.19</ele>
        <time>2015-05-24T11:20:09Z</time>
      </trkpt>
      <trkpt lat="44.13651" lon="5.86795">
        <ele>1181.12</ele>
        <time>2015-05-24T11:20:31Z</time>
      </trkpt>
      <trkpt lat="44.13669" lon="5.86812">
        <ele>1183.04</ele>
        <time>2015-05-24T11:20:50Z</time>
      </trkpt>
      <trkpt lat="44.13684" lon="5.86811">
        <ele>1184.96</ele>
        <time>2015-05-24T11:21:08Z</time>
      </trkpt>
      <trkpt lat="44.13684" lon="5.8681">
        <ele>1185.44</ele>
        <time>2015-05-24T11:21:26Z</time>
      </trkpt>
      <trkpt lat="44.13685" lon="5.86809">
        <ele>1186.4</ele>
        <time>2015-05-24T11:21:48Z</time>
      </trkpt>
      <trkpt lat="44.13685" lon="5.8681">
        <ele>1186.4</ele>
        <time>2015-05-24T11:22:19Z</time>
      </trkpt>
      <trkpt lat="44.13685" lon="5.8681">
        <ele>1184.96</ele>
        <time>2015-05-24T11:22:34Z</time>
      </trkpt>
      <trkpt lat="44.13685" lon="5.86809">
        <ele>1185.44</ele>
        <time>2015-05-24T11:23:11Z</time>
      </trkpt>
      <trkpt lat="44.13684" lon="5.86808">
        <ele>1185.44</ele>
        <time>2015-05-24T11:23:39Z</time>
      </trkpt>
      <trkpt lat="44.13683" lon="5.86804">
        <ele>1185.44</ele>
        <time>2015-05-24T11:24:07Z</time>
      </trkpt>
      <trkpt lat="44.13683" lon="5.86798">
        <ele>1185.44</ele>
        <time>2015-05-24T11:24:22Z</time>
      </trkpt>
      <trkpt lat="44.13683" lon="5.86798">
        <ele>1186.88</ele>
        <time>2015-05-24T11:24:26Z</time>
      </trkpt>
      <trkpt lat="44.13681" lon="5.8679">
        <ele>1186.88</ele>
        <time>2015-05-24T11:24:40Z</time>
      </trkpt>
      <trkpt lat="44.13681" lon="5.86787">
        <ele>1186.88</ele>
        <time>2015-05-24T11:24:42Z</time>
      </trkpt>
      <trkpt lat="44.13677" lon="5.86766">
        <ele>1188.81</ele>
        <time>2015-05-24T11:24:58Z</time>
      </trkpt>
      <trkpt lat="44.13674" lon="5.86749">
        <ele>1190.73</ele>
        <time>2015-05-24T11:25:14Z</time>
      </trkpt>
      <trkpt lat="44.13676" lon="5.86736">
        <ele>1192.17</ele>
        <time>2015-05-24T11:25:30Z</time>
      </trkpt>
      <trkpt lat="44.13678" lon="5.86719">
        <ele>1194.09</ele>
        <time>2015-05-24T11:25:46Z</time>
      </trkpt>
      <trkpt lat="44.13676" lon="5.86707">
        <ele>1195.54</ele>
        <time>2015-05-24T11:25:58Z</time>
      </trkpt>
      <trkpt lat="44.13675" lon="5.8669">
        <ele>1196.98</ele>
        <time>2015-05-24T11:26:13Z</time>
      </trkpt>
      <trkpt lat="44.13673" lon="5.86671">
        <ele>1198.9</ele>
        <time>2015-05-24T11:26:30Z</time>
      </trkpt>
      <trkpt lat="44.13671" lon="5.86654">
        <ele>1201.79</ele>
        <time>2015-05-24T11:26:46Z</time>
      </trkpt>
      <trkpt lat="44.13671" lon="5.86639">
        <ele>1203.71</ele>
        <time>2015-05-24T11:27:01Z</time>
      </trkpt>
      <trkpt lat="44.13678" lon="5.86628">
        <ele>1206.11</ele>
        <time>2015-05-24T11:27:17Z</time>
      </trkpt>
      <trkpt lat="44.13688" lon="5.8662">
        <ele>1209</ele>
        <time>2015-05-24T11:27:35Z</time>
      </trkpt>
      <trkpt lat="44.13698" lon="5.86608">
        <ele>1211.88</ele>
        <time>2015-05-24T11:27:55Z</time>
      </trkpt>
      <trkpt lat="44.13702" lon="5.86595">
        <ele>1214.76</ele>
        <time>2015-05-24T11:28:10Z</time>
      </trkpt>
      <trkpt lat="44.13707" lon="5.8658">
        <ele>1217.65</ele>
        <time>2015-05-24T11:28:28Z</time>
      </trkpt>
      <trkpt lat="44.13705" lon="5.86564">
        <ele>1220.53</ele>
        <time>2015-05-24T11:28:45Z</time>
      </trkpt>
      <trkpt lat="44.13706" lon="5.8655">
        <ele>1223.42</ele>
        <time>2015-05-24T11:29:00Z</time>
      </trkpt>
      <trkpt lat="44.1371" lon="5.86537">
        <ele>1225.34</ele>
        <time>2015-05-24T11:29:14Z</time>
      </trkpt>
      <trkpt lat="44.13713" lon="5.86519">
        <ele>1228.22</ele>
        <time>2015-05-24T11:29:31Z</time>
      </trkpt>
      <trkpt lat="44.13719" lon="5.86506">
        <ele>1230.62</ele>
        <time>2015-05-24T11:29:48Z</time>
      </trkpt>
      <trkpt lat="44.13724" lon="5.86498">
        <ele>1232.07</ele>
        <time>2015-05-24T11:29:59Z</time>
      </trkpt>
      <trkpt lat="44.1373" lon="5.86485">
        <ele>1234.95</ele>
        <time>2015-05-24T11:30:13Z</time>
      </trkpt>
      <trkpt lat="44.13735" lon="5.86472">
        <ele>1236.87</ele>
        <time>2015-05-24T11:30:27Z</time>
      </trkpt>
      <trkpt lat="44.13744" lon="5.8646">
        <ele>1239.28</ele>
        <time>2015-05-24T11:30:42Z</time>
      </trkpt>
      <trkpt lat="44.13751" lon="5.86448">
        <ele>1241.68</ele>
        <time>2015-05-24T11:30:56Z</time>
      </trkpt>
      <trkpt lat="44.13759" lon="5.86435">
        <ele>1243.6</ele>
        <time>2015-05-24T11:31:10Z</time>
      </trkpt>
      <trkpt lat="44.13764" lon="5.86425">
        <ele>1245.04</ele>
        <time>2015-05-24T11:31:20Z</time>
      </trkpt>
      <trkpt lat="44.13771" lon="5.86412">
        <ele>1246.97</ele>
        <time>2015-05-24T11:31:34Z</time>
      </trkpt>
      <trkpt lat="44.13777" lon="5.86396">
        <ele>1248.89</ele>
        <time>2015-05-24T11:31:49Z</time>
      </trkpt>
      <trkpt lat="44.13785" lon="5.86377">
        <ele>1251.29</ele>
        <time>2015-05-24T11:32:07Z</time>
      </trkpt>
      <trkpt lat="44.13791" lon="5.8636">
        <ele>1252.74</ele>
        <time>2015-05-24T11:32:22Z</time>
      </trkpt>
      <trkpt lat="44.13797" lon="5.86342">
        <ele>1254.66</ele>
        <time>2015-05-24T11:32:39Z</time>
      </trkpt>
      <trkpt lat="44.13802" lon="5.86323">
        <ele>1256.58</ele>
        <time>2015-05-24T11:32:55Z</time>
      </trkpt>
      <trkpt lat="44.1381" lon="5.86307">
        <ele>1257.54</ele>
        <time>2015-05-24T11:33:10Z</time>
      </trkpt>
      <trkpt lat="44.13815" lon="5.86292">
        <ele>1258.5</ele>
        <time>2015-05-24T11:33:24Z</time>
      </trkpt>
      <trkpt lat="44.13819" lon="5.86284">
        <ele>1258.5</ele>
        <time>2015-05-24T11:33:40Z</time>
      </trkpt>
      <trkpt lat="44.13819" lon="5.86283">
        <ele>1258.5</ele>
        <time>2015-05-24T11:34:11Z</time>
      </trkpt>
      <trkpt lat="44.13819" lon="5.86284">
        <ele>1258.5</ele>
        <time>2015-05-24T11:34:39Z</time>
      </trkpt>
      <trkpt lat="44.1382" lon="5.86282">
        <ele>1258.98</ele>
        <time>2015-05-24T11:35:18Z</time>
      </trkpt>
      <trkpt lat="44.1382" lon="5.86282">
        <ele>1258.98</ele>
        <time>2015-05-24T11:35:52Z</time>
      </trkpt>
      <trkpt lat="44.1382" lon="5.86281">
        <ele>1258.98</ele>
        <time>2015-05-24T11:36:27Z</time>
      </trkpt>
      <trkpt lat="44.1382" lon="5.86281">
        <ele>1258.02</ele>
        <time>2015-05-24T11:36:58Z</time>
      </trkpt>
      <trkpt lat="44.1382" lon="5.86282">
        <ele>1258.5</ele>
        <time>2015-05-24T11:37:33Z</time>
      </trkpt>
      <trkpt lat="44.1382" lon="5.86281">
        <ele>1258.5</ele>
        <time>2015-05-24T11:38:03Z</time>
      </trkpt>
      <trkpt lat="44.13819" lon="5.86281">
        <ele>1258.98</ele>
        <time>2015-05-24T11:38:39Z</time>
      </trkpt>
      <trkpt lat="44.13819" lon="5.86281">
        <ele>1258.98</ele>
        <time>2015-05-24T11:39:13Z</time>
      </trkpt>
      <trkpt lat="44.13819" lon="5.86281">
        <ele>1258.98</ele>
        <time>2015-05-24T11:39:51Z</time>
      </trkpt>
      <trkpt lat="44.13819" lon="5.86281">
        <ele>1259.46</ele>
        <time>2015-05-24T11:40:29Z</time>
      </trkpt>
      <trkpt lat="44.1382" lon="5.86281">
        <ele>1259.46</ele>
        <time>2015-05-24T11:40:58Z</time>
      </trkpt>
      <trkpt lat="44.1382" lon="5.86282">
        <ele>1259.46</ele>
        <time>2015-05-24T11:41:35Z</time>
      </trkpt>
      <trkpt lat="44.1382" lon="5.86282">
        <ele>1259.94</ele>
        <time>2015-05-24T11:42:05Z</time>
      </trkpt>
      <trkpt lat="44.1382" lon="5.86282">
        <ele>1259.94</ele>
        <time>2015-05-24T11:42:35Z</time>
      </trkpt>
      <trkpt lat="44.1382" lon="5.86282">
        <ele>1259.94</ele>
        <time>2015-05-24T11:43:11Z</time>
      </trkpt>
      <trkpt lat="44.1382" lon="5.86281">
        <ele>1260.43</ele>
        <time>2015-05-24T11:43:47Z</time>
      </trkpt>
      <trkpt lat="44.13819" lon="5.86281">
        <ele>1260.43</ele>
        <time>2015-05-24T11:44:28Z</time>
      </trkpt>
      <trkpt lat="44.13819" lon="5.86283">
        <ele>1260.43</ele>
        <time>2015-05-24T11:45:00Z</time>
      </trkpt>
      <trkpt lat="44.1382" lon="5.86282">
        <ele>1260.91</ele>
        <time>2015-05-24T11:45:41Z</time>
      </trkpt>
      <trkpt lat="44.13819" lon="5.86282">
        <ele>1260.91</ele>
        <time>2015-05-24T11:46:23Z</time>
      </trkpt>
      <trkpt lat="44.1382" lon="5.8628">
        <ele>1260.91</ele>
        <time>2015-05-24T11:46:59Z</time>
      </trkpt>
      <trkpt lat="44.1382" lon="5.86282">
        <ele>1261.39</ele>
        <time>2015-05-24T11:47:40Z</time>
      </trkpt>
      <trkpt lat="44.13819" lon="5.86281">
        <ele>1262.35</ele>
        <time>2015-05-24T11:48:18Z</time>
      </trkpt>
      <trkpt lat="44.13819" lon="5.86281">
        <ele>1262.83</ele>
        <time>2015-05-24T11:48:56Z</time>
      </trkpt>
      <trkpt lat="44.13819" lon="5.86281">
        <ele>1262.83</ele>
        <time>2015-05-24T11:49:36Z</time>
      </trkpt>
      <trkpt lat="44.13819" lon="5.86282">
        <ele>1262.83</ele>
        <time>2015-05-24T11:50:09Z</time>
      </trkpt>
      <trkpt lat="44.13819" lon="5.86281">
        <ele>1263.31</ele>
        <time>2015-05-24T11:50:49Z</time>
      </trkpt>
      <trkpt lat="44.13819" lon="5.86281">
        <ele>1263.31</ele>
        <time>2015-05-24T11:51:22Z</time>
      </trkpt>
      <trkpt lat="44.13819" lon="5.86281">
        <ele>1263.31</ele>
        <time>2015-05-24T11:51:56Z</time>
      </trkpt>
      <trkpt lat="44.13819" lon="5.86281">
        <ele>1263.31</ele>
        <time>2015-05-24T11:52:31Z</time>
      </trkpt>
      <trkpt lat="44.13819" lon="5.86282">
        <ele>1263.79</ele>
        <time>2015-05-24T11:52:59Z</time>
      </trkpt>
      <trkpt lat="44.13818" lon="5.86284">
        <ele>1263.79</ele>
        <time>2015-05-24T11:53:08Z</time>
      </trkpt>
      <trkpt lat="44.13818" lon="5.86287">
        <ele>1264.27</ele>
        <time>2015-05-24T11:53:40Z</time>
      </trkpt>
      <trkpt lat="44.13817" lon="5.86287">
        <ele>1256.58</ele>
        <time>2015-05-24T11:54:20Z</time>
      </trkpt>
      <trkpt lat="44.13817" lon="5.86286">
        <ele>1267.16</ele>
        <time>2015-05-24T11:54:21Z</time>
      </trkpt>
      <trkpt lat="44.13814" lon="5.86275">
        <ele>1263.79</ele>
        <time>2015-05-24T11:54:26Z</time>
      </trkpt>
      <trkpt lat="44.13818" lon="5.86282">
        <ele>1274.85</ele>
        <time>2015-05-24T11:54:32Z</time>
      </trkpt>
      <trkpt lat="44.13819" lon="5.86281">
        <ele>1264.75</ele>
        <time>2015-05-24T11:54:33Z</time>
      </trkpt>
      <trkpt lat="44.13819" lon="5.86286">
        <ele>1263.79</ele>
        <time>2015-05-24T11:54:52Z</time>
      </trkpt>
      <trkpt lat="44.13819" lon="5.86287">
        <ele>1263.79</ele>
        <time>2015-05-24T11:55:36Z</time>
      </trkpt>
      <trkpt lat="44.13819" lon="5.86288">
        <ele>1264.27</ele>
        <time>2015-05-24T11:56:21Z</time>
      </trkpt>
      <trkpt lat="44.1382" lon="5.86289">
        <ele>1264.27</ele>
        <time>2015-05-24T11:57:01Z</time>
      </trkpt>
      <trkpt lat="44.13819" lon="5.86288">
        <ele>1264.27</ele>
        <time>2015-05-24T11:57:38Z</time>
      </trkpt>
      <trkpt lat="44.13819" lon="5.86288">
        <ele>1264.27</ele>
        <time>2015-05-24T11:58:18Z</time>
      </trkpt>
      <trkpt lat="44.1382" lon="5.86289">
        <ele>1264.27</ele>
        <time>2015-05-24T11:59:01Z</time>
      </trkpt>
      <trkpt lat="44.13819" lon="5.86288">
        <ele>1263.79</ele>
        <time>2015-05-24T11:59:41Z</time>
      </trkpt>
      <trkpt lat="44.1382" lon="5.86288">
        <ele>1263.79</ele>
        <time>2015-05-24T12:00:22Z</time>
      </trkpt>
      <trkpt lat="44.13819" lon="5.86287">
        <ele>1264.27</ele>
        <time>2015-05-24T12:01:13Z</time>
      </trkpt>
      <trkpt lat="44.1382" lon="5.86287">
        <ele>1264.27</ele>
        <time>2015-05-24T12:01:53Z</time>
      </trkpt>
      <trkpt lat="44.1382" lon="5.86288">
        <ele>1264.27</ele>
        <time>2015-05-24T12:02:42Z</time>
      </trkpt>
      <trkpt lat="44.13819" lon="5.86288">
        <ele>1264.27</ele>
        <time>2015-05-24T12:03:30Z</time>
      </trkpt>
      <trkpt lat="44.13819" lon="5.86287">
        <ele>1264.27</ele>
        <time>2015-05-24T12:04:09Z</time>
      </trkpt>
      <trkpt lat="44.13819" lon="5.86286">
        <ele>1264.27</ele>
        <time>2015-05-24T12:04:53Z</time>
      </trkpt>
      <trkpt lat="44.13819" lon="5.86287">
        <ele>1264.27</ele>
        <time>2015-05-24T12:05:40Z</time>
      </trkpt>
      <trkpt lat="44.1382" lon="5.86287">
        <ele>1264.27</ele>
        <time>2015-05-24T12:06:34Z</time>
      </trkpt>
      <trkpt lat="44.13819" lon="5.86287">
        <ele>1264.27</ele>
        <time>2015-05-24T12:07:27Z</time>
      </trkpt>
      <trkpt lat="44.1382" lon="5.86287">
        <ele>1264.27</ele>
        <time>2015-05-24T12:08:17Z</time>
      </trkpt>
      <trkpt lat="44.13819" lon="5.86287">
        <ele>1264.27</ele>
        <time>2015-05-24T12:09:07Z</time>
      </trkpt>
      <trkpt lat="44.1382" lon="5.86287">
        <ele>1264.75</ele>
        <time>2015-05-24T12:09:56Z</time>
      </trkpt>
      <trkpt lat="44.13819" lon="5.86287">
        <ele>1264.75</ele>
        <time>2015-05-24T12:10:42Z</time>
      </trkpt>
      <trkpt lat="44.13819" lon="5.86288">
        <ele>1264.75</ele>
        <time>2015-05-24T12:11:18Z</time>
      </trkpt>
      <trkpt lat="44.1382" lon="5.86288">
        <ele>1264.75</ele>
        <time>2015-05-24T12:12:07Z</time>
      </trkpt>
      <trkpt lat="44.1382" lon="5.86288">
        <ele>1264.75</ele>
        <time>2015-05-24T12:12:48Z</time>
      </trkpt>
      <trkpt lat="44.13819" lon="5.86288">
        <ele>1264.75</ele>
        <time>2015-05-24T12:13:36Z</time>
      </trkpt>
      <trkpt lat="44.13819" lon="5.86288">
        <ele>1264.75</ele>
        <time>2015-05-24T12:14:21Z</time>
      </trkpt>
      <trkpt lat="44.13819" lon="5.86289">
        <ele>1265.23</ele>
        <time>2015-05-24T12:15:02Z</time>
      </trkpt>
      <trkpt lat="44.1382" lon="5.86288">
        <ele>1265.23</ele>
        <time>2015-05-24T12:15:37Z</time>
      </trkpt>
      <trkpt lat="44.1382" lon="5.86289">
        <ele>1265.23</ele>
        <time>2015-05-24T12:16:25Z</time>
      </trkpt>
      <trkpt lat="44.13819" lon="5.86288">
        <ele>1265.23</ele>
        <time>2015-05-24T12:17:09Z</time>
      </trkpt>
      <trkpt lat="44.1382" lon="5.86287">
        <ele>1265.23</ele>
        <time>2015-05-24T12:17:50Z</time>
      </trkpt>
      <trkpt lat="44.1382" lon="5.86288">
        <ele>1265.23</ele>
        <time>2015-05-24T12:18:35Z</time>
      </trkpt>
      <trkpt lat="44.1382" lon="5.86288">
        <ele>1265.23</ele>
        <time>2015-05-24T12:19:27Z</time>
      </trkpt>
      <trkpt lat="44.13819" lon="5.86288">
        <ele>1265.71</ele>
        <time>2015-05-24T12:20:10Z</time>
      </trkpt>
      <trkpt lat="44.1382" lon="5.86289">
        <ele>1265.71</ele>
        <time>2015-05-24T12:20:59Z</time>
      </trkpt>
      <trkpt lat="44.1382" lon="5.86289">
        <ele>1265.71</ele>
        <time>2015-05-24T12:21:42Z</time>
      </trkpt>
      <trkpt lat="44.13819" lon="5.86289">
        <ele>1265.71</ele>
        <time>2015-05-24T12:22:23Z</time>
      </trkpt>
      <trkpt lat="44.1382" lon="5.86288">
        <ele>1265.71</ele>
        <time>2015-05-24T12:23:10Z</time>
      </trkpt>
      <trkpt lat="44.1382" lon="5.86289">
        <ele>1266.19</ele>
        <time>2015-05-24T12:23:57Z</time>
      </trkpt>
      <trkpt lat="44.13819" lon="5.86288">
        <ele>1266.19</ele>
        <time>2015-05-24T12:24:43Z</time>
      </trkpt>
      <trkpt lat="44.1382" lon="5.86289">
        <ele>1267.16</ele>
        <time>2015-05-24T12:25:24Z</time>
      </trkpt>
      <trkpt lat="44.1382" lon="5.86289">
        <ele>1267.64</ele>
        <time>2015-05-24T12:26:18Z</time>
      </trkpt>
      <trkpt lat="44.13819" lon="5.86289">
        <ele>1267.64</ele>
        <time>2015-05-24T12:26:56Z</time>
      </trkpt>
      <trkpt lat="44.1382" lon="5.8629">
        <ele>1267.64</ele>
        <time>2015-05-24T12:27:37Z</time>
      </trkpt>
      <trkpt lat="44.13819" lon="5.8629">
        <ele>1267.64</ele>
        <time>2015-05-24T12:28:22Z</time>
      </trkpt>
      <trkpt lat="44.1382" lon="5.86289">
        <ele>1268.12</ele>
        <time>2015-05-24T12:29:05Z</time>
      </trkpt>
      <trkpt lat="44.1382" lon="5.8629">
        <ele>1268.12</ele>
        <time>2015-05-24T12:29:50Z</time>
      </trkpt>
      <trkpt lat="44.1382" lon="5.8629">
        <ele>1268.12</ele>
        <time>2015-05-24T12:30:38Z</time>
      </trkpt>
      <trkpt lat="44.13819" lon="5.8629">
        <ele>1268.12</ele>
        <time>2015-05-24T12:31:22Z</time>
      </trkpt>
      <trkpt lat="44.13819" lon="5.8629">
        <ele>1261.39</ele>
        <time>2015-05-24T12:31:47Z</time>
      </trkpt>
      <trkpt lat="44.13819" lon="5.86291">
        <ele>1268.6</ele>
        <time>2015-05-24T12:31:48Z</time>
      </trkpt>
      <trkpt lat="44.1382" lon="5.86291">
        <ele>1269.56</ele>
        <time>2015-05-24T12:31:55Z</time>
      </trkpt>
      <trkpt lat="44.1382" lon="5.86292">
        <ele>1269.56</ele>
        <time>2015-05-24T12:31:56Z</time>
      </trkpt>
      <trkpt lat="44.13819" lon="5.86292">
        <ele>1267.64</ele>
        <time>2015-05-24T12:31:58Z</time>
      </trkpt>
      <trkpt lat="44.13819" lon="5.86292">
        <ele>1267.16</ele>
        <time>2015-05-24T12:32:45Z</time>
      </trkpt>
      <trkpt lat="44.13818" lon="5.86292">
        <ele>1267.64</ele>
        <time>2015-05-24T12:33:28Z</time>
      </trkpt>
      <trkpt lat="44.13818" lon="5.86291">
        <ele>1267.64</ele>
        <time>2015-05-24T12:34:16Z</time>
      </trkpt>
      <trkpt lat="44.13819" lon="5.86292">
        <ele>1267.64</ele>
        <time>2015-05-24T12:35:08Z</time>
      </trkpt>
      <trkpt lat="44.13819" lon="5.86293">
        <ele>1268.12</ele>
        <time>2015-05-24T12:35:55Z</time>
      </trkpt>
      <trkpt lat="44.1382" lon="5.86292">
        <ele>1268.12</ele>
        <time>2015-05-24T12:36:42Z</time>
      </trkpt>
      <trkpt lat="44.13818" lon="5.86291">
        <ele>1268.12</ele>
        <time>2015-05-24T12:37:18Z</time>
      </trkpt>
      <trkpt lat="44.13818" lon="5.86292">
        <ele>1268.12</ele>
        <time>2015-05-24T12:38:04Z</time>
      </trkpt>
      <trkpt lat="44.13819" lon="5.86291">
        <ele>1268.6</ele>
        <time>2015-05-24T12:38:42Z</time>
      </trkpt>
      <trkpt lat="44.13818" lon="5.86292">
        <ele>1268.6</ele>
        <time>2015-05-24T12:39:24Z</time>
      </trkpt>
      <trkpt lat="44.1382" lon="5.86294">
        <ele>1270.04</ele>
        <time>2015-05-24T12:40:09Z</time>
      </trkpt>
      <trkpt lat="44.13819" lon="5.86292">
        <ele>1270.04</ele>
        <time>2015-05-24T12:40:50Z</time>
      </trkpt>
      <trkpt lat="44.13819" lon="5.86293">
        <ele>1270.04</ele>
        <time>2015-05-24T12:41:33Z</time>
      </trkpt>
      <trkpt lat="44.13819" lon="5.86293">
        <ele>1270.04</ele>
        <time>2015-05-24T12:42:22Z</time>
      </trkpt>
      <trkpt lat="44.13819" lon="5.86294">
        <ele>1270.04</ele>
        <time>2015-05-24T12:43:11Z</time>
      </trkpt>
      <trkpt lat="44.13818" lon="5.86293">
        <ele>1266.19</ele>
        <time>2015-05-24T12:43:15Z</time>
      </trkpt>
      <trkpt lat="44.13819" lon="5.86293">
        <ele>1271.48</ele>
        <time>2015-05-24T12:43:16Z</time>
      </trkpt>
      <trkpt lat="44.13819" lon="5.86293">
        <ele>1270.04</ele>
        <time>2015-05-24T12:43:21Z</time>
      </trkpt>
      <trkpt lat="44.13819" lon="5.86292">
        <ele>1271</ele>
        <time>2015-05-24T12:43:23Z</time>
      </trkpt>
      <trkpt lat="44.13819" lon="5.8629">
        <ele>1269.56</ele>
        <time>2015-05-24T12:43:33Z</time>
      </trkpt>
      <trkpt lat="44.1382" lon="5.86289">
        <ele>1271</ele>
        <time>2015-05-24T12:43:37Z</time>
      </trkpt>
      <trkpt lat="44.1382" lon="5.86289">
        <ele>1270.04</ele>
        <time>2015-05-24T12:43:43Z</time>
      </trkpt>
      <trkpt lat="44.1382" lon="5.86289">
        <ele>1269.56</ele>
        <time>2015-05-24T12:43:46Z</time>
      </trkpt>
      <trkpt lat="44.1382" lon="5.86287">
        <ele>1272.92</ele>
        <time>2015-05-24T12:43:52Z</time>
      </trkpt>
      <trkpt lat="44.1382" lon="5.86288">
        <ele>1271</ele>
        <time>2015-05-24T12:43:53Z</time>
      </trkpt>
      <trkpt lat="44.13819" lon="5.8629">
        <ele>1270.04</ele>
        <time>2015-05-24T12:44:01Z</time>
      </trkpt>
      <trkpt lat="44.1382" lon="5.86289">
        <ele>1272.92</ele>
        <time>2015-05-24T12:44:08Z</time>
      </trkpt>
      <trkpt lat="44.1382" lon="5.86289">
        <ele>1269.08</ele>
        <time>2015-05-24T12:44:10Z</time>
      </trkpt>
      <trkpt lat="44.1382" lon="5.86289">
        <ele>1270.04</ele>
        <time>2015-05-24T12:44:17Z</time>
      </trkpt>
      <trkpt lat="44.1382" lon="5.86287">
        <ele>1270.04</ele>
        <time>2015-05-24T12:44:29Z</time>
      </trkpt>
      <trkpt lat="44.1382" lon="5.86287">
        <ele>1269.56</ele>
        <time>2015-05-24T12:44:32Z</time>
      </trkpt>
      <trkpt lat="44.1382" lon="5.86289">
        <ele>1268.12</ele>
        <time>2015-05-24T12:44:34Z</time>
      </trkpt>
      <trkpt lat="44.1382" lon="5.86287">
        <ele>1271.48</ele>
        <time>2015-05-24T12:44:38Z</time>
      </trkpt>
      <trkpt lat="44.1382" lon="5.8629">
        <ele>1268.12</ele>
        <time>2015-05-24T12:44:42Z</time>
      </trkpt>
      <trkpt lat="44.13819" lon="5.8629">
        <ele>1270.04</ele>
        <time>2015-05-24T12:44:43Z</time>
      </trkpt>
      <trkpt lat="44.1382" lon="5.8629">
        <ele>1271</ele>
        <time>2015-05-24T12:44:57Z</time>
      </trkpt>
      <trkpt lat="44.1382" lon="5.8629">
        <ele>1269.56</ele>
        <time>2015-05-24T12:44:59Z</time>
      </trkpt>
      <trkpt lat="44.13821" lon="5.86289">
        <ele>1269.56</ele>
        <time>2015-05-24T12:45:08Z</time>
      </trkpt>
      <trkpt lat="44.13821" lon="5.86288">
        <ele>1271</ele>
        <time>2015-05-24T12:45:11Z</time>
      </trkpt>
      <trkpt lat="44.13821" lon="5.86288">
        <ele>1271.48</ele>
        <time>2015-05-24T12:45:16Z</time>
      </trkpt>
      <trkpt lat="44.13821" lon="5.86286">
        <ele>1269.56</ele>
        <time>2015-05-24T12:45:18Z</time>
      </trkpt>
      <trkpt lat="44.13821" lon="5.86285">
        <ele>1270.52</ele>
        <time>2015-05-24T12:45:21Z</time>
      </trkpt>
      <trkpt lat="44.13821" lon="5.86286">
        <ele>1271</ele>
        <time>2015-05-24T12:45:31Z</time>
      </trkpt>
      <trkpt lat="44.13821" lon="5.86288">
        <ele>1271.96</ele>
        <time>2015-05-24T12:45:46Z</time>
      </trkpt>
      <trkpt lat="44.13816" lon="5.86284">
        <ele>1271.48</ele>
        <time>2015-05-24T12:45:59Z</time>
      </trkpt>
      <trkpt lat="44.1381" lon="5.86278">
        <ele>1271.48</ele>
        <time>2015-05-24T12:46:11Z</time>
      </trkpt>
      <trkpt lat="44.13799" lon="5.86268">
        <ele>1270.04</ele>
        <time>2015-05-24T12:46:26Z</time>
      </trkpt>
      <trkpt lat="44.13797" lon="5.86265">
        <ele>1270.04</ele>
        <time>2015-05-24T12:46:30Z</time>
      </trkpt>
      <trkpt lat="44.13783" lon="5.86244">
        <ele>1268.12</ele>
        <time>2015-05-24T12:46:51Z</time>
      </trkpt>
      <trkpt lat="44.13773" lon="5.86229">
        <ele>1266.19</ele>
        <time>2015-05-24T12:47:07Z</time>
      </trkpt>
      <trkpt lat="44.13763" lon="5.86213">
        <ele>1265.23</ele>
        <time>2015-05-24T12:47:23Z</time>
      </trkpt>
      <trkpt lat="44.13759" lon="5.86201">
        <ele>1264.75</ele>
        <time>2015-05-24T12:47:32Z</time>
      </trkpt>
      <trkpt lat="44.13755" lon="5.86192">
        <ele>1264.27</ele>
        <time>2015-05-24T12:47:40Z</time>
      </trkpt>
      <trkpt lat="44.13748" lon="5.86177">
        <ele>1263.31</ele>
        <time>2015-05-24T12:47:54Z</time>
      </trkpt>
      <trkpt lat="44.13749" lon="5.86166">
        <ele>1263.31</ele>
        <time>2015-05-24T12:48:09Z</time>
      </trkpt>
      <trkpt lat="44.13757" lon="5.86165">
        <ele>1262.35</ele>
        <time>2015-05-24T12:48:32Z</time>
      </trkpt>
      <trkpt lat="44.13765" lon="5.8616">
        <ele>1260.43</ele>
        <time>2015-05-24T12:48:47Z</time>
      </trkpt>
      <trkpt lat="44.13774" lon="5.86153">
        <ele>1258.02</ele>
        <time>2015-05-24T12:49:04Z</time>
      </trkpt>
      <trkpt lat="44.13787" lon="5.8615">
        <ele>1255.14</ele>
        <time>2015-05-24T12:49:22Z</time>
      </trkpt>
      <trkpt lat="44.13794" lon="5.86148">
        <ele>1252.25</ele>
        <time>2015-05-24T12:49:37Z</time>
      </trkpt>
      <trkpt lat="44.1381" lon="5.86149">
        <ele>1249.37</ele>
        <time>2015-05-24T12:49:54Z</time>
      </trkpt>
      <trkpt lat="44.13829" lon="5.86153">
        <ele>1246.97</ele>
        <time>2015-05-24T12:50:13Z</time>
      </trkpt>
      <trkpt lat="44.1384" lon="5.86151">
        <ele>1244.08</ele>
        <time>2015-05-24T12:50:26Z</time>
      </trkpt>
      <trkpt lat="44.13848" lon="5.86148">
        <ele>1240.72</ele>
        <time>2015-05-24T12:50:43Z</time>
      </trkpt>
      <trkpt lat="44.1386" lon="5.86148">
        <ele>1237.35</ele>
        <time>2015-05-24T12:50:57Z</time>
      </trkpt>
      <trkpt lat="44.13875" lon="5.86152">
        <ele>1234.95</ele>
        <time>2015-05-24T12:51:14Z</time>
      </trkpt>
      <trkpt lat="44.13881" lon="5.86154">
        <ele>1232.55</ele>
        <time>2015-05-24T12:51:30Z</time>
      </trkpt>
      <trkpt lat="44.13889" lon="5.86157">
        <ele>1231.11</ele>
        <time>2015-05-24T12:51:42Z</time>
      </trkpt>
      <trkpt lat="44.13898" lon="5.86162">
        <ele>1228.22</ele>
        <time>2015-05-24T12:51:56Z</time>
      </trkpt>
      <trkpt lat="44.13907" lon="5.86169">
        <ele>1225.34</ele>
        <time>2015-05-24T12:52:11Z</time>
      </trkpt>
      <trkpt lat="44.13906" lon="5.86161">
        <ele>1223.9</ele>
        <time>2015-05-24T12:52:24Z</time>
      </trkpt>
      <trkpt lat="44.13904" lon="5.86151">
        <ele>1223.42</ele>
        <time>2015-05-24T12:52:54Z</time>
      </trkpt>
      <trkpt lat="44.13901" lon="5.8615">
        <ele>1223.42</ele>
        <time>2015-05-24T12:53:30Z</time>
      </trkpt>
      <trkpt lat="44.13898" lon="5.86145">
        <ele>1221.49</ele>
        <time>2015-05-24T12:53:44Z</time>
      </trkpt>
      <trkpt lat="44.13897" lon="5.86141">
        <ele>1220.53</ele>
        <time>2015-05-24T12:54:05Z</time>
      </trkpt>
      <trkpt lat="44.13903" lon="5.86144">
        <ele>1220.05</ele>
        <time>2015-05-24T12:54:29Z</time>
      </trkpt>
      <trkpt lat="44.13903" lon="5.86146">
        <ele>1220.53</ele>
        <time>2015-05-24T12:54:59Z</time>
      </trkpt>
      <trkpt lat="44.13904" lon="5.86138">
        <ele>1220.05</ele>
        <time>2015-05-24T12:55:35Z</time>
      </trkpt>
      <trkpt lat="44.13902" lon="5.86138">
        <ele>1220.05</ele>
        <time>2015-05-24T12:56:14Z</time>
      </trkpt>
      <trkpt lat="44.13903" lon="5.86138">
        <ele>1219.09</ele>
        <time>2015-05-24T12:56:39Z</time>
      </trkpt>
      <trkpt lat="44.13908" lon="5.8614">
        <ele>1215.72</ele>
        <time>2015-05-24T12:56:55Z</time>
      </trkpt>
      <trkpt lat="44.1391" lon="5.86139">
        <ele>1213.8</ele>
        <time>2015-05-24T12:57:18Z</time>
      </trkpt>
      <trkpt lat="44.13913" lon="5.86141">
        <ele>1210.92</ele>
        <time>2015-05-24T12:57:31Z</time>
      </trkpt>
      <trkpt lat="44.13918" lon="5.86141">
        <ele>1208.03</ele>
        <time>2015-05-24T12:57:49Z</time>
      </trkpt>
      <trkpt lat="44.13921" lon="5.86138">
        <ele>1208.03</ele>
        <time>2015-05-24T12:58:15Z</time>
      </trkpt>
      <trkpt lat="44.13915" lon="5.86139">
        <ele>1208.03</ele>
        <time>2015-05-24T12:58:40Z</time>
      </trkpt>
      <trkpt lat="44.13923" lon="5.86138">
        <ele>1208.03</ele>
        <time>2015-05-24T12:59:05Z</time>
      </trkpt>
      <trkpt lat="44.13918" lon="5.86145">
        <ele>1207.55</ele>
        <time>2015-05-24T12:59:33Z</time>
      </trkpt>
      <trkpt lat="44.13913" lon="5.86147">
        <ele>1208.03</ele>
        <time>2015-05-24T13:00:13Z</time>
      </trkpt>
      <trkpt lat="44.13907" lon="5.86142">
        <ele>1208.03</ele>
        <time>2015-05-24T13:00:47Z</time>
      </trkpt>
      <trkpt lat="44.13907" lon="5.86138">
        <ele>1209.48</ele>
        <time>2015-05-24T13:01:17Z</time>
      </trkpt>
      <trkpt lat="44.13912" lon="5.86131">
        <ele>1212.84</ele>
        <time>2015-05-24T13:01:38Z</time>
      </trkpt>
      <trkpt lat="44.13904" lon="5.86135">
        <ele>1216.21</ele>
        <time>2015-05-24T13:01:53Z</time>
      </trkpt>
      <trkpt lat="44.13904" lon="5.86138">
        <ele>1218.61</ele>
        <time>2015-05-24T13:02:08Z</time>
      </trkpt>
      <trkpt lat="44.13898" lon="5.86145">
        <ele>1222.45</ele>
        <time>2015-05-24T13:02:27Z</time>
      </trkpt>
      <trkpt lat="44.13903" lon="5.8616">
        <ele>1224.86</ele>
        <time>2015-05-24T13:02:47Z</time>
      </trkpt>
      <trkpt lat="44.13904" lon="5.86166">
        <ele>1226.3</ele>
        <time>2015-05-24T13:03:03Z</time>
      </trkpt>
      <trkpt lat="44.139" lon="5.86158">
        <ele>1227.74</ele>
        <time>2015-05-24T13:03:18Z</time>
      </trkpt>
      <trkpt lat="44.13897" lon="5.86152">
        <ele>1229.66</ele>
        <time>2015-05-24T13:03:31Z</time>
      </trkpt>
      <trkpt lat="44.1389" lon="5.86145">
        <ele>1232.55</ele>
        <time>2015-05-24T13:03:53Z</time>
      </trkpt>
      <trkpt lat="44.13882" lon="5.86147">
        <ele>1235.43</ele>
        <time>2015-05-24T13:04:11Z</time>
      </trkpt>
      <trkpt lat="44.13872" lon="5.8614">
        <ele>1237.35</ele>
        <time>2015-05-24T13:04:27Z</time>
      </trkpt>
      <trkpt lat="44.13864" lon="5.86138">
        <ele>1239.28</ele>
        <time>2015-05-24T13:04:48Z</time>
      </trkpt>
      <trkpt lat="44.13855" lon="5.86143">
        <ele>1241.68</ele>
        <time>2015-05-24T13:05:05Z</time>
      </trkpt>
      <trkpt lat="44.13847" lon="5.86147">
        <ele>1243.6</ele>
        <time>2015-05-24T13:05:20Z</time>
      </trkpt>
      <trkpt lat="44.1384" lon="5.86149">
        <ele>1246.49</ele>
        <time>2015-05-24T13:05:35Z</time>
      </trkpt>
      <trkpt lat="44.13839" lon="5.86149">
        <ele>1246.49</ele>
        <time>2015-05-24T13:05:36Z</time>
      </trkpt>
      <trkpt lat="44.13828" lon="5.86146">
        <ele>1247.93</ele>
        <time>2015-05-24T13:05:52Z</time>
      </trkpt>
      <trkpt lat="44.13821" lon="5.86144">
        <ele>1249.85</ele>
        <time>2015-05-24T13:06:07Z</time>
      </trkpt>
      <trkpt lat="44.13813" lon="5.86138">
        <ele>1251.77</ele>
        <time>2015-05-24T13:06:25Z</time>
      </trkpt>
      <trkpt lat="44.13789" lon="5.8614">
        <ele>1254.18</ele>
        <time>2015-05-24T13:06:45Z</time>
      </trkpt>
      <trkpt lat="44.13771" lon="5.8615">
        <ele>1256.1</ele>
        <time>2015-05-24T13:07:06Z</time>
      </trkpt>
      <trkpt lat="44.1376" lon="5.86158">
        <ele>1258.5</ele>
        <time>2015-05-24T13:07:24Z</time>
      </trkpt>
      <trkpt lat="44.13749" lon="5.86165">
        <ele>1260.43</ele>
        <time>2015-05-24T13:07:39Z</time>
      </trkpt>
      <trkpt lat="44.13744" lon="5.86168">
        <ele>1260.91</ele>
        <time>2015-05-24T13:07:53Z</time>
      </trkpt>
      <trkpt lat="44.13744" lon="5.8617">
        <ele>1260.91</ele>
        <time>2015-05-24T13:08:22Z</time>
      </trkpt>
      <trkpt lat="44.13747" lon="5.8617">
        <ele>1260.91</ele>
        <time>2015-05-24T13:08:55Z</time>
      </trkpt>
      <trkpt lat="44.13743" lon="5.86167">
        <ele>1260.91</ele>
        <time>2015-05-24T13:09:16Z</time>
      </trkpt>
      <trkpt lat="44.1374" lon="5.86159">
        <ele>1260.91</ele>
        <time>2015-05-24T13:09:28Z</time>
      </trkpt>
      <trkpt lat="44.13731" lon="5.86145">
        <ele>1260.91</ele>
        <time>2015-05-24T13:09:43Z</time>
      </trkpt>
      <trkpt lat="44.1373" lon="5.86143">
        <ele>1260.91</ele>
        <time>2015-05-24T13:09:44Z</time>
      </trkpt>
      <trkpt lat="44.13714" lon="5.86129">
        <ele>1261.87</ele>
        <time>2015-05-24T13:10:02Z</time>
      </trkpt>
      <trkpt lat="44.13706" lon="5.86112">
        <ele>1262.83</ele>
        <time>2015-05-24T13:10:19Z</time>
      </trkpt>
      <trkpt lat="44.13698" lon="5.86105">
        <ele>1262.83</ele>
        <time>2015-05-24T13:10:33Z</time>
      </trkpt>
      <trkpt lat="44.13689" lon="5.86094">
        <ele>1262.83</ele>
        <time>2015-05-24T13:10:48Z</time>
      </trkpt>
      <trkpt lat="44.13688" lon="5.86091">
        <ele>1263.31</ele>
        <time>2015-05-24T13:11:04Z</time>
      </trkpt>
      <trkpt lat="44.13685" lon="5.86094">
        <ele>1263.31</ele>
        <time>2015-05-24T13:11:32Z</time>
      </trkpt>
      <trkpt lat="44.13685" lon="5.86092">
        <ele>1263.79</ele>
        <time>2015-05-24T13:12:01Z</time>
      </trkpt>
      <trkpt lat="44.13677" lon="5.86094">
        <ele>1263.79</ele>
        <time>2015-05-24T13:12:20Z</time>
      </trkpt>
      <trkpt lat="44.13669" lon="5.86095">
        <ele>1262.35</ele>
        <time>2015-05-24T13:12:28Z</time>
      </trkpt>
      <trkpt lat="44.13667" lon="5.86094">
        <ele>1262.35</ele>
        <time>2015-05-24T13:12:30Z</time>
      </trkpt>
      <trkpt lat="44.13648" lon="5.86096">
        <ele>1260.91</ele>
        <time>2015-05-24T13:12:48Z</time>
      </trkpt>
      <trkpt lat="44.13635" lon="5.86097">
        <ele>1259.46</ele>
        <time>2015-05-24T13:13:02Z</time>
      </trkpt>
      <trkpt lat="44.13634" lon="5.86097">
        <ele>1259.46</ele>
        <time>2015-05-24T13:13:03Z</time>
      </trkpt>
      <trkpt lat="44.13614" lon="5.86096">
        <ele>1258.02</ele>
        <time>2015-05-24T13:13:20Z</time>
      </trkpt>
      <trkpt lat="44.13594" lon="5.86093">
        <ele>1256.58</ele>
        <time>2015-05-24T13:13:38Z</time>
      </trkpt>
      <trkpt lat="44.13577" lon="5.86082">
        <ele>1255.14</ele>
        <time>2015-05-24T13:13:56Z</time>
      </trkpt>
      <trkpt lat="44.13564" lon="5.86071">
        <ele>1253.7</ele>
        <time>2015-05-24T13:14:11Z</time>
      </trkpt>
      <trkpt lat="44.13549" lon="5.86063">
        <ele>1252.25</ele>
        <time>2015-05-24T13:14:27Z</time>
      </trkpt>
      <trkpt lat="44.13539" lon="5.86052">
        <ele>1251.29</ele>
        <time>2015-05-24T13:14:45Z</time>
      </trkpt>
      <trkpt lat="44.13532" lon="5.86036">
        <ele>1251.29</ele>
        <time>2015-05-24T13:15:03Z</time>
      </trkpt>
      <trkpt lat="44.13531" lon="5.86003">
        <ele>1249.85</ele>
        <time>2015-05-24T13:15:24Z</time>
      </trkpt>
      <trkpt lat="44.13531" lon="5.85972">
        <ele>1249.37</ele>
        <time>2015-05-24T13:15:42Z</time>
      </trkpt>
      <trkpt lat="44.13532" lon="5.85959">
        <ele>1249.37</ele>
        <time>2015-05-24T13:15:49Z</time>
      </trkpt>
      <trkpt lat="44.13527" lon="5.85929">
        <ele>1248.41</ele>
        <time>2015-05-24T13:16:07Z</time>
      </trkpt>
      <trkpt lat="44.13523" lon="5.85899">
        <ele>1247.93</ele>
        <time>2015-05-24T13:16:25Z</time>
      </trkpt>
      <trkpt lat="44.13521" lon="5.85873">
        <ele>1247.93</ele>
        <time>2015-05-24T13:16:41Z</time>
      </trkpt>
      <trkpt lat="44.13519" lon="5.85848">
        <ele>1247.45</ele>
        <time>2015-05-24T13:16:57Z</time>
      </trkpt>
      <trkpt lat="44.13517" lon="5.85825">
        <ele>1247.45</ele>
        <time>2015-05-24T13:17:12Z</time>
      </trkpt>
      <trkpt lat="44.13513" lon="5.85801">
        <ele>1247.45</ele>
        <time>2015-05-24T13:17:28Z</time>
      </trkpt>
      <trkpt lat="44.13507" lon="5.85774">
        <ele>1247.45</ele>
        <time>2015-05-24T13:17:46Z</time>
      </trkpt>
      <trkpt lat="44.13501" lon="5.85753">
        <ele>1246.49</ele>
        <time>2015-05-24T13:18:00Z</time>
      </trkpt>
      <trkpt lat="44.13494" lon="5.85728">
        <ele>1246.01</ele>
        <time>2015-05-24T13:18:18Z</time>
      </trkpt>
      <trkpt lat="44.13491" lon="5.8572">
        <ele>1246.01</ele>
        <time>2015-05-24T13:18:23Z</time>
      </trkpt>
      <trkpt lat="44.13482" lon="5.85692">
        <ele>1245.04</ele>
        <time>2015-05-24T13:18:42Z</time>
      </trkpt>
      <trkpt lat="44.13476" lon="5.85667">
        <ele>1244.56</ele>
        <time>2015-05-24T13:18:59Z</time>
      </trkpt>
      <trkpt lat="44.13472" lon="5.85643">
        <ele>1243.6</ele>
        <time>2015-05-24T13:19:15Z</time>
      </trkpt>
      <trkpt lat="44.13468" lon="5.85619">
        <ele>1243.6</ele>
        <time>2015-05-24T13:19:31Z</time>
      </trkpt>
      <trkpt lat="44.13465" lon="5.85594">
        <ele>1242.64</ele>
        <time>2015-05-24T13:19:48Z</time>
      </trkpt>
      <trkpt lat="44.13463" lon="5.85566">
        <ele>1241.68</ele>
        <time>2015-05-24T13:20:06Z</time>
      </trkpt>
      <trkpt lat="44.13462" lon="5.85542">
        <ele>1241.2</ele>
        <time>2015-05-24T13:20:21Z</time>
      </trkpt>
      <trkpt lat="44.13461" lon="5.85514">
        <ele>1240.24</ele>
        <time>2015-05-24T13:20:39Z</time>
      </trkpt>
      <trkpt lat="44.13462" lon="5.85489">
        <ele>1240.24</ele>
        <time>2015-05-24T13:20:55Z</time>
      </trkpt>
      <trkpt lat="44.13458" lon="5.85465">
        <ele>1240.24</ele>
        <time>2015-05-24T13:21:11Z</time>
      </trkpt>
      <trkpt lat="44.13454" lon="5.85444">
        <ele>1240.24</ele>
        <time>2015-05-24T13:21:25Z</time>
      </trkpt>
      <trkpt lat="44.13448" lon="5.85413">
        <ele>1239.28</ele>
        <time>2015-05-24T13:21:44Z</time>
      </trkpt>
      <trkpt lat="44.13442" lon="5.85388">
        <ele>1238.8</ele>
        <time>2015-05-24T13:22:01Z</time>
      </trkpt>
      <trkpt lat="44.13435" lon="5.8536">
        <ele>1237.35</ele>
        <time>2015-05-24T13:22:19Z</time>
      </trkpt>
      <trkpt lat="44.13431" lon="5.85331">
        <ele>1236.39</ele>
        <time>2015-05-24T13:22:37Z</time>
      </trkpt>
      <trkpt lat="44.13431" lon="5.85305">
        <ele>1235.43</ele>
        <time>2015-05-24T13:22:53Z</time>
      </trkpt>
      <trkpt lat="44.13429" lon="5.8528">
        <ele>1234.95</ele>
        <time>2015-05-24T13:23:09Z</time>
      </trkpt>
      <trkpt lat="44.13427" lon="5.85254">
        <ele>1233.51</ele>
        <time>2015-05-24T13:23:24Z</time>
      </trkpt>
      <trkpt lat="44.13425" lon="5.85229">
        <ele>1233.03</ele>
        <time>2015-05-24T13:23:40Z</time>
      </trkpt>
      <trkpt lat="44.13423" lon="5.85206">
        <ele>1232.55</ele>
        <time>2015-05-24T13:23:55Z</time>
      </trkpt>
      <trkpt lat="44.13421" lon="5.85179">
        <ele>1231.11</ele>
        <time>2015-05-24T13:24:11Z</time>
      </trkpt>
      <trkpt lat="44.13421" lon="5.85156">
        <ele>1231.11</ele>
        <time>2015-05-24T13:24:25Z</time>
      </trkpt>
      <trkpt lat="44.13428" lon="5.85133">
        <ele>1230.14</ele>
        <time>2015-05-24T13:24:42Z</time>
      </trkpt>
      <trkpt lat="44.13437" lon="5.85111">
        <ele>1228.7</ele>
        <time>2015-05-24T13:25:00Z</time>
      </trkpt>
      <trkpt lat="44.1344" lon="5.85085">
        <ele>1228.22</ele>
        <time>2015-05-24T13:25:14Z</time>
      </trkpt>
      <trkpt lat="44.13439" lon="5.85055">
        <ele>1227.26</ele>
        <time>2015-05-24T13:25:30Z</time>
      </trkpt>
      <trkpt lat="44.1344" lon="5.85049">
        <ele>1226.78</ele>
        <time>2015-05-24T13:25:34Z</time>
      </trkpt>
      <trkpt lat="44.1344" lon="5.85018">
        <ele>1225.82</ele>
        <time>2015-05-24T13:25:52Z</time>
      </trkpt>
      <trkpt lat="44.13445" lon="5.84993">
        <ele>1224.38</ele>
        <time>2015-05-24T13:26:08Z</time>
      </trkpt>
      <trkpt lat="44.13447" lon="5.84964">
        <ele>1223.42</ele>
        <time>2015-05-24T13:26:26Z</time>
      </trkpt>
      <trkpt lat="44.13455" lon="5.84935">
        <ele>1223.42</ele>
        <time>2015-05-24T13:26:46Z</time>
      </trkpt>
      <trkpt lat="44.1345" lon="5.84906">
        <ele>1221.97</ele>
        <time>2015-05-24T13:27:06Z</time>
      </trkpt>
      <trkpt lat="44.1344" lon="5.84884">
        <ele>1221.49</ele>
        <time>2015-05-24T13:27:22Z</time>
      </trkpt>
      <trkpt lat="44.13426" lon="5.84862">
        <ele>1220.53</ele>
        <time>2015-05-24T13:27:40Z</time>
      </trkpt>
      <trkpt lat="44.13416" lon="5.84839">
        <ele>1219.09</ele>
        <time>2015-05-24T13:27:58Z</time>
      </trkpt>
      <trkpt lat="44.13405" lon="5.84818">
        <ele>1218.61</ele>
        <time>2015-05-24T13:28:14Z</time>
      </trkpt>
      <trkpt lat="44.13397" lon="5.84798">
        <ele>1216.69</ele>
        <time>2015-05-24T13:28:30Z</time>
      </trkpt>
      <trkpt lat="44.13388" lon="5.84782">
        <ele>1216.69</ele>
        <time>2015-05-24T13:28:44Z</time>
      </trkpt>
      <trkpt lat="44.13381" lon="5.84759">
        <ele>1216.69</ele>
        <time>2015-05-24T13:29:01Z</time>
      </trkpt>
      <trkpt lat="44.13375" lon="5.84739">
        <ele>1217.65</ele>
        <time>2015-05-24T13:29:16Z</time>
      </trkpt>
      <trkpt lat="44.13366" lon="5.84712">
        <ele>1217.17</ele>
        <time>2015-05-24T13:29:34Z</time>
      </trkpt>
      <trkpt lat="44.13357" lon="5.84688">
        <ele>1216.69</ele>
        <time>2015-05-24T13:29:50Z</time>
      </trkpt>
      <trkpt lat="44.13351" lon="5.8467">
        <ele>1217.17</ele>
        <time>2015-05-24T13:30:04Z</time>
      </trkpt>
      <trkpt lat="44.13344" lon="5.84659">
        <ele>1217.17</ele>
        <time>2015-05-24T13:30:19Z</time>
      </trkpt>
      <trkpt lat="44.13343" lon="5.84656">
        <ele>1217.17</ele>
        <time>2015-05-24T13:30:44Z</time>
      </trkpt>
      <trkpt lat="44.13335" lon="5.84654">
        <ele>1215.72</ele>
        <time>2015-05-24T13:30:59Z</time>
      </trkpt>
      <trkpt lat="44.13335" lon="5.84655">
        <ele>1215.72</ele>
        <time>2015-05-24T13:31:28Z</time>
      </trkpt>
      <trkpt lat="44.13335" lon="5.84658">
        <ele>1215.72</ele>
        <time>2015-05-24T13:31:59Z</time>
      </trkpt>
      <trkpt lat="44.13337" lon="5.84658">
        <ele>1215.72</ele>
        <time>2015-05-24T13:32:32Z</time>
      </trkpt>
      <trkpt lat="44.13338" lon="5.84658">
        <ele>1215.72</ele>
        <time>2015-05-24T13:32:58Z</time>
      </trkpt>
      <trkpt lat="44.13335" lon="5.84659">
        <ele>1215.72</ele>
        <time>2015-05-24T13:33:28Z</time>
      </trkpt>
      <trkpt lat="44.13335" lon="5.84656">
        <ele>1215.72</ele>
        <time>2015-05-24T13:33:47Z</time>
      </trkpt>
      <trkpt lat="44.13334" lon="5.84646">
        <ele>1215.72</ele>
        <time>2015-05-24T13:34:12Z</time>
      </trkpt>
      <trkpt lat="44.13327" lon="5.84624">
        <ele>1214.28</ele>
        <time>2015-05-24T13:34:27Z</time>
      </trkpt>
      <trkpt lat="44.1332" lon="5.84606">
        <ele>1212.84</ele>
        <time>2015-05-24T13:34:42Z</time>
      </trkpt>
      <trkpt lat="44.13318" lon="5.84584">
        <ele>1211.4</ele>
        <time>2015-05-24T13:34:56Z</time>
      </trkpt>
      <trkpt lat="44.13315" lon="5.84563">
        <ele>1209.48</ele>
        <time>2015-05-24T13:35:10Z</time>
      </trkpt>
      <trkpt lat="44.13314" lon="5.84542">
        <ele>1207.07</ele>
        <time>2015-05-24T13:35:26Z</time>
      </trkpt>
      <trkpt lat="44.13312" lon="5.84516">
        <ele>1205.15</ele>
        <time>2015-05-24T13:35:41Z</time>
      </trkpt>
      <trkpt lat="44.13311" lon="5.84491">
        <ele>1202.75</ele>
        <time>2015-05-24T13:35:58Z</time>
      </trkpt>
      <trkpt lat="44.13307" lon="5.84464">
        <ele>1200.82</ele>
        <time>2015-05-24T13:36:14Z</time>
      </trkpt>
      <trkpt lat="44.13304" lon="5.84435">
        <ele>1197.94</ele>
        <time>2015-05-24T13:36:31Z</time>
      </trkpt>
      <trkpt lat="44.133" lon="5.84416">
        <ele>1196.98</ele>
        <time>2015-05-24T13:36:41Z</time>
      </trkpt>
      <trkpt lat="44.13296" lon="5.84386">
        <ele>1193.13</ele>
        <time>2015-05-24T13:36:59Z</time>
      </trkpt>
      <trkpt lat="44.13295" lon="5.84362">
        <ele>1191.69</ele>
        <time>2015-05-24T13:37:14Z</time>
      </trkpt>
      <trkpt lat="44.13296" lon="5.84339">
        <ele>1189.77</ele>
        <time>2015-05-24T13:37:28Z</time>
      </trkpt>
      <trkpt lat="44.13291" lon="5.84308">
        <ele>1186.88</ele>
        <time>2015-05-24T13:37:46Z</time>
      </trkpt>
      <trkpt lat="44.13281" lon="5.84277">
        <ele>1185.44</ele>
        <time>2015-05-24T13:38:05Z</time>
      </trkpt>
      <trkpt lat="44.13275" lon="5.84249">
        <ele>1183.52</ele>
        <time>2015-05-24T13:38:22Z</time>
      </trkpt>
      <trkpt lat="44.13269" lon="5.84218">
        <ele>1181.12</ele>
        <time>2015-05-24T13:38:40Z</time>
      </trkpt>
      <trkpt lat="44.13263" lon="5.84192">
        <ele>1179.19</ele>
        <time>2015-05-24T13:38:56Z</time>
      </trkpt>
      <trkpt lat="44.13257" lon="5.84167">
        <ele>1177.27</ele>
        <time>2015-05-24T13:39:12Z</time>
      </trkpt>
      <trkpt lat="44.1325" lon="5.84139">
        <ele>1174.87</ele>
        <time>2015-05-24T13:39:29Z</time>
      </trkpt>
      <trkpt lat="44.13246" lon="5.84114">
        <ele>1172.95</ele>
        <time>2015-05-24T13:39:44Z</time>
      </trkpt>
      <trkpt lat="44.13242" lon="5.84092">
        <ele>1171.5</ele>
        <time>2015-05-24T13:39:58Z</time>
      </trkpt>
      <trkpt lat="44.13236" lon="5.8406">
        <ele>1169.1</ele>
        <time>2015-05-24T13:40:16Z</time>
      </trkpt>
      <trkpt lat="44.13232" lon="5.84035">
        <ele>1167.18</ele>
        <time>2015-05-24T13:40:31Z</time>
      </trkpt>
      <trkpt lat="44.13224" lon="5.84009">
        <ele>1165.26</ele>
        <time>2015-05-24T13:40:48Z</time>
      </trkpt>
      <trkpt lat="44.13217" lon="5.83982">
        <ele>1162.85</ele>
        <time>2015-05-24T13:41:05Z</time>
      </trkpt>
      <trkpt lat="44.13206" lon="5.83949">
        <ele>1161.41</ele>
        <time>2015-05-24T13:41:24Z</time>
      </trkpt>
      <trkpt lat="44.13194" lon="5.83919">
        <ele>1159.49</ele>
        <time>2015-05-24T13:41:42Z</time>
      </trkpt>
      <trkpt lat="44.13182" lon="5.83892">
        <ele>1158.05</ele>
        <time>2015-05-24T13:41:59Z</time>
      </trkpt>
      <trkpt lat="44.13169" lon="5.83857">
        <ele>1156.6</ele>
        <time>2015-05-24T13:42:20Z</time>
      </trkpt>
      <trkpt lat="44.13163" lon="5.83838">
        <ele>1155.64</ele>
        <time>2015-05-24T13:42:32Z</time>
      </trkpt>
      <trkpt lat="44.13164" lon="5.83823">
        <ele>1155.16</ele>
        <time>2015-05-24T13:42:39Z</time>
      </trkpt>
      <trkpt lat="44.13173" lon="5.83808">
        <ele>1153.72</ele>
        <time>2015-05-24T13:42:51Z</time>
      </trkpt>
      <trkpt lat="44.13194" lon="5.83801">
        <ele>1150.84</ele>
        <time>2015-05-24T13:43:10Z</time>
      </trkpt>
      <trkpt lat="44.13213" lon="5.838">
        <ele>1148.43</ele>
        <time>2015-05-24T13:43:26Z</time>
      </trkpt>
      <trkpt lat="44.13227" lon="5.83798">
        <ele>1146.51</ele>
        <time>2015-05-24T13:43:41Z</time>
      </trkpt>
      <trkpt lat="44.13243" lon="5.83791">
        <ele>1144.59</ele>
        <time>2015-05-24T13:43:57Z</time>
      </trkpt>
      <trkpt lat="44.13265" lon="5.83782">
        <ele>1143.14</ele>
        <time>2015-05-24T13:44:10Z</time>
      </trkpt>
      <trkpt lat="44.1327" lon="5.83779">
        <ele>1143.14</ele>
        <time>2015-05-24T13:44:13Z</time>
      </trkpt>
      <trkpt lat="44.13288" lon="5.83769">
        <ele>1140.26</ele>
        <time>2015-05-24T13:44:29Z</time>
      </trkpt>
      <trkpt lat="44.13298" lon="5.83763">
        <ele>1139.3</ele>
        <time>2015-05-24T13:44:38Z</time>
      </trkpt>
      <trkpt lat="44.13316" lon="5.83756">
        <ele>1137.38</ele>
        <time>2015-05-24T13:44:53Z</time>
      </trkpt>
      <trkpt lat="44.13342" lon="5.8375">
        <ele>1136.42</ele>
        <time>2015-05-24T13:45:10Z</time>
      </trkpt>
      <trkpt lat="44.13362" lon="5.83753">
        <ele>1134.49</ele>
        <time>2015-05-24T13:45:26Z</time>
      </trkpt>
      <trkpt lat="44.13378" lon="5.83757">
        <ele>1132.57</ele>
        <time>2015-05-24T13:45:40Z</time>
      </trkpt>
      <trkpt lat="44.134" lon="5.83769">
        <ele>1130.65</ele>
        <time>2015-05-24T13:45:59Z</time>
      </trkpt>
      <trkpt lat="44.13427" lon="5.83777">
        <ele>1129.21</ele>
        <time>2015-05-24T13:46:17Z</time>
      </trkpt>
      <trkpt lat="44.13451" lon="5.83772">
        <ele>1127.28</ele>
        <time>2015-05-24T13:46:37Z</time>
      </trkpt>
      <trkpt lat="44.13473" lon="5.8376">
        <ele>1125.84</ele>
        <time>2015-05-24T13:46:56Z</time>
      </trkpt>
      <trkpt lat="44.13481" lon="5.83757">
        <ele>1125.36</ele>
        <time>2015-05-24T13:47:02Z</time>
      </trkpt>
      <trkpt lat="44.135" lon="5.83742">
        <ele>1124.4</ele>
        <time>2015-05-24T13:47:19Z</time>
      </trkpt>
      <trkpt lat="44.13521" lon="5.83715">
        <ele>1122</ele>
        <time>2015-05-24T13:47:40Z</time>
      </trkpt>
      <trkpt lat="44.13532" lon="5.83694">
        <ele>1120.07</ele>
        <time>2015-05-24T13:47:56Z</time>
      </trkpt>
      <trkpt lat="44.13537" lon="5.83677">
        <ele>1119.11</ele>
        <time>2015-05-24T13:48:06Z</time>
      </trkpt>
      <trkpt lat="44.13542" lon="5.83646">
        <ele>1118.15</ele>
        <time>2015-05-24T13:48:23Z</time>
      </trkpt>
      <trkpt lat="44.13543" lon="5.83639">
        <ele>1118.15</ele>
        <time>2015-05-24T13:48:27Z</time>
      </trkpt>
      <trkpt lat="44.13544" lon="5.8361">
        <ele>1118.15</ele>
        <time>2015-05-24T13:48:43Z</time>
      </trkpt>
      <trkpt lat="44.13545" lon="5.83593">
        <ele>1119.11</ele>
        <time>2015-05-24T13:48:53Z</time>
      </trkpt>
      <trkpt lat="44.1355" lon="5.83568">
        <ele>1119.59</ele>
        <time>2015-05-24T13:49:09Z</time>
      </trkpt>
      <trkpt lat="44.13554" lon="5.83547">
        <ele>1120.07</ele>
        <time>2015-05-24T13:49:23Z</time>
      </trkpt>
      <trkpt lat="44.13562" lon="5.83519">
        <ele>1120.07</ele>
        <time>2015-05-24T13:49:39Z</time>
      </trkpt>
      <trkpt lat="44.13566" lon="5.83489">
        <ele>1120.07</ele>
        <time>2015-05-24T13:49:56Z</time>
      </trkpt>
      <trkpt lat="44.13563" lon="5.83458">
        <ele>1117.67</ele>
        <time>2015-05-24T13:50:13Z</time>
      </trkpt>
      <trkpt lat="44.13557" lon="5.83427">
        <ele>1116.71</ele>
        <time>2015-05-24T13:50:31Z</time>
      </trkpt>
      <trkpt lat="44.13555" lon="5.83419">
        <ele>1116.71</ele>
        <time>2015-05-24T13:50:36Z</time>
      </trkpt>
      <trkpt lat="44.13546" lon="5.83383">
        <ele>1116.71</ele>
        <time>2015-05-24T13:50:56Z</time>
      </trkpt>
      <trkpt lat="44.13534" lon="5.83364">
        <ele>1115.75</ele>
        <time>2015-05-24T13:51:10Z</time>
      </trkpt>
      <trkpt lat="44.13531" lon="5.83359">
        <ele>1115.75</ele>
        <time>2015-05-24T13:51:14Z</time>
      </trkpt>
      <trkpt lat="44.13513" lon="5.83332">
        <ele>1112.86</ele>
        <time>2015-05-24T13:51:34Z</time>
      </trkpt>
      <trkpt lat="44.13496" lon="5.8331">
        <ele>1111.42</ele>
        <time>2015-05-24T13:51:51Z</time>
      </trkpt>
      <trkpt lat="44.13484" lon="5.83288">
        <ele>1109.98</ele>
        <time>2015-05-24T13:52:07Z</time>
      </trkpt>
      <trkpt lat="44.13469" lon="5.83268">
        <ele>1109.98</ele>
        <time>2015-05-24T13:52:23Z</time>
      </trkpt>
      <trkpt lat="44.13456" lon="5.83249">
        <ele>1109.98</ele>
        <time>2015-05-24T13:52:40Z</time>
      </trkpt>
      <trkpt lat="44.13447" lon="5.83236">
        <ele>1109.98</ele>
        <time>2015-05-24T13:52:57Z</time>
      </trkpt>
      <trkpt lat="44.13443" lon="5.83229">
        <ele>1109.98</ele>
        <time>2015-05-24T13:53:05Z</time>
      </trkpt>
      <trkpt lat="44.13428" lon="5.83203">
        <ele>1109.98</ele>
        <time>2015-05-24T13:53:24Z</time>
      </trkpt>
      <trkpt lat="44.13425" lon="5.83199">
        <ele>1109.98</ele>
        <time>2015-05-24T13:53:27Z</time>
      </trkpt>
      <trkpt lat="44.13412" lon="5.83178">
        <ele>1109.98</ele>
        <time>2015-05-24T13:53:45Z</time>
      </trkpt>
      <trkpt lat="44.134" lon="5.83161">
        <ele>1110.46</ele>
        <time>2015-05-24T13:54:00Z</time>
      </trkpt>
      <trkpt lat="44.13395" lon="5.83149">
        <ele>1111.42</ele>
        <time>2015-05-24T13:54:12Z</time>
      </trkpt>
      <trkpt lat="44.134" lon="5.83147">
        <ele>1111.42</ele>
        <time>2015-05-24T13:54:26Z</time>
      </trkpt>
      <trkpt lat="44.13399" lon="5.83146">
        <ele>1111.9</ele>
        <time>2015-05-24T13:54:49Z</time>
      </trkpt>
      <trkpt lat="44.134" lon="5.83155">
        <ele>1111.9</ele>
        <time>2015-05-24T13:55:16Z</time>
      </trkpt>
      <trkpt lat="44.13401" lon="5.83155">
        <ele>1111.9</ele>
        <time>2015-05-24T13:55:45Z</time>
      </trkpt>
      <trkpt lat="44.13401" lon="5.83154">
        <ele>1111.9</ele>
        <time>2015-05-24T13:56:16Z</time>
      </trkpt>
      <trkpt lat="44.13401" lon="5.83154">
        <ele>1111.9</ele>
        <time>2015-05-24T13:56:40Z</time>
      </trkpt>
      <trkpt lat="44.13406" lon="5.83146">
        <ele>1110.94</ele>
        <time>2015-05-24T13:57:04Z</time>
      </trkpt>
      <trkpt lat="44.13409" lon="5.83141">
        <ele>1109.98</ele>
        <time>2015-05-24T13:57:08Z</time>
      </trkpt>
      <trkpt lat="44.13422" lon="5.83143">
        <ele>1109.02</ele>
        <time>2015-05-24T13:57:21Z</time>
      </trkpt>
      <trkpt lat="44.13441" lon="5.83158">
        <ele>1107.58</ele>
        <time>2015-05-24T13:57:38Z</time>
      </trkpt>
      <trkpt lat="44.13462" lon="5.83172">
        <ele>1107.1</ele>
        <time>2015-05-24T13:57:56Z</time>
      </trkpt>
      <trkpt lat="44.13477" lon="5.83191">
        <ele>1106.13</ele>
        <time>2015-05-24T13:58:13Z</time>
      </trkpt>
      <trkpt lat="44.13487" lon="5.83204">
        <ele>1105.17</ele>
        <time>2015-05-24T13:58:24Z</time>
      </trkpt>
      <trkpt lat="44.13498" lon="5.83218">
        <ele>1104.69</ele>
        <time>2015-05-24T13:58:38Z</time>
      </trkpt>
      <trkpt lat="44.1351" lon="5.8324">
        <ele>1103.25</ele>
        <time>2015-05-24T13:58:56Z</time>
      </trkpt>
      <trkpt lat="44.13522" lon="5.83259">
        <ele>1102.77</ele>
        <time>2015-05-24T13:59:12Z</time>
      </trkpt>
      <trkpt lat="44.13535" lon="5.83277">
        <ele>1101.81</ele>
        <time>2015-05-24T13:59:28Z</time>
      </trkpt>
      <trkpt lat="44.13549" lon="5.83285">
        <ele>1101.81</ele>
        <time>2015-05-24T13:59:42Z</time>
      </trkpt>
      <trkpt lat="44.13568" lon="5.83297">
        <ele>1100.85</ele>
        <time>2015-05-24T13:59:58Z</time>
      </trkpt>
      <trkpt lat="44.13585" lon="5.83315">
        <ele>1100.37</ele>
        <time>2015-05-24T14:00:14Z</time>
      </trkpt>
      <trkpt lat="44.13597" lon="5.83329">
        <ele>1100.37</ele>
        <time>2015-05-24T14:00:28Z</time>
      </trkpt>
      <trkpt lat="44.13611" lon="5.83344">
        <ele>1099.89</ele>
        <time>2015-05-24T14:00:45Z</time>
      </trkpt>
      <trkpt lat="44.13614" lon="5.83346">
        <ele>1098.92</ele>
        <time>2015-05-24T14:00:49Z</time>
      </trkpt>
      <trkpt lat="44.13635" lon="5.83357">
        <ele>1098.44</ele>
        <time>2015-05-24T14:01:09Z</time>
      </trkpt>
      <trkpt lat="44.13638" lon="5.8336">
        <ele>1097.96</ele>
        <time>2015-05-24T14:01:12Z</time>
      </trkpt>
      <trkpt lat="44.13652" lon="5.83369">
        <ele>1097</ele>
        <time>2015-05-24T14:01:27Z</time>
      </trkpt>
      <trkpt lat="44.13667" lon="5.83383">
        <ele>1097</ele>
        <time>2015-05-24T14:01:43Z</time>
      </trkpt>
      <trkpt lat="44.13676" lon="5.83404">
        <ele>1096.52</ele>
        <time>2015-05-24T14:02:01Z</time>
      </trkpt>
      <trkpt lat="44.13684" lon="5.83424">
        <ele>1095.56</ele>
        <time>2015-05-24T14:02:16Z</time>
      </trkpt>
      <trkpt lat="44.13694" lon="5.83444">
        <ele>1095.08</ele>
        <time>2015-05-24T14:02:32Z</time>
      </trkpt>
      <trkpt lat="44.13704" lon="5.83465">
        <ele>1093.64</ele>
        <time>2015-05-24T14:02:49Z</time>
      </trkpt>
      <trkpt lat="44.13714" lon="5.83485">
        <ele>1092.2</ele>
        <time>2015-05-24T14:03:05Z</time>
      </trkpt>
      <trkpt lat="44.13727" lon="5.83507">
        <ele>1090.75</ele>
        <time>2015-05-24T14:03:24Z</time>
      </trkpt>
      <trkpt lat="44.13739" lon="5.83534">
        <ele>1089.79</ele>
        <time>2015-05-24T14:03:41Z</time>
      </trkpt>
      <trkpt lat="44.13753" lon="5.83553">
        <ele>1089.31</ele>
        <time>2015-05-24T14:03:59Z</time>
      </trkpt>
      <trkpt lat="44.13767" lon="5.83569">
        <ele>1088.83</ele>
        <time>2015-05-24T14:04:13Z</time>
      </trkpt>
      <trkpt lat="44.13779" lon="5.83588">
        <ele>1088.83</ele>
        <time>2015-05-24T14:04:28Z</time>
      </trkpt>
      <trkpt lat="44.13783" lon="5.83599">
        <ele>1090.27</ele>
        <time>2015-05-24T14:04:34Z</time>
      </trkpt>
      <trkpt lat="44.13791" lon="5.83617">
        <ele>1090.75</ele>
        <time>2015-05-24T14:04:48Z</time>
      </trkpt>
      <trkpt lat="44.13797" lon="5.83641">
        <ele>1092.68</ele>
        <time>2015-05-24T14:05:05Z</time>
      </trkpt>
      <trkpt lat="44.13807" lon="5.83653">
        <ele>1094.12</ele>
        <time>2015-05-24T14:05:18Z</time>
      </trkpt>
      <trkpt lat="44.13817" lon="5.83668">
        <ele>1096.04</ele>
        <time>2015-05-24T14:05:32Z</time>
      </trkpt>
      <trkpt lat="44.13821" lon="5.83686">
        <ele>1097.48</ele>
        <time>2015-05-24T14:05:47Z</time>
      </trkpt>
      <trkpt lat="44.13824" lon="5.83698">
        <ele>1097.96</ele>
        <time>2015-05-24T14:06:02Z</time>
      </trkpt>
      <trkpt lat="44.13825" lon="5.83699">
        <ele>1098.44</ele>
        <time>2015-05-24T14:06:24Z</time>
      </trkpt>
      <trkpt lat="44.13821" lon="5.83696">
        <ele>1098.44</ele>
        <time>2015-05-24T14:06:44Z</time>
      </trkpt>
      <trkpt lat="44.13824" lon="5.83698">
        <ele>1098.44</ele>
        <time>2015-05-24T14:07:07Z</time>
      </trkpt>
      <trkpt lat="44.13825" lon="5.83698">
        <ele>1098.44</ele>
        <time>2015-05-24T14:07:34Z</time>
      </trkpt>
      <trkpt lat="44.13824" lon="5.83699">
        <ele>1098.92</ele>
        <time>2015-05-24T14:08:00Z</time>
      </trkpt>
      <trkpt lat="44.13825" lon="5.83701">
        <ele>1098.92</ele>
        <time>2015-05-24T14:08:18Z</time>
      </trkpt>
      <trkpt lat="44.13825" lon="5.83705">
        <ele>1098.92</ele>
        <time>2015-05-24T14:08:36Z</time>
      </trkpt>
      <trkpt lat="44.13826" lon="5.83708">
        <ele>1097.96</ele>
        <time>2015-05-24T14:08:38Z</time>
      </trkpt>
      <trkpt lat="44.13825" lon="5.83715">
        <ele>1096.52</ele>
        <time>2015-05-24T14:08:44Z</time>
      </trkpt>
      <trkpt lat="44.1382" lon="5.83741">
        <ele>1095.08</ele>
        <time>2015-05-24T14:09:02Z</time>
      </trkpt>
      <trkpt lat="44.13821" lon="5.83762">
        <ele>1093.64</ele>
        <time>2015-05-24T14:09:16Z</time>
      </trkpt>
      <trkpt lat="44.13821" lon="5.83769">
        <ele>1092.68</ele>
        <time>2015-05-24T14:09:20Z</time>
      </trkpt>
      <trkpt lat="44.13824" lon="5.83785">
        <ele>1091.71</ele>
        <time>2015-05-24T14:09:30Z</time>
      </trkpt>
      <trkpt lat="44.13827" lon="5.83792">
        <ele>1090.27</ele>
        <time>2015-05-24T14:09:35Z</time>
      </trkpt>
      <trkpt lat="44.13837" lon="5.83803">
        <ele>1086.91</ele>
        <time>2015-05-24T14:09:48Z</time>
      </trkpt>
      <trkpt lat="44.13835" lon="5.83805">
        <ele>1085.95</ele>
        <time>2015-05-24T14:09:51Z</time>
      </trkpt>
      <trkpt lat="44.13829" lon="5.83812">
        <ele>1082.58</ele>
        <time>2015-05-24T14:10:04Z</time>
      </trkpt>
      <trkpt lat="44.13824" lon="5.83815">
        <ele>1079.7</ele>
        <time>2015-05-24T14:10:15Z</time>
      </trkpt>
      <trkpt lat="44.13816" lon="5.83823">
        <ele>1076.33</ele>
        <time>2015-05-24T14:10:28Z</time>
      </trkpt>
      <trkpt lat="44.13809" lon="5.83839">
        <ele>1073.45</ele>
        <time>2015-05-24T14:10:41Z</time>
      </trkpt>
      <trkpt lat="44.13811" lon="5.83859">
        <ele>1070.08</ele>
        <time>2015-05-24T14:10:52Z</time>
      </trkpt>
      <trkpt lat="44.13818" lon="5.83875">
        <ele>1067.2</ele>
        <time>2015-05-24T14:11:03Z</time>
      </trkpt>
      <trkpt lat="44.13822" lon="5.83884">
        <ele>1064.32</ele>
        <time>2015-05-24T14:11:14Z</time>
      </trkpt>
      <trkpt lat="44.13828" lon="5.83898">
        <ele>1060.95</ele>
        <time>2015-05-24T14:11:26Z</time>
      </trkpt>
      <trkpt lat="44.1384" lon="5.83915">
        <ele>1057.59</ele>
        <time>2015-05-24T14:11:43Z</time>
      </trkpt>
      <trkpt lat="44.13842" lon="5.83929">
        <ele>1054.22</ele>
        <time>2015-05-24T14:11:57Z</time>
      </trkpt>
      <trkpt lat="44.13856" lon="5.83949">
        <ele>1051.82</ele>
        <time>2015-05-24T14:12:14Z</time>
      </trkpt>
      <trkpt lat="44.13867" lon="5.83961">
        <ele>1050.86</ele>
        <time>2015-05-24T14:12:28Z</time>
      </trkpt>
      <trkpt lat="44.13881" lon="5.83977">
        <ele>1047.49</ele>
        <time>2015-05-24T14:12:41Z</time>
      </trkpt>
      <trkpt lat="44.13898" lon="5.83989">
        <ele>1044.61</ele>
        <time>2015-05-24T14:12:54Z</time>
      </trkpt>
      <trkpt lat="44.13915" lon="5.84009">
        <ele>1041.73</ele>
        <time>2015-05-24T14:13:11Z</time>
      </trkpt>
      <trkpt lat="44.13924" lon="5.8403">
        <ele>1041.25</ele>
        <time>2015-05-24T14:13:27Z</time>
      </trkpt>
      <trkpt lat="44.13933" lon="5.84051">
        <ele>1039.32</ele>
        <time>2015-05-24T14:13:43Z</time>
      </trkpt>
      <trkpt lat="44.13947" lon="5.84064">
        <ele>1037.88</ele>
        <time>2015-05-24T14:13:57Z</time>
      </trkpt>
      <trkpt lat="44.13957" lon="5.84091">
        <ele>1035</ele>
        <time>2015-05-24T14:14:14Z</time>
      </trkpt>
      <trkpt lat="44.13972" lon="5.84105">
        <ele>1032.59</ele>
        <time>2015-05-24T14:14:29Z</time>
      </trkpt>
      <trkpt lat="44.1399" lon="5.84115">
        <ele>1029.71</ele>
        <time>2015-05-24T14:14:44Z</time>
      </trkpt>
      <trkpt lat="44.14004" lon="5.84121">
        <ele>1026.83</ele>
        <time>2015-05-24T14:14:55Z</time>
      </trkpt>
      <trkpt lat="44.14019" lon="5.84127">
        <ele>1024.42</ele>
        <time>2015-05-24T14:15:08Z</time>
      </trkpt>
      <trkpt lat="44.14032" lon="5.84137">
        <ele>1021.54</ele>
        <time>2015-05-24T14:15:23Z</time>
      </trkpt>
      <trkpt lat="44.14052" lon="5.84139">
        <ele>1018.17</ele>
        <time>2015-05-24T14:15:36Z</time>
      </trkpt>
      <trkpt lat="44.14061" lon="5.84134">
        <ele>1016.73</ele>
        <time>2015-05-24T14:15:47Z</time>
      </trkpt>
      <trkpt lat="44.14074" lon="5.84122">
        <ele>1013.85</ele>
        <time>2015-05-24T14:16:00Z</time>
      </trkpt>
      <trkpt lat="44.14086" lon="5.84116">
        <ele>1010.96</ele>
        <time>2015-05-24T14:16:13Z</time>
      </trkpt>
      <trkpt lat="44.14101" lon="5.84112">
        <ele>1008.08</ele>
        <time>2015-05-24T14:16:27Z</time>
      </trkpt>
      <trkpt lat="44.14112" lon="5.84118">
        <ele>1005.68</ele>
        <time>2015-05-24T14:16:40Z</time>
      </trkpt>
      <trkpt lat="44.14119" lon="5.84123">
        <ele>1002.79</ele>
        <time>2015-05-24T14:16:51Z</time>
      </trkpt>
      <trkpt lat="44.14145" lon="5.84132">
        <ele>998.95</ele>
        <time>2015-05-24T14:17:06Z</time>
      </trkpt>
      <trkpt lat="44.14163" lon="5.8413">
        <ele>996.06</ele>
        <time>2015-05-24T14:17:23Z</time>
      </trkpt>
      <trkpt lat="44.14179" lon="5.84126">
        <ele>992.7</ele>
        <time>2015-05-24T14:17:37Z</time>
      </trkpt>
      <trkpt lat="44.14188" lon="5.84118">
        <ele>989.81</ele>
        <time>2015-05-24T14:17:49Z</time>
      </trkpt>
      <trkpt lat="44.14202" lon="5.84107">
        <ele>986.45</ele>
        <time>2015-05-24T14:18:03Z</time>
      </trkpt>
      <trkpt lat="44.14215" lon="5.84105">
        <ele>983.09</ele>
        <time>2015-05-24T14:18:18Z</time>
      </trkpt>
      <trkpt lat="44.14228" lon="5.84108">
        <ele>979.72</ele>
        <time>2015-05-24T14:18:33Z</time>
      </trkpt>
      <trkpt lat="44.14237" lon="5.84107">
        <ele>976.36</ele>
        <time>2015-05-24T14:18:45Z</time>
      </trkpt>
      <trkpt lat="44.14251" lon="5.84097">
        <ele>972.99</ele>
        <time>2015-05-24T14:18:58Z</time>
      </trkpt>
      <trkpt lat="44.14263" lon="5.84084">
        <ele>970.11</ele>
        <time>2015-05-24T14:19:11Z</time>
      </trkpt>
      <trkpt lat="44.14275" lon="5.84091">
        <ele>966.74</ele>
        <time>2015-05-24T14:19:26Z</time>
      </trkpt>
      <trkpt lat="44.14281" lon="5.8411">
        <ele>964.82</ele>
        <time>2015-05-24T14:19:40Z</time>
      </trkpt>
      <trkpt lat="44.14289" lon="5.84123">
        <ele>961.46</ele>
        <time>2015-05-24T14:19:52Z</time>
      </trkpt>
      <trkpt lat="44.143" lon="5.84128">
        <ele>958.57</ele>
        <time>2015-05-24T14:20:04Z</time>
      </trkpt>
      <trkpt lat="44.14313" lon="5.84138">
        <ele>955.21</ele>
        <time>2015-05-24T14:20:18Z</time>
      </trkpt>
      <trkpt lat="44.14325" lon="5.84146">
        <ele>952.32</ele>
        <time>2015-05-24T14:20:30Z</time>
      </trkpt>
      <trkpt lat="44.14338" lon="5.84147">
        <ele>948.96</ele>
        <time>2015-05-24T14:20:44Z</time>
      </trkpt>
      <trkpt lat="44.14337" lon="5.84145">
        <ele>948.96</ele>
        <time>2015-05-24T14:21:07Z</time>
      </trkpt>
      <trkpt lat="44.14342" lon="5.84148">
        <ele>948.96</ele>
        <time>2015-05-24T14:21:40Z</time>
      </trkpt>
      <trkpt lat="44.14345" lon="5.84149">
        <ele>949.44</ele>
        <time>2015-05-24T14:22:09Z</time>
      </trkpt>
      <trkpt lat="44.14343" lon="5.84142">
        <ele>949.44</ele>
        <time>2015-05-24T14:22:39Z</time>
      </trkpt>
      <trkpt lat="44.14346" lon="5.84145">
        <ele>950.4</ele>
        <time>2015-05-24T14:23:07Z</time>
      </trkpt>
      <trkpt lat="44.14344" lon="5.84144">
        <ele>950.4</ele>
        <time>2015-05-24T14:23:33Z</time>
      </trkpt>
      <trkpt lat="44.1434" lon="5.84144">
        <ele>950.4</ele>
        <time>2015-05-24T14:24:00Z</time>
      </trkpt>
      <trkpt lat="44.14345" lon="5.84145">
        <ele>950.88</ele>
        <time>2015-05-24T14:24:30Z</time>
      </trkpt>
      <trkpt lat="44.14347" lon="5.84144">
        <ele>950.88</ele>
        <time>2015-05-24T14:24:58Z</time>
      </trkpt>
      <trkpt lat="44.14349" lon="5.84145">
        <ele>950.88</ele>
        <time>2015-05-24T14:25:26Z</time>
      </trkpt>
      <trkpt lat="44.14347" lon="5.84146">
        <ele>951.36</ele>
        <time>2015-05-24T14:25:47Z</time>
      </trkpt>
      <trkpt lat="44.14346" lon="5.84147">
        <ele>951.36</ele>
        <time>2015-05-24T14:26:12Z</time>
      </trkpt>
      <trkpt lat="44.14348" lon="5.84144">
        <ele>951.84</ele>
        <time>2015-05-24T14:26:38Z</time>
      </trkpt>
      <trkpt lat="44.14347" lon="5.84155">
        <ele>950.4</ele>
        <time>2015-05-24T14:26:58Z</time>
      </trkpt>
      <trkpt lat="44.1436" lon="5.84158">
        <ele>949.92</ele>
        <time>2015-05-24T14:27:12Z</time>
      </trkpt>
      <trkpt lat="44.14365" lon="5.84157">
        <ele>949.44</ele>
        <time>2015-05-24T14:27:17Z</time>
      </trkpt>
      <trkpt lat="44.14381" lon="5.84164">
        <ele>948.48</ele>
        <time>2015-05-24T14:27:32Z</time>
      </trkpt>
      <trkpt lat="44.14392" lon="5.84178">
        <ele>948.48</ele>
        <time>2015-05-24T14:27:46Z</time>
      </trkpt>
      <trkpt lat="44.14404" lon="5.84192">
        <ele>949.44</ele>
        <time>2015-05-24T14:28:03Z</time>
      </trkpt>
      <trkpt lat="44.14407" lon="5.84194">
        <ele>949.92</ele>
        <time>2015-05-24T14:28:06Z</time>
      </trkpt>
      <trkpt lat="44.14419" lon="5.8421">
        <ele>949.44</ele>
        <time>2015-05-24T14:28:22Z</time>
      </trkpt>
      <trkpt lat="44.14424" lon="5.84217">
        <ele>948.48</ele>
        <time>2015-05-24T14:28:28Z</time>
      </trkpt>
      <trkpt lat="44.14431" lon="5.8424">
        <ele>945.59</ele>
        <time>2015-05-24T14:28:45Z</time>
      </trkpt>
      <trkpt lat="44.14438" lon="5.84255">
        <ele>942.71</ele>
        <time>2015-05-24T14:29:00Z</time>
      </trkpt>
      <trkpt lat="44.14447" lon="5.84266">
        <ele>939.35</ele>
        <time>2015-05-24T14:29:13Z</time>
      </trkpt>
      <trkpt lat="44.14453" lon="5.84275">
        <ele>935.98</ele>
        <time>2015-05-24T14:29:27Z</time>
      </trkpt>
      <trkpt lat="44.14477" lon="5.84281">
        <ele>932.62</ele>
        <time>2015-05-24T14:29:38Z</time>
      </trkpt>
      <trkpt lat="44.14486" lon="5.8428">
        <ele>929.25</ele>
        <time>2015-05-24T14:29:49Z</time>
      </trkpt>
      <trkpt lat="44.14495" lon="5.84292">
        <ele>927.81</ele>
        <time>2015-05-24T14:30:03Z</time>
      </trkpt>
      <trkpt lat="44.14507" lon="5.84306">
        <ele>923.96</ele>
        <time>2015-05-24T14:30:18Z</time>
      </trkpt>
      <trkpt lat="44.14521" lon="5.8432">
        <ele>921.56</ele>
        <time>2015-05-24T14:30:33Z</time>
      </trkpt>
      <trkpt lat="44.14546" lon="5.8433">
        <ele>919.64</ele>
        <time>2015-05-24T14:30:49Z</time>
      </trkpt>
      <trkpt lat="44.14563" lon="5.84333">
        <ele>915.79</ele>
        <time>2015-05-24T14:31:04Z</time>
      </trkpt>
      <trkpt lat="44.14576" lon="5.84334">
        <ele>912.91</ele>
        <time>2015-05-24T14:31:16Z</time>
      </trkpt>
      <trkpt lat="44.1459" lon="5.84336">
        <ele>910.03</ele>
        <time>2015-05-24T14:31:30Z</time>
      </trkpt>
      <trkpt lat="44.14598" lon="5.84339">
        <ele>907.14</ele>
        <time>2015-05-24T14:31:43Z</time>
      </trkpt>
      <trkpt lat="44.14611" lon="5.84349">
        <ele>904.74</ele>
        <time>2015-05-24T14:31:58Z</time>
      </trkpt>
      <trkpt lat="44.1462" lon="5.84368">
        <ele>904.74</ele>
        <time>2015-05-24T14:32:14Z</time>
      </trkpt>
      <trkpt lat="44.1463" lon="5.84386">
        <ele>903.78</ele>
        <time>2015-05-24T14:32:31Z</time>
      </trkpt>
      <trkpt lat="44.14648" lon="5.84404">
        <ele>903.78</ele>
        <time>2015-05-24T14:32:48Z</time>
      </trkpt>
      <trkpt lat="44.14665" lon="5.84417">
        <ele>901.37</ele>
        <time>2015-05-24T14:33:02Z</time>
      </trkpt>
      <trkpt lat="44.14685" lon="5.84427">
        <ele>898.97</ele>
        <time>2015-05-24T14:33:19Z</time>
      </trkpt>
      <trkpt lat="44.14692" lon="5.84436">
        <ele>897.05</ele>
        <time>2015-05-24T14:33:31Z</time>
      </trkpt>
      <trkpt lat="44.14704" lon="5.84451">
        <ele>894.64</ele>
        <time>2015-05-24T14:33:48Z</time>
      </trkpt>
      <trkpt lat="44.14711" lon="5.84464">
        <ele>892.24</ele>
        <time>2015-05-24T14:34:01Z</time>
      </trkpt>
      <trkpt lat="44.14736" lon="5.84486">
        <ele>890.8</ele>
        <time>2015-05-24T14:34:18Z</time>
      </trkpt>
      <trkpt lat="44.14757" lon="5.845">
        <ele>889.36</ele>
        <time>2015-05-24T14:34:33Z</time>
      </trkpt>
      <trkpt lat="44.14775" lon="5.84512">
        <ele>888.4</ele>
        <time>2015-05-24T14:34:48Z</time>
      </trkpt>
      <trkpt lat="44.14794" lon="5.84526">
        <ele>885.51</ele>
        <time>2015-05-24T14:35:05Z</time>
      </trkpt>
      <trkpt lat="44.14813" lon="5.84533">
        <ele>883.59</ele>
        <time>2015-05-24T14:35:20Z</time>
      </trkpt>
      <trkpt lat="44.14828" lon="5.8454">
        <ele>881.19</ele>
        <time>2015-05-24T14:35:36Z</time>
      </trkpt>
      <trkpt lat="44.14839" lon="5.84552">
        <ele>877.82</ele>
        <time>2015-05-24T14:35:51Z</time>
      </trkpt>
      <trkpt lat="44.14848" lon="5.84561">
        <ele>875.42</ele>
        <time>2015-05-24T14:36:04Z</time>
      </trkpt>
      <trkpt lat="44.14858" lon="5.84574">
        <ele>872.05</ele>
        <time>2015-05-24T14:36:18Z</time>
      </trkpt>
      <trkpt lat="44.14863" lon="5.84589">
        <ele>869.17</ele>
        <time>2015-05-24T14:36:33Z</time>
      </trkpt>
      <trkpt lat="44.14875" lon="5.84606">
        <ele>866.29</ele>
        <time>2015-05-24T14:36:47Z</time>
      </trkpt>
      <trkpt lat="44.14891" lon="5.84619">
        <ele>863.88</ele>
        <time>2015-05-24T14:37:00Z</time>
      </trkpt>
      <trkpt lat="44.1491" lon="5.84635">
        <ele>861.96</ele>
        <time>2015-05-24T14:37:15Z</time>
      </trkpt>
      <trkpt lat="44.1492" lon="5.84652">
        <ele>860.04</ele>
        <time>2015-05-24T14:37:29Z</time>
      </trkpt>
      <trkpt lat="44.14922" lon="5.84675">
        <ele>856.67</ele>
        <time>2015-05-24T14:37:43Z</time>
      </trkpt>
      <trkpt lat="44.14924" lon="5.84695">
        <ele>853.79</ele>
        <time>2015-05-24T14:37:56Z</time>
      </trkpt>
      <trkpt lat="44.14924" lon="5.84716">
        <ele>850.42</ele>
        <time>2015-05-24T14:38:09Z</time>
      </trkpt>
      <trkpt lat="44.14922" lon="5.84738">
        <ele>847.06</ele>
        <time>2015-05-24T14:38:25Z</time>
      </trkpt>
      <trkpt lat="44.14926" lon="5.8476">
        <ele>844.66</ele>
        <time>2015-05-24T14:38:41Z</time>
      </trkpt>
      <trkpt lat="44.14924" lon="5.84776">
        <ele>841.77</ele>
        <time>2015-05-24T14:38:55Z</time>
      </trkpt>
      <trkpt lat="44.14929" lon="5.84793">
        <ele>838.41</ele>
        <time>2015-05-24T14:39:10Z</time>
      </trkpt>
      <trkpt lat="44.14937" lon="5.84807">
        <ele>836.48</ele>
        <time>2015-05-24T14:39:23Z</time>
      </trkpt>
      <trkpt lat="44.14945" lon="5.84817">
        <ele>834.08</ele>
        <time>2015-05-24T14:39:35Z</time>
      </trkpt>
      <trkpt lat="44.14962" lon="5.84827">
        <ele>830.24</ele>
        <time>2015-05-24T14:39:50Z</time>
      </trkpt>
      <trkpt lat="44.14976" lon="5.8484">
        <ele>827.83</ele>
        <time>2015-05-24T14:40:06Z</time>
      </trkpt>
      <trkpt lat="44.14992" lon="5.84856">
        <ele>824.95</ele>
        <time>2015-05-24T14:40:21Z</time>
      </trkpt>
      <trkpt lat="44.15004" lon="5.8487">
        <ele>824.95</ele>
        <time>2015-05-24T14:40:31Z</time>
      </trkpt>
      <trkpt lat="44.15016" lon="5.84895">
        <ele>824.47</ele>
        <time>2015-05-24T14:40:46Z</time>
      </trkpt>
      <trkpt lat="44.15018" lon="5.84903">
        <ele>824.47</ele>
        <time>2015-05-24T14:40:54Z</time>
      </trkpt>
      <trkpt lat="44.15019" lon="5.84908">
        <ele>824.47</ele>
        <time>2015-05-24T14:40:57Z</time>
      </trkpt>
      <trkpt lat="44.15027" lon="5.84921">
        <ele>824.47</ele>
        <time>2015-05-24T14:41:12Z</time>
      </trkpt>
      <trkpt lat="44.15028" lon="5.84924">
        <ele>824.47</ele>
        <time>2015-05-24T14:41:32Z</time>
      </trkpt>
      <trkpt lat="44.1503" lon="5.84929">
        <ele>824.47</ele>
        <time>2015-05-24T14:41:53Z</time>
      </trkpt>
      <trkpt lat="44.15033" lon="5.84927">
        <ele>824.47</ele>
        <time>2015-05-24T14:42:26Z</time>
      </trkpt>
      <trkpt lat="44.15032" lon="5.84925">
        <ele>824.47</ele>
        <time>2015-05-24T14:42:50Z</time>
      </trkpt>
      <trkpt lat="44.15034" lon="5.84926">
        <ele>824.47</ele>
        <time>2015-05-24T14:43:12Z</time>
      </trkpt>
      <trkpt lat="44.15033" lon="5.84923">
        <ele>824.47</ele>
        <time>2015-05-24T14:43:37Z</time>
      </trkpt>
      <trkpt lat="44.15035" lon="5.84927">
        <ele>824.47</ele>
        <time>2015-05-24T14:44:00Z</time>
      </trkpt>
      <trkpt lat="44.15036" lon="5.84923">
        <ele>824.95</ele>
        <time>2015-05-24T14:44:20Z</time>
      </trkpt>
      <trkpt lat="44.15033" lon="5.84919">
        <ele>824.95</ele>
        <time>2015-05-24T14:44:44Z</time>
      </trkpt>
      <trkpt lat="44.15033" lon="5.8492">
        <ele>824.95</ele>
        <time>2015-05-24T14:45:09Z</time>
      </trkpt>
      <trkpt lat="44.15032" lon="5.8492">
        <ele>824.95</ele>
        <time>2015-05-24T14:45:35Z</time>
      </trkpt>
      <trkpt lat="44.15032" lon="5.84918">
        <ele>824.95</ele>
        <time>2015-05-24T14:46:03Z</time>
      </trkpt>
      <trkpt lat="44.15032" lon="5.84917">
        <ele>824.95</ele>
        <time>2015-05-24T14:46:30Z</time>
      </trkpt>
      <trkpt lat="44.15033" lon="5.84914">
        <ele>824.95</ele>
        <time>2015-05-24T14:46:57Z</time>
      </trkpt>
      <trkpt lat="44.1503" lon="5.84919">
        <ele>825.43</ele>
        <time>2015-05-24T14:47:22Z</time>
      </trkpt>
      <trkpt lat="44.1503" lon="5.84916">
        <ele>825.43</ele>
        <time>2015-05-24T14:47:48Z</time>
      </trkpt>
      <trkpt lat="44.15031" lon="5.84921">
        <ele>825.43</ele>
        <time>2015-05-24T14:48:05Z</time>
      </trkpt>
      <trkpt lat="44.15037" lon="5.84931">
        <ele>825.43</ele>
        <time>2015-05-24T14:48:21Z</time>
      </trkpt>
      <trkpt lat="44.15039" lon="5.84939">
        <ele>825.43</ele>
        <time>2015-05-24T14:48:26Z</time>
      </trkpt>
      <trkpt lat="44.15042" lon="5.84961">
        <ele>824.47</ele>
        <time>2015-05-24T14:48:39Z</time>
      </trkpt>
      <trkpt lat="44.15041" lon="5.84993">
        <ele>823.51</ele>
        <time>2015-05-24T14:48:55Z</time>
      </trkpt>
      <trkpt lat="44.1504" lon="5.85001">
        <ele>822.55</ele>
        <time>2015-05-24T14:49:01Z</time>
      </trkpt>
      <trkpt lat="44.1504" lon="5.85004">
        <ele>822.06</ele>
        <time>2015-05-24T14:49:03Z</time>
      </trkpt>
      <trkpt lat="44.15039" lon="5.85026">
        <ele>820.62</ele>
        <time>2015-05-24T14:49:13Z</time>
      </trkpt>
      <trkpt lat="44.15036" lon="5.85034">
        <ele>819.66</ele>
        <time>2015-05-24T14:49:18Z</time>
      </trkpt>
      <trkpt lat="44.15039" lon="5.85058">
        <ele>817.26</ele>
        <time>2015-05-24T14:49:31Z</time>
      </trkpt>
      <trkpt lat="44.15039" lon="5.85078">
        <ele>815.82</ele>
        <time>2015-05-24T14:49:43Z</time>
      </trkpt>
      <trkpt lat="44.15037" lon="5.85099">
        <ele>814.37</ele>
        <time>2015-05-24T14:49:55Z</time>
      </trkpt>
      <trkpt lat="44.1504" lon="5.85122">
        <ele>812.93</ele>
        <time>2015-05-24T14:50:07Z</time>
      </trkpt>
      <trkpt lat="44.15042" lon="5.85151">
        <ele>811.49</ele>
        <time>2015-05-24T14:50:22Z</time>
      </trkpt>
      <trkpt lat="44.15045" lon="5.85171">
        <ele>810.53</ele>
        <time>2015-05-24T14:50:37Z</time>
      </trkpt>
      <trkpt lat="44.15049" lon="5.85189">
        <ele>809.57</ele>
        <time>2015-05-24T14:50:49Z</time>
      </trkpt>
      <trkpt lat="44.15052" lon="5.85195">
        <ele>809.57</ele>
        <time>2015-05-24T14:50:53Z</time>
      </trkpt>
      <trkpt lat="44.15058" lon="5.85205">
        <ele>809.09</ele>
        <time>2015-05-24T14:51:00Z</time>
      </trkpt>
      <trkpt lat="44.15064" lon="5.85227">
        <ele>808.61</ele>
        <time>2015-05-24T14:51:15Z</time>
      </trkpt>
      <trkpt lat="44.15073" lon="5.85254">
        <ele>809.57</ele>
        <time>2015-05-24T14:51:30Z</time>
      </trkpt>
      <trkpt lat="44.15079" lon="5.85281">
        <ele>806.68</ele>
        <time>2015-05-24T14:51:43Z</time>
      </trkpt>
      <trkpt lat="44.15085" lon="5.8529">
        <ele>806.68</ele>
        <time>2015-05-24T14:51:48Z</time>
      </trkpt>
      <trkpt lat="44.15085" lon="5.85302">
        <ele>805.24</ele>
        <time>2015-05-24T14:51:55Z</time>
      </trkpt>
      <trkpt lat="44.15089" lon="5.85329">
        <ele>803.32</ele>
        <time>2015-05-24T14:52:09Z</time>
      </trkpt>
      <trkpt lat="44.15088" lon="5.85334">
        <ele>802.84</ele>
        <time>2015-05-24T14:52:10Z</time>
      </trkpt>
      <trkpt lat="44.15085" lon="5.85364">
        <ele>802.36</ele>
        <time>2015-05-24T14:52:27Z</time>
      </trkpt>
      <trkpt lat="44.15081" lon="5.85389">
        <ele>802.36</ele>
        <time>2015-05-24T14:52:41Z</time>
      </trkpt>
      <trkpt lat="44.15079" lon="5.85399">
        <ele>801.88</ele>
        <time>2015-05-24T14:52:48Z</time>
      </trkpt>
      <trkpt lat="44.15074" lon="5.85421">
        <ele>801.88</ele>
        <time>2015-05-24T14:53:02Z</time>
      </trkpt>
      <trkpt lat="44.15067" lon="5.85435">
        <ele>801.88</ele>
        <time>2015-05-24T14:53:12Z</time>
      </trkpt>
      <trkpt lat="44.15063" lon="5.85443">
        <ele>801.88</ele>
        <time>2015-05-24T14:53:17Z</time>
      </trkpt>
      <trkpt lat="44.15061" lon="5.85448">
        <ele>801.88</ele>
        <time>2015-05-24T14:53:19Z</time>
      </trkpt>
      <trkpt lat="44.1506" lon="5.85456">
        <ele>799.95</ele>
        <time>2015-05-24T14:53:30Z</time>
      </trkpt>
      <trkpt lat="44.15055" lon="5.85463">
        <ele>796.59</ele>
        <time>2015-05-24T14:53:39Z</time>
      </trkpt>
      <trkpt lat="44.15054" lon="5.85468">
        <ele>794.67</ele>
        <time>2015-05-24T14:53:44Z</time>
      </trkpt>
      <trkpt lat="44.15052" lon="5.85477">
        <ele>791.3</ele>
        <time>2015-05-24T14:53:52Z</time>
      </trkpt>
      <trkpt lat="44.15052" lon="5.85496">
        <ele>788.42</ele>
        <time>2015-05-24T14:54:05Z</time>
      </trkpt>
      <trkpt lat="44.15053" lon="5.85509">
        <ele>785.53</ele>
        <time>2015-05-24T14:54:15Z</time>
      </trkpt>
      <trkpt lat="44.15048" lon="5.85533">
        <ele>783.13</ele>
        <time>2015-05-24T14:54:29Z</time>
      </trkpt>
      <trkpt lat="44.15049" lon="5.85553">
        <ele>780.73</ele>
        <time>2015-05-24T14:54:42Z</time>
      </trkpt>
      <trkpt lat="44.15047" lon="5.85574">
        <ele>778.81</ele>
        <time>2015-05-24T14:54:55Z</time>
      </trkpt>
      <trkpt lat="44.15048" lon="5.85602">
        <ele>775.92</ele>
        <time>2015-05-24T14:55:06Z</time>
      </trkpt>
      <trkpt lat="44.15047" lon="5.85633">
        <ele>772.56</ele>
        <time>2015-05-24T14:55:19Z</time>
      </trkpt>
      <trkpt lat="44.15049" lon="5.85654">
        <ele>769.19</ele>
        <time>2015-05-24T14:55:32Z</time>
      </trkpt>
      <trkpt lat="44.15051" lon="5.85673">
        <ele>766.31</ele>
        <time>2015-05-24T14:55:45Z</time>
      </trkpt>
      <trkpt lat="44.15054" lon="5.8568">
        <ele>762.94</ele>
        <time>2015-05-24T14:55:54Z</time>
      </trkpt>
      <trkpt lat="44.1506" lon="5.8569">
        <ele>759.58</ele>
        <time>2015-05-24T14:56:05Z</time>
      </trkpt>
      <trkpt lat="44.15064" lon="5.85697">
        <ele>756.69</ele>
        <time>2015-05-24T14:56:11Z</time>
      </trkpt>
      <trkpt lat="44.15065" lon="5.85707">
        <ele>753.81</ele>
        <time>2015-05-24T14:56:22Z</time>
      </trkpt>
      <trkpt lat="44.15065" lon="5.85725">
        <ele>751.41</ele>
        <time>2015-05-24T14:56:35Z</time>
      </trkpt>
      <trkpt lat="44.15064" lon="5.85727">
        <ele>751.41</ele>
        <time>2015-05-24T14:56:37Z</time>
      </trkpt>
      <trkpt lat="44.15064" lon="5.85733">
        <ele>750.45</ele>
        <time>2015-05-24T14:56:41Z</time>
      </trkpt>
      <trkpt lat="44.15061" lon="5.85772">
        <ele>747.56</ele>
        <time>2015-05-24T14:56:56Z</time>
      </trkpt>
      <trkpt lat="44.15061" lon="5.85774">
        <ele>747.08</ele>
        <time>2015-05-24T14:56:58Z</time>
      </trkpt>
      <trkpt lat="44.15064" lon="5.85794">
        <ele>745.16</ele>
        <time>2015-05-24T14:57:11Z</time>
      </trkpt>
      <trkpt lat="44.15067" lon="5.85811">
        <ele>742.76</ele>
        <time>2015-05-24T14:57:22Z</time>
      </trkpt>
      <trkpt lat="44.15069" lon="5.85829">
        <ele>739.39</ele>
        <time>2015-05-24T14:57:34Z</time>
      </trkpt>
      <trkpt lat="44.15066" lon="5.85841">
        <ele>736.99</ele>
        <time>2015-05-24T14:57:46Z</time>
      </trkpt>
      <trkpt lat="44.15066" lon="5.85845">
        <ele>736.51</ele>
        <time>2015-05-24T14:57:49Z</time>
      </trkpt>
      <trkpt lat="44.15054" lon="5.85868">
        <ele>734.58</ele>
        <time>2015-05-24T14:58:05Z</time>
      </trkpt>
      <trkpt lat="44.15052" lon="5.85875">
        <ele>733.62</ele>
        <time>2015-05-24T14:58:22Z</time>
      </trkpt>
      <trkpt lat="44.15057" lon="5.85877">
        <ele>733.62</ele>
        <time>2015-05-24T14:58:38Z</time>
      </trkpt>
      <trkpt lat="44.15054" lon="5.85874">
        <ele>733.14</ele>
        <time>2015-05-24T14:59:03Z</time>
      </trkpt>
      <trkpt lat="44.15054" lon="5.85869">
        <ele>733.14</ele>
        <time>2015-05-24T14:59:33Z</time>
      </trkpt>
      <trkpt lat="44.15047" lon="5.85863">
        <ele>733.14</ele>
        <time>2015-05-24T15:00:03Z</time>
      </trkpt>
      <trkpt lat="44.15048" lon="5.85867">
        <ele>732.66</ele>
        <time>2015-05-24T15:00:29Z</time>
      </trkpt>
      <trkpt lat="44.15052" lon="5.85871">
        <ele>732.66</ele>
        <time>2015-05-24T15:01:03Z</time>
      </trkpt>
      <trkpt lat="44.15064" lon="5.85877">
        <ele>732.18</ele>
        <time>2015-05-24T15:01:30Z</time>
      </trkpt>
      <trkpt lat="44.15059" lon="5.85871">
        <ele>732.18</ele>
        <time>2015-05-24T15:01:57Z</time>
      </trkpt>
      <trkpt lat="44.15061" lon="5.85869">
        <ele>732.66</ele>
        <time>2015-05-24T15:02:32Z</time>
      </trkpt>
      <trkpt lat="44.15065" lon="5.85873">
        <ele>732.66</ele>
        <time>2015-05-24T15:02:59Z</time>
      </trkpt>
      <trkpt lat="44.15063" lon="5.85871">
        <ele>732.66</ele>
        <time>2015-05-24T15:03:20Z</time>
      </trkpt>
      <trkpt lat="44.15062" lon="5.85867">
        <ele>732.66</ele>
        <time>2015-05-24T15:03:49Z</time>
      </trkpt>
      <trkpt lat="44.15065" lon="5.85881">
        <ele>732.18</ele>
        <time>2015-05-24T15:03:59Z</time>
      </trkpt>
      <trkpt lat="44.15066" lon="5.85894">
        <ele>728.34</ele>
        <time>2015-05-24T15:04:10Z</time>
      </trkpt>
      <trkpt lat="44.15063" lon="5.85907">
        <ele>725.45</ele>
        <time>2015-05-24T15:04:22Z</time>
      </trkpt>
      <trkpt lat="44.15063" lon="5.85917">
        <ele>724.97</ele>
        <time>2015-05-24T15:04:27Z</time>
      </trkpt>
      <trkpt lat="44.1507" lon="5.85939">
        <ele>723.53</ele>
        <time>2015-05-24T15:04:42Z</time>
      </trkpt>
      <trkpt lat="44.15079" lon="5.8596">
        <ele>721.61</ele>
        <time>2015-05-24T15:04:56Z</time>
      </trkpt>
      <trkpt lat="44.15088" lon="5.85977">
        <ele>719.68</ele>
        <time>2015-05-24T15:05:12Z</time>
      </trkpt>
      <trkpt lat="44.15098" lon="5.85984">
        <ele>717.76</ele>
        <time>2015-05-24T15:05:24Z</time>
      </trkpt>
      <trkpt lat="44.15103" lon="5.86001">
        <ele>713.92</ele>
        <time>2015-05-24T15:05:39Z</time>
      </trkpt>
      <trkpt lat="44.15111" lon="5.86009">
        <ele>711.03</ele>
        <time>2015-05-24T15:05:49Z</time>
      </trkpt>
      <trkpt lat="44.15117" lon="5.86016">
        <ele>708.15</ele>
        <time>2015-05-24T15:05:57Z</time>
      </trkpt>
      <trkpt lat="44.15123" lon="5.86023">
        <ele>704.78</ele>
        <time>2015-05-24T15:06:08Z</time>
      </trkpt>
      <trkpt lat="44.1513" lon="5.86035">
        <ele>701.9</ele>
        <time>2015-05-24T15:06:20Z</time>
      </trkpt>
      <trkpt lat="44.15133" lon="5.86046">
        <ele>699.02</ele>
        <time>2015-05-24T15:06:29Z</time>
      </trkpt>
      <trkpt lat="44.15138" lon="5.86061">
        <ele>695.65</ele>
        <time>2015-05-24T15:06:42Z</time>
      </trkpt>
      <trkpt lat="44.15138" lon="5.86068">
        <ele>695.17</ele>
        <time>2015-05-24T15:06:46Z</time>
      </trkpt>
      <trkpt lat="44.15142" lon="5.86086">
        <ele>692.77</ele>
        <time>2015-05-24T15:06:59Z</time>
      </trkpt>
      <trkpt lat="44.15146" lon="5.86102">
        <ele>689.88</ele>
        <time>2015-05-24T15:07:14Z</time>
      </trkpt>
      <trkpt lat="44.15145" lon="5.86111">
        <ele>686.52</ele>
        <time>2015-05-24T15:07:25Z</time>
      </trkpt>
      <trkpt lat="44.15145" lon="5.86119">
        <ele>684.12</ele>
        <time>2015-05-24T15:07:37Z</time>
      </trkpt>
      <trkpt lat="44.1515" lon="5.86136">
        <ele>681.23</ele>
        <time>2015-05-24T15:07:50Z</time>
      </trkpt>
      <trkpt lat="44.15154" lon="5.86154">
        <ele>677.87</ele>
        <time>2015-05-24T15:08:01Z</time>
      </trkpt>
      <trkpt lat="44.15154" lon="5.86161">
        <ele>676.91</ele>
        <time>2015-05-24T15:08:06Z</time>
      </trkpt>
      <trkpt lat="44.15156" lon="5.86177">
        <ele>673.06</ele>
        <time>2015-05-24T15:08:18Z</time>
      </trkpt>
      <trkpt lat="44.15156" lon="5.86192">
        <ele>671.62</ele>
        <time>2015-05-24T15:08:27Z</time>
      </trkpt>
      <trkpt lat="44.15158" lon="5.86216">
        <ele>668.25</ele>
        <time>2015-05-24T15:08:41Z</time>
      </trkpt>
      <trkpt lat="44.15156" lon="5.8624">
        <ele>664.89</ele>
        <time>2015-05-24T15:08:58Z</time>
      </trkpt>
      <trkpt lat="44.15157" lon="5.86257">
        <ele>662.49</ele>
        <time>2015-05-24T15:09:13Z</time>
      </trkpt>
      <trkpt lat="44.15154" lon="5.86271">
        <ele>660.08</ele>
        <time>2015-05-24T15:09:26Z</time>
      </trkpt>
      <trkpt lat="44.15155" lon="5.86278">
        <ele>656.72</ele>
        <time>2015-05-24T15:09:39Z</time>
      </trkpt>
      <trkpt lat="44.15155" lon="5.86283">
        <ele>654.8</ele>
        <time>2015-05-24T15:09:48Z</time>
      </trkpt>
      <trkpt lat="44.15155" lon="5.86284">
        <ele>654.31</ele>
        <time>2015-05-24T15:09:49Z</time>
      </trkpt>
      <trkpt lat="44.15157" lon="5.86298">
        <ele>651.91</ele>
        <time>2015-05-24T15:10:03Z</time>
      </trkpt>
      <trkpt lat="44.15159" lon="5.86309">
        <ele>649.51</ele>
        <time>2015-05-24T15:10:10Z</time>
      </trkpt>
      <trkpt lat="44.1516" lon="5.86312">
        <ele>649.03</ele>
        <time>2015-05-24T15:10:12Z</time>
      </trkpt>
      <trkpt lat="44.15161" lon="5.86313">
        <ele>648.55</ele>
        <time>2015-05-24T15:10:13Z</time>
      </trkpt>
      <trkpt lat="44.15165" lon="5.86332">
        <ele>646.14</ele>
        <time>2015-05-24T15:10:25Z</time>
      </trkpt>
      <trkpt lat="44.15163" lon="5.86355">
        <ele>643.74</ele>
        <time>2015-05-24T15:10:38Z</time>
      </trkpt>
      <trkpt lat="44.15161" lon="5.86382">
        <ele>641.34</ele>
        <time>2015-05-24T15:10:55Z</time>
      </trkpt>
      <trkpt lat="44.15163" lon="5.864">
        <ele>638.93</ele>
        <time>2015-05-24T15:11:09Z</time>
      </trkpt>
      <trkpt lat="44.15163" lon="5.86419">
        <ele>636.53</ele>
        <time>2015-05-24T15:11:22Z</time>
      </trkpt>
      <trkpt lat="44.15161" lon="5.86436">
        <ele>633.17</ele>
        <time>2015-05-24T15:11:36Z</time>
      </trkpt>
      <trkpt lat="44.15163" lon="5.8645">
        <ele>631.24</ele>
        <time>2015-05-24T15:11:50Z</time>
      </trkpt>
      <trkpt lat="44.15163" lon="5.86466">
        <ele>629.8</ele>
        <time>2015-05-24T15:12:03Z</time>
      </trkpt>
      <trkpt lat="44.15166" lon="5.86482">
        <ele>627.4</ele>
        <time>2015-05-24T15:12:14Z</time>
      </trkpt>
      <trkpt lat="44.15168" lon="5.86493">
        <ele>626.44</ele>
        <time>2015-05-24T15:12:19Z</time>
      </trkpt>
      <trkpt lat="44.15172" lon="5.86517">
        <ele>624.03</ele>
        <time>2015-05-24T15:12:33Z</time>
      </trkpt>
      <trkpt lat="44.1517" lon="5.86534">
        <ele>621.15</ele>
        <time>2015-05-24T15:12:46Z</time>
      </trkpt>
      <trkpt lat="44.1517" lon="5.86536">
        <ele>621.15</ele>
        <time>2015-05-24T15:12:47Z</time>
      </trkpt>
      <trkpt lat="44.15168" lon="5.86556">
        <ele>621.15</ele>
        <time>2015-05-24T15:13:01Z</time>
      </trkpt>
      <trkpt lat="44.15168" lon="5.86559">
        <ele>621.15</ele>
        <time>2015-05-24T15:13:03Z</time>
      </trkpt>
      <trkpt lat="44.15168" lon="5.86573">
        <ele>622.59</ele>
        <time>2015-05-24T15:13:11Z</time>
      </trkpt>
      <trkpt lat="44.15163" lon="5.86596">
        <ele>623.07</ele>
        <time>2015-05-24T15:13:26Z</time>
      </trkpt>
      <trkpt lat="44.15159" lon="5.8662">
        <ele>624.51</ele>
        <time>2015-05-24T15:13:42Z</time>
      </trkpt>
      <trkpt lat="44.15157" lon="5.86641">
        <ele>624.51</ele>
        <time>2015-05-24T15:13:56Z</time>
      </trkpt>
      <trkpt lat="44.15157" lon="5.86658">
        <ele>623.55</ele>
        <time>2015-05-24T15:14:07Z</time>
      </trkpt>
      <trkpt lat="44.15153" lon="5.86686">
        <ele>622.59</ele>
        <time>2015-05-24T15:14:23Z</time>
      </trkpt>
      <trkpt lat="44.1515" lon="5.86704">
        <ele>622.59</ele>
        <time>2015-05-24T15:14:35Z</time>
      </trkpt>
      <trkpt lat="44.15144" lon="5.86724">
        <ele>622.59</ele>
        <time>2015-05-24T15:14:50Z</time>
      </trkpt>
      <trkpt lat="44.15143" lon="5.86725">
        <ele>622.59</ele>
        <time>2015-05-24T15:14:51Z</time>
      </trkpt>
      <trkpt lat="44.15141" lon="5.86731">
        <ele>622.59</ele>
        <time>2015-05-24T15:14:54Z</time>
      </trkpt>
      <trkpt lat="44.15133" lon="5.86743">
        <ele>624.51</ele>
        <time>2015-05-24T15:15:05Z</time>
      </trkpt>
      <trkpt lat="44.15132" lon="5.86761">
        <ele>622.11</ele>
        <time>2015-05-24T15:15:18Z</time>
      </trkpt>
      <trkpt lat="44.15133" lon="5.86764">
        <ele>622.11</ele>
        <time>2015-05-24T15:15:20Z</time>
      </trkpt>
      <trkpt lat="44.15142" lon="5.86785">
        <ele>621.15</ele>
        <time>2015-05-24T15:15:33Z</time>
      </trkpt>
      <trkpt lat="44.15145" lon="5.86806">
        <ele>618.26</ele>
        <time>2015-05-24T15:15:47Z</time>
      </trkpt>
      <trkpt lat="44.15146" lon="5.86812">
        <ele>617.78</ele>
        <time>2015-05-24T15:15:51Z</time>
      </trkpt>
      <trkpt lat="44.15143" lon="5.86837">
        <ele>614.9</ele>
        <time>2015-05-24T15:16:06Z</time>
      </trkpt>
      <trkpt lat="44.15135" lon="5.86846">
        <ele>612.02</ele>
        <time>2015-05-24T15:16:22Z</time>
      </trkpt>
      <trkpt lat="44.15127" lon="5.86853">
        <ele>612.02</ele>
        <time>2015-05-24T15:16:41Z</time>
      </trkpt>
      <trkpt lat="44.15111" lon="5.86858">
        <ele>610.09</ele>
        <time>2015-05-24T15:16:58Z</time>
      </trkpt>
      <trkpt lat="44.15097" lon="5.8686">
        <ele>607.69</ele>
        <time>2015-05-24T15:17:13Z</time>
      </trkpt>
      <trkpt lat="44.15084" lon="5.86867">
        <ele>605.77</ele>
        <time>2015-05-24T15:17:27Z</time>
      </trkpt>
      <trkpt lat="44.15071" lon="5.86876">
        <ele>604.33</ele>
        <time>2015-05-24T15:17:40Z</time>
      </trkpt>
      <trkpt lat="44.15052" lon="5.86891">
        <ele>601.44</ele>
        <time>2015-05-24T15:17:58Z</time>
      </trkpt>
      <trkpt lat="44.15035" lon="5.86903">
        <ele>600</ele>
        <time>2015-05-24T15:18:17Z</time>
      </trkpt>
      <trkpt lat="44.15021" lon="5.86919">
        <ele>600</ele>
        <time>2015-05-24T15:18:32Z</time>
      </trkpt>
      <trkpt lat="44.15021" lon="5.8692">
        <ele>600</ele>
        <time>2015-05-24T15:18:33Z</time>
      </trkpt>
      <trkpt lat="44.15012" lon="5.86939">
        <ele>599.52</ele>
        <time>2015-05-24T15:18:46Z</time>
      </trkpt>
      <trkpt lat="44.14997" lon="5.86961">
        <ele>598.08</ele>
        <time>2015-05-24T15:19:03Z</time>
      </trkpt>
      <trkpt lat="44.14982" lon="5.86977">
        <ele>596.64</ele>
        <time>2015-05-24T15:19:20Z</time>
      </trkpt>
      <trkpt lat="44.14968" lon="5.86985">
        <ele>596.64</ele>
        <time>2015-05-24T15:19:34Z</time>
      </trkpt>
      <trkpt lat="44.14959" lon="5.86999">
        <ele>596.15</ele>
        <time>2015-05-24T15:19:47Z</time>
      </trkpt>
      <trkpt lat="44.14956" lon="5.87005">
        <ele>595.67</ele>
        <time>2015-05-24T15:19:53Z</time>
      </trkpt>
      <trkpt lat="44.14954" lon="5.87024">
        <ele>594.23</ele>
        <time>2015-05-24T15:20:07Z</time>
      </trkpt>
      <trkpt lat="44.14962" lon="5.87046">
        <ele>593.75</ele>
        <time>2015-05-24T15:20:21Z</time>
      </trkpt>
      <trkpt lat="44.14962" lon="5.87048">
        <ele>593.75</ele>
        <time>2015-05-24T15:20:23Z</time>
      </trkpt>
      <trkpt lat="44.1496" lon="5.87058">
        <ele>593.75</ele>
        <time>2015-05-24T15:20:29Z</time>
      </trkpt>
      <trkpt lat="44.14964" lon="5.87077">
        <ele>593.27</ele>
        <time>2015-05-24T15:20:39Z</time>
      </trkpt>
      <trkpt lat="44.14974" lon="5.87107">
        <ele>593.27</ele>
        <time>2015-05-24T15:20:51Z</time>
      </trkpt>
      <trkpt lat="44.14985" lon="5.87124">
        <ele>594.71</ele>
        <time>2015-05-24T15:21:06Z</time>
      </trkpt>
      <trkpt lat="44.14994" lon="5.87137">
        <ele>593.75</ele>
        <time>2015-05-24T15:21:16Z</time>
      </trkpt>
      <trkpt lat="44.15" lon="5.87151">
        <ele>591.83</ele>
        <time>2015-05-24T15:21:26Z</time>
      </trkpt>
      <trkpt lat="44.15002" lon="5.87155">
        <ele>591.35</ele>
        <time>2015-05-24T15:21:29Z</time>
      </trkpt>
      <trkpt lat="44.15012" lon="5.87174">
        <ele>589.91</ele>
        <time>2015-05-24T15:21:44Z</time>
      </trkpt>
      <trkpt lat="44.15023" lon="5.87197">
        <ele>587.98</ele>
        <time>2015-05-24T15:22:01Z</time>
      </trkpt>
      <trkpt lat="44.15027" lon="5.87223">
        <ele>585.58</ele>
        <time>2015-05-24T15:22:19Z</time>
      </trkpt>
      <trkpt lat="44.15028" lon="5.87235">
        <ele>584.62</ele>
        <time>2015-05-24T15:22:25Z</time>
      </trkpt>
      <trkpt lat="44.15032" lon="5.87268">
        <ele>583.18</ele>
        <time>2015-05-24T15:22:42Z</time>
      </trkpt>
      <trkpt lat="44.15033" lon="5.87278">
        <ele>582.7</ele>
        <time>2015-05-24T15:22:48Z</time>
      </trkpt>
      <trkpt lat="44.15033" lon="5.87281">
        <ele>582.7</ele>
        <time>2015-05-24T15:22:50Z</time>
      </trkpt>
      <trkpt lat="44.15034" lon="5.87287">
        <ele>582.22</ele>
        <time>2015-05-24T15:22:54Z</time>
      </trkpt>
      <trkpt lat="44.15022" lon="5.87306">
        <ele>580.29</ele>
        <time>2015-05-24T15:23:12Z</time>
      </trkpt>
      <trkpt lat="44.15013" lon="5.87333">
        <ele>578.85</ele>
        <time>2015-05-24T15:23:29Z</time>
      </trkpt>
      <trkpt lat="44.15001" lon="5.87352">
        <ele>578.37</ele>
        <time>2015-05-24T15:23:45Z</time>
      </trkpt>
      <trkpt lat="44.14992" lon="5.87378">
        <ele>578.37</ele>
        <time>2015-05-24T15:24:04Z</time>
      </trkpt>
      <trkpt lat="44.14987" lon="5.87398">
        <ele>577.41</ele>
        <time>2015-05-24T15:24:17Z</time>
      </trkpt>
      <trkpt lat="44.14975" lon="5.87425">
        <ele>575.49</ele>
        <time>2015-05-24T15:24:35Z</time>
      </trkpt>
      <trkpt lat="44.14955" lon="5.87448">
        <ele>573.08</ele>
        <time>2015-05-24T15:24:55Z</time>
      </trkpt>
      <trkpt lat="44.14936" lon="5.87462">
        <ele>571.64</ele>
        <time>2015-05-24T15:25:11Z</time>
      </trkpt>
      <trkpt lat="44.14925" lon="5.87485">
        <ele>571.16</ele>
        <time>2015-05-24T15:25:27Z</time>
      </trkpt>
      <trkpt lat="44.14917" lon="5.87509">
        <ele>569.72</ele>
        <time>2015-05-24T15:25:40Z</time>
      </trkpt>
      <trkpt lat="44.14911" lon="5.87539">
        <ele>568.28</ele>
        <time>2015-05-24T15:25:57Z</time>
      </trkpt>
      <trkpt lat="44.14899" lon="5.87561">
        <ele>566.83</ele>
        <time>2015-05-24T15:26:14Z</time>
      </trkpt>
      <trkpt lat="44.14888" lon="5.87575">
        <ele>565.39</ele>
        <time>2015-05-24T15:26:29Z</time>
      </trkpt>
      <trkpt lat="44.14873" lon="5.87585">
        <ele>564.43</ele>
        <time>2015-05-24T15:26:43Z</time>
      </trkpt>
      <trkpt lat="44.14855" lon="5.87597">
        <ele>563.47</ele>
        <time>2015-05-24T15:27:00Z</time>
      </trkpt>
      <trkpt lat="44.14842" lon="5.87599">
        <ele>562.51</ele>
        <time>2015-05-24T15:27:18Z</time>
      </trkpt>
      <trkpt lat="44.14826" lon="5.87602">
        <ele>561.07</ele>
        <time>2015-05-24T15:27:35Z</time>
      </trkpt>
      <trkpt lat="44.14823" lon="5.87605">
        <ele>560.11</ele>
        <time>2015-05-24T15:27:38Z</time>
      </trkpt>
      <trkpt lat="44.14821" lon="5.87618">
        <ele>559.62</ele>
        <time>2015-05-24T15:27:45Z</time>
      </trkpt>
      <trkpt lat="44.14833" lon="5.87626">
        <ele>557.22</ele>
        <time>2015-05-24T15:27:59Z</time>
      </trkpt>
      <trkpt lat="44.14834" lon="5.87626">
        <ele>557.22</ele>
        <time>2015-05-24T15:28:00Z</time>
      </trkpt>
      <trkpt lat="44.14853" lon="5.87619">
        <ele>555.78</ele>
        <time>2015-05-24T15:28:16Z</time>
      </trkpt>
      <trkpt lat="44.14868" lon="5.87612">
        <ele>554.34</ele>
        <time>2015-05-24T15:28:32Z</time>
      </trkpt>
      <trkpt lat="44.14884" lon="5.87603">
        <ele>553.38</ele>
        <time>2015-05-24T15:28:50Z</time>
      </trkpt>
      <trkpt lat="44.14892" lon="5.87593">
        <ele>551.93</ele>
        <time>2015-05-24T15:29:02Z</time>
      </trkpt>
      <trkpt lat="44.14928" lon="5.87576">
        <ele>550.49</ele>
        <time>2015-05-24T15:29:22Z</time>
      </trkpt>
      <trkpt lat="44.14952" lon="5.87573">
        <ele>549.05</ele>
        <time>2015-05-24T15:29:39Z</time>
      </trkpt>
      <trkpt lat="44.14976" lon="5.8757">
        <ele>546.65</ele>
        <time>2015-05-24T15:29:56Z</time>
      </trkpt>
      <trkpt lat="44.14977" lon="5.8757">
        <ele>546.65</ele>
        <time>2015-05-24T15:29:57Z</time>
      </trkpt>
      <trkpt lat="44.14995" lon="5.87581">
        <ele>544.24</ele>
        <time>2015-05-24T15:30:14Z</time>
      </trkpt>
      <trkpt lat="44.15005" lon="5.876">
        <ele>542.8</ele>
        <time>2015-05-24T15:30:30Z</time>
      </trkpt>
      <trkpt lat="44.15006" lon="5.87609">
        <ele>542.8</ele>
        <time>2015-05-24T15:30:41Z</time>
      </trkpt>
      <trkpt lat="44.15005" lon="5.8764">
        <ele>542.8</ele>
        <time>2015-05-24T15:30:59Z</time>
      </trkpt>
      <trkpt lat="44.14996" lon="5.87666">
        <ele>543.76</ele>
        <time>2015-05-24T15:31:16Z</time>
      </trkpt>
      <trkpt lat="44.14991" lon="5.87675">
        <ele>543.76</ele>
        <time>2015-05-24T15:31:23Z</time>
      </trkpt>
      <trkpt lat="44.1498" lon="5.87695">
        <ele>544.72</ele>
        <time>2015-05-24T15:31:39Z</time>
      </trkpt>
      <trkpt lat="44.14966" lon="5.87716">
        <ele>545.69</ele>
        <time>2015-05-24T15:31:56Z</time>
      </trkpt>
      <trkpt lat="44.14952" lon="5.87739">
        <ele>546.17</ele>
        <time>2015-05-24T15:32:16Z</time>
      </trkpt>
      <trkpt lat="44.14939" lon="5.8776">
        <ele>547.13</ele>
        <time>2015-05-24T15:32:34Z</time>
      </trkpt>
      <trkpt lat="44.14926" lon="5.8778">
        <ele>548.09</ele>
        <time>2015-05-24T15:32:51Z</time>
      </trkpt>
      <trkpt lat="44.14911" lon="5.87802">
        <ele>548.57</ele>
        <time>2015-05-24T15:33:09Z</time>
      </trkpt>
      <trkpt lat="44.14896" lon="5.87827">
        <ele>550.01</ele>
        <time>2015-05-24T15:33:30Z</time>
      </trkpt>
      <trkpt lat="44.14881" lon="5.87852">
        <ele>550.97</ele>
        <time>2015-05-24T15:33:50Z</time>
      </trkpt>
      <trkpt lat="44.1487" lon="5.87874">
        <ele>551.93</ele>
        <time>2015-05-24T15:34:09Z</time>
      </trkpt>
      <trkpt lat="44.1486" lon="5.87893">
        <ele>553.38</ele>
        <time>2015-05-24T15:34:25Z</time>
      </trkpt>
      <trkpt lat="44.14851" lon="5.87909">
        <ele>553.86</ele>
        <time>2015-05-24T15:34:38Z</time>
      </trkpt>
      <trkpt lat="44.14848" lon="5.87913">
        <ele>554.34</ele>
        <time>2015-05-24T15:34:41Z</time>
      </trkpt>
      <trkpt lat="44.14837" lon="5.87935">
        <ele>555.3</ele>
        <time>2015-05-24T15:34:58Z</time>
      </trkpt>
      <trkpt lat="44.14827" lon="5.87957">
        <ele>556.26</ele>
        <time>2015-05-24T15:35:15Z</time>
      </trkpt>
      <trkpt lat="44.14816" lon="5.8798">
        <ele>557.22</ele>
        <time>2015-05-24T15:35:32Z</time>
      </trkpt>
      <trkpt lat="44.14805" lon="5.87997">
        <ele>557.7</ele>
        <time>2015-05-24T15:35:48Z</time>
      </trkpt>
      <trkpt lat="44.14797" lon="5.88006">
        <ele>558.18</ele>
        <time>2015-05-24T15:36:03Z</time>
      </trkpt>
      <trkpt lat="44.14796" lon="5.88004">
        <ele>558.66</ele>
        <time>2015-05-24T15:36:22Z</time>
      </trkpt>
      <trkpt lat="44.14798" lon="5.88003">
        <ele>558.66</ele>
        <time>2015-05-24T15:36:51Z</time>
      </trkpt>
      <trkpt lat="44.14796" lon="5.88002">
        <ele>558.66</ele>
        <time>2015-05-24T15:37:17Z</time>
      </trkpt>
      <trkpt lat="44.14797" lon="5.88002">
        <ele>558.66</ele>
        <time>2015-05-24T15:37:39Z</time>
      </trkpt>
      <trkpt lat="44.14798" lon="5.88001">
        <ele>558.66</ele>
        <time>2015-05-24T15:38:07Z</time>
      </trkpt>
    </trkseg>
  </trk>
</gpx>